<?xml version='1.0' encoding='UTF-8'?><gpx version="1.1" creator="JPX - https://github.com/jenetics/jpx" xmlns="http://www.topografix.com/GPX/1/1"><trk><trkseg><trkpt lat="44.09163140230262" lon="12.39405903966389"><ele>31.999999999999996</ele><time>2026-04-11T08:41:07.971Z</time></trkpt><trkpt lat="44.091552612412805" lon="12.394029032450536"><ele>32.0</ele><time>2026-04-11T08:41:11.978Z</time></trkpt><trkpt lat="44.09147925072745" lon="12.394012442905352"><ele>32.0</ele><time>2026-04-11T08:41:14.982Z</time></trkpt><trkpt lat="44.09140107033544" lon="12.393990572617748"><ele>32.0</ele><time>2026-04-11T08:41:17.986Z</time></trkpt><trkpt lat="44.09131442362313" lon="12.393969363358726"><ele>31.999999999999996</ele><time>2026-04-11T08:41:20.988Z</time></trkpt><trkpt lat="44.09122857183878" lon="12.393936963150596"><ele>32.0</ele><time>2026-04-11T08:41:23.991Z</time></trkpt><trkpt lat="44.091158854400994" lon="12.393959192292503"><ele>31.999999999999996</ele><time>2026-04-11T08:41:28.994Z</time></trkpt><trkpt lat="44.09113624167569" lon="12.394083697679687"><ele>32.0</ele><time>2026-04-11T08:41:31.995Z</time></trkpt><trkpt lat="44.091101741978925" lon="12.39415875572805"><ele>32.0</ele><time>2026-04-11T08:41:33.996Z</time></trkpt><trkpt lat="44.091094472634175" lon="12.394279596725575"><ele>32.0</ele><time>2026-04-11T08:41:37.997Z</time></trkpt><trkpt lat="44.09107440514696" lon="12.394371429582163"><ele>31.999999999999996</ele><time>2026-04-11T08:41:41.998Z</time></trkpt><trkpt lat="44.09099637561355" lon="12.394370958276653"><ele>32.0</ele><time>2026-04-11T08:41:53Z</time></trkpt><trkpt lat="44.09090682818451" lon="12.394415748216884"><ele>32.0</ele><time>2026-04-11T08:41:55Z</time></trkpt><trkpt lat="44.09085178626636" lon="12.394617795879217"><ele>32.0</ele><time>2026-04-11T08:42:04.001Z</time></trkpt><trkpt lat="44.09076597091002" lon="12.394602425605015"><ele>32.0</ele><time>2026-04-11T08:42:07.001Z</time></trkpt><trkpt lat="44.09069535214733" lon="12.39458527225645"><ele>32.0</ele><time>2026-04-11T08:42:09.001Z</time></trkpt><trkpt lat="44.090628575429776" lon="12.394564158087295"><ele>32.0</ele><time>2026-04-11T08:42:11.001Z</time></trkpt><trkpt lat="44.09054607710096" lon="12.3945451355569"><ele>32.2</ele><time>2026-04-11T08:42:13.001Z</time></trkpt><trkpt lat="44.09045011561495" lon="12.394530950816344"><ele>32.400000000000006</ele><time>2026-04-11T08:42:15.001Z</time></trkpt><trkpt lat="44.09038226406472" lon="12.39449339599266"><ele>32.599999999999994</ele><time>2026-04-11T08:42:17.001Z</time></trkpt><trkpt lat="44.09027187808174" lon="12.39445198759531"><ele>32.8</ele><time>2026-04-11T08:42:19.001Z</time></trkpt><trkpt lat="44.09019915364206" lon="12.394392258758284"><ele>33.0</ele><time>2026-04-11T08:42:21.001Z</time></trkpt><trkpt lat="44.09008978870333" lon="12.394311432950303"><ele>33.0</ele><time>2026-04-11T08:42:23.002Z</time></trkpt><trkpt lat="44.090025864331196" lon="12.394256902429332"><ele>33.0</ele><time>2026-04-11T08:42:24.002Z</time></trkpt><trkpt lat="44.08995596590316" lon="12.394196356119874"><ele>33.0</ele><time>2026-04-11T08:42:25.002Z</time></trkpt><trkpt lat="44.08985491503244" lon="12.394100673266866"><ele>33.0</ele><time>2026-04-11T08:42:27.002Z</time></trkpt><trkpt lat="44.08977147362622" lon="12.394006751505767"><ele>33.0</ele><time>2026-04-11T08:42:29.002Z</time></trkpt><trkpt lat="44.089714254104265" lon="12.393955295089672"><ele>33.5</ele><time>2026-04-11T08:42:30.002Z</time></trkpt><trkpt lat="44.08964126825071" lon="12.39388777860909"><ele>34.0</ele><time>2026-04-11T08:42:32.002Z</time></trkpt><trkpt lat="44.089563463676406" lon="12.393830236784725"><ele>34.5</ele><time>2026-04-11T08:42:34.002Z</time></trkpt><trkpt lat="44.08949063444284" lon="12.393798294231587"><ele>35.0</ele><time>2026-04-11T08:42:36.002Z</time></trkpt><trkpt lat="44.08943072841447" lon="12.393754682223268"><ele>35.5</ele><time>2026-04-11T08:42:38.002Z</time></trkpt><trkpt lat="44.08933356559703" lon="12.393706239448987"><ele>36.0</ele><time>2026-04-11T08:42:41.002Z</time></trkpt><trkpt lat="44.08925210551786" lon="12.393651987965582"><ele>35.166666666666664</ele><time>2026-04-11T08:42:44.002Z</time></trkpt><trkpt lat="44.08917587097378" lon="12.393601843631645"><ele>34.333333333333336</ele><time>2026-04-11T08:42:47.002Z</time></trkpt><trkpt lat="44.08908906739888" lon="12.393595059911172"><ele>33.5</ele><time>2026-04-11T08:42:50.002Z</time></trkpt><trkpt lat="44.089015527873045" lon="12.393588500192022"><ele>32.66666666666667</ele><time>2026-04-11T08:42:52.002Z</time></trkpt><trkpt lat="44.08893984641778" lon="12.39353931543173"><ele>31.833333333333336</ele><time>2026-04-11T08:42:55.002Z</time></trkpt><trkpt lat="44.088882316160756" lon="12.393495270065328"><ele>31.0</ele><time>2026-04-11T08:42:57.002Z</time></trkpt><trkpt lat="44.0888262070059" lon="12.393444288183536"><ele>31.000000000000004</ele><time>2026-04-11T08:42:59.002Z</time></trkpt><trkpt lat="44.08875353588195" lon="12.393357950943972"><ele>31.0</ele><time>2026-04-11T08:43:02.002Z</time></trkpt><trkpt lat="44.08870436681283" lon="12.393293712868804"><ele>31.0</ele><time>2026-04-11T08:43:04.002Z</time></trkpt><trkpt lat="44.0886323532435" lon="12.393212006845596"><ele>31.0</ele><time>2026-04-11T08:43:07.002Z</time></trkpt><trkpt lat="44.08857333156124" lon="12.393153364957607"><ele>31.000000000000004</ele><time>2026-04-11T08:43:09.002Z</time></trkpt><trkpt lat="44.088530447338094" lon="12.393073308276438"><ele>31.0</ele><time>2026-04-11T08:43:11.002Z</time></trkpt><trkpt lat="44.08850814701782" lon="12.39298501816765"><ele>31.0</ele><time>2026-04-11T08:43:13.002Z</time></trkpt><trkpt lat="44.08848670893135" lon="12.39289333353473"><ele>31.000000000000004</ele><time>2026-04-11T08:43:15.002Z</time></trkpt><trkpt lat="44.088459839540455" lon="12.392801068912501"><ele>31.0</ele><time>2026-04-11T08:43:17.002Z</time></trkpt><trkpt lat="44.08844758224538" lon="12.392713900923866"><ele>31.0</ele><time>2026-04-11T08:43:19.001Z</time></trkpt><trkpt lat="44.088449286363826" lon="12.392620955010576"><ele>31.000000000000004</ele><time>2026-04-11T08:43:21.001Z</time></trkpt><trkpt lat="44.08844340462807" lon="12.392509822687956"><ele>31.0</ele><time>2026-04-11T08:43:24.001Z</time></trkpt><trkpt lat="44.08842719888172" lon="12.392398364394657"><ele>31.0</ele><time>2026-04-11T08:43:27.001Z</time></trkpt><trkpt lat="44.08838722494085" lon="12.392293983514216"><ele>31.000000000000004</ele><time>2026-04-11T08:43:31.001Z</time></trkpt><trkpt lat="44.08834794891878" lon="12.392217608663612"><ele>31.0</ele><time>2026-04-11T08:43:34.001Z</time></trkpt><trkpt lat="44.08828492628167" lon="12.392159896060122"><ele>31.0</ele><time>2026-04-11T08:43:36.001Z</time></trkpt><trkpt lat="44.08819373473527" lon="12.39210721679674"><ele>31.0</ele><time>2026-04-11T08:43:38.001Z</time></trkpt><trkpt lat="44.08811500197849" lon="12.392070489499272"><ele>31.000000000000004</ele><time>2026-04-11T08:43:40.001Z</time></trkpt><trkpt lat="44.08804126202655" lon="12.392042814165737"><ele>31.0</ele><time>2026-04-11T08:43:42Z</time></trkpt><trkpt lat="44.08796969273023" lon="12.392023802704237"><ele>31.000000000000004</ele><time>2026-04-11T08:43:44Z</time></trkpt><trkpt lat="44.087881306123464" lon="12.392035877590208"><ele>31.0</ele><time>2026-04-11T08:43:46Z</time></trkpt><trkpt lat="44.08779786801798" lon="12.392047447320948"><ele>31.0</ele><time>2026-04-11T08:43:48Z</time></trkpt><trkpt lat="44.087716812528235" lon="12.392061866304447"><ele>31.0</ele><time>2026-04-11T08:43:50Z</time></trkpt><trkpt lat="44.08763790759816" lon="12.39207764203427"><ele>31.000000000000004</ele><time>2026-04-11T08:43:52Z</time></trkpt><trkpt lat="44.08756767766907" lon="12.392082973364618"><ele>31.0</ele><time>2026-04-11T08:43:54Z</time></trkpt><trkpt lat="44.08749427348259" lon="12.392090584039538"><ele>31.000000000000004</ele><time>2026-04-11T08:43:56Z</time></trkpt><trkpt lat="44.08737625285585" lon="12.392089681034745"><ele>31.0</ele><time>2026-04-11T08:43:59Z</time></trkpt><trkpt lat="44.08727164654546" lon="12.39207718095077"><ele>31.0</ele><time>2026-04-11T08:44:01Z</time></trkpt><trkpt lat="44.0872074301772" lon="12.392041047047147"><ele>31.0</ele><time>2026-04-11T08:44:04Z</time></trkpt><trkpt lat="44.08713985637873" lon="12.39202206003223"><ele>31.000000000000004</ele><time>2026-04-11T08:44:06Z</time></trkpt><trkpt lat="44.087068354238106" lon="12.39202417819959"><ele>31.0</ele><time>2026-04-11T08:44:08Z</time></trkpt><trkpt lat="44.08698090572389" lon="12.391991380645887"><ele>31.000000000000004</ele><time>2026-04-11T08:44:11Z</time></trkpt><trkpt lat="44.08690256519629" lon="12.391916663530889"><ele>31.0</ele><time>2026-04-11T08:44:14Z</time></trkpt><trkpt lat="44.08684814734408" lon="12.391826096420228"><ele>31.0</ele><time>2026-04-11T08:44:17Z</time></trkpt><trkpt lat="44.08677829737793" lon="12.391748942371612"><ele>31.0</ele><time>2026-04-11T08:44:20Z</time></trkpt><trkpt lat="44.08673371380992" lon="12.391678439351816"><ele>31.000000000000004</ele><time>2026-04-11T08:44:23Z</time></trkpt><trkpt lat="44.08666962889471" lon="12.391602318925127"><ele>31.0</ele><time>2026-04-11T08:44:26Z</time></trkpt><trkpt lat="44.08659286421008" lon="12.391541770550518"><ele>31.166666666666668</ele><time>2026-04-11T08:44:29Z</time></trkpt><trkpt lat="44.08653101584892" lon="12.391515797187713"><ele>31.333333333333336</ele><time>2026-04-11T08:44:31Z</time></trkpt><trkpt lat="44.08646801825411" lon="12.391533946670021"><ele>31.5</ele><time>2026-04-11T08:44:33Z</time></trkpt><trkpt lat="44.08637713996474" lon="12.391570292338523"><ele>31.666666666666664</ele><time>2026-04-11T08:44:35Z</time></trkpt><trkpt lat="44.08627736874803" lon="12.391566629298094"><ele>31.833333333333332</ele><time>2026-04-11T08:44:37Z</time></trkpt><trkpt lat="44.086187302499205" lon="12.391560399510123"><ele>32.0</ele><time>2026-04-11T08:44:40Z</time></trkpt><trkpt lat="44.08611083500907" lon="12.391623880682163"><ele>31.999999999999996</ele><time>2026-04-11T08:44:42Z</time></trkpt><trkpt lat="44.08602954624505" lon="12.391632511724737"><ele>32.0</ele><time>2026-04-11T08:44:44Z</time></trkpt><trkpt lat="44.08596238414623" lon="12.39164841116475"><ele>32.0</ele><time>2026-04-11T08:44:46Z</time></trkpt><trkpt lat="44.08589524542359" lon="12.39163132332184"><ele>32.0</ele><time>2026-04-11T08:44:48Z</time></trkpt><trkpt lat="44.085835193954075" lon="12.391594764713279"><ele>31.999999999999996</ele><time>2026-04-11T08:44:50.001Z</time></trkpt><trkpt lat="44.0857452257486" lon="12.39151238942038"><ele>32.0</ele><time>2026-04-11T08:44:53.001Z</time></trkpt><trkpt lat="44.08568067766246" lon="12.391455428005981"><ele>32.42857142857143</ele><time>2026-04-11T08:44:56.001Z</time></trkpt><trkpt lat="44.08561499693281" lon="12.391390995440855"><ele>32.857142857142854</ele><time>2026-04-11T08:44:59.001Z</time></trkpt><trkpt lat="44.08558883889482" lon="12.39129886596799"><ele>33.285714285714285</ele><time>2026-04-11T08:45:02.001Z</time></trkpt><trkpt lat="44.085548205160165" lon="12.39119357859474"><ele>33.714285714285715</ele><time>2026-04-11T08:45:05.001Z</time></trkpt><trkpt lat="44.08549640665027" lon="12.391137279847058"><ele>34.14285714285714</ele><time>2026-04-11T08:45:07.001Z</time></trkpt><trkpt lat="44.085454991775215" lon="12.391064043093381"><ele>34.57142857142857</ele><time>2026-04-11T08:45:11.001Z</time></trkpt><trkpt lat="44.085430354186755" lon="12.390972445832162"><ele>35.0</ele><time>2026-04-11T08:45:16.001Z</time></trkpt><trkpt lat="44.085478731489026" lon="12.390881519911835"><ele>35.0</ele><time>2026-04-11T08:45:18Z</time></trkpt><trkpt lat="44.085523105867246" lon="12.390785905693331"><ele>35.0</ele><time>2026-04-11T08:45:21Z</time></trkpt><trkpt lat="44.08556171158639" lon="12.390706869176768"><ele>35.0</ele><time>2026-04-11T08:45:25Z</time></trkpt><trkpt lat="44.08560168646836" lon="12.390630888274181"><ele>35.0</ele><time>2026-04-11T08:45:46Z</time></trkpt><trkpt lat="44.08564051145193" lon="12.390540744715137"><ele>35.0</ele><time>2026-04-11T08:45:49Z</time></trkpt><trkpt lat="44.0856809400276" lon="12.390462701430971"><ele>35.0</ele><time>2026-04-11T08:45:51Z</time></trkpt><trkpt lat="44.08570856453025" lon="12.390375032440147"><ele>35.0</ele><time>2026-04-11T08:45:53Z</time></trkpt><trkpt lat="44.08574542919098" lon="12.390276521782987"><ele>35.142857142857146</ele><time>2026-04-11T08:45:55Z</time></trkpt><trkpt lat="44.085772575672166" lon="12.390174982238385"><ele>35.285714285714285</ele><time>2026-04-11T08:45:57Z</time></trkpt><trkpt lat="44.08578574655818" lon="12.390075738139885"><ele>35.42857142857143</ele><time>2026-04-11T08:45:59Z</time></trkpt><trkpt lat="44.08582084995014" lon="12.389978801629008"><ele>35.57142857142857</ele><time>2026-04-11T08:46:01Z</time></trkpt><trkpt lat="44.08582647500851" lon="12.389864557527956"><ele>35.714285714285715</ele><time>2026-04-11T08:46:04Z</time></trkpt><trkpt lat="44.085800463300274" lon="12.389782040161203"><ele>35.85714285714286</ele><time>2026-04-11T08:46:06Z</time></trkpt><trkpt lat="44.085755098391004" lon="12.389713845825595"><ele>36.0</ele><time>2026-04-11T08:46:08Z</time></trkpt><trkpt lat="44.08568698251404" lon="12.389669208297557"><ele>35.666666666666664</ele><time>2026-04-11T08:46:10Z</time></trkpt><trkpt lat="44.085614507214935" lon="12.38963785732261"><ele>35.333333333333336</ele><time>2026-04-11T08:46:12Z</time></trkpt><trkpt lat="44.08553831540227" lon="12.389612893758416"><ele>35.0</ele><time>2026-04-11T08:46:14Z</time></trkpt><trkpt lat="44.08545746469221" lon="12.38959650152638"><ele>34.66666666666667</ele><time>2026-04-11T08:46:16Z</time></trkpt><trkpt lat="44.08537873736356" lon="12.38956437431312"><ele>34.333333333333336</ele><time>2026-04-11T08:46:18Z</time></trkpt><trkpt lat="44.08529289442603" lon="12.389553253170996"><ele>34.0</ele><time>2026-04-11T08:46:20Z</time></trkpt><trkpt lat="44.08520597958965" lon="12.389533632871132"><ele>34.0</ele><time>2026-04-11T08:46:22Z</time></trkpt><trkpt lat="44.08511947243663" lon="12.3895135535993"><ele>34.0</ele><time>2026-04-11T08:46:24Z</time></trkpt><trkpt lat="44.08503143034832" lon="12.389505429012706"><ele>34.0</ele><time>2026-04-11T08:46:26Z</time></trkpt><trkpt lat="44.08494171813335" lon="12.38949537409442"><ele>34.0</ele><time>2026-04-11T08:46:28Z</time></trkpt><trkpt lat="44.084851203509956" lon="12.389484072327996"><ele>34.0</ele><time>2026-04-11T08:46:30Z</time></trkpt><trkpt lat="44.08476082303788" lon="12.389480623450735"><ele>34.0</ele><time>2026-04-11T08:46:32Z</time></trkpt><trkpt lat="44.084668570521714" lon="12.389484819277731"><ele>33.833333333333336</ele><time>2026-04-11T08:46:34Z</time></trkpt><trkpt lat="44.08457676762591" lon="12.389488014577053"><ele>33.66666666666667</ele><time>2026-04-11T08:46:36Z</time></trkpt><trkpt lat="44.084486652713345" lon="12.389493728661382"><ele>33.5</ele><time>2026-04-11T08:46:38Z</time></trkpt><trkpt lat="44.08439723800251" lon="12.389503338884385"><ele>33.333333333333336</ele><time>2026-04-11T08:46:40Z</time></trkpt><trkpt lat="44.08430983254238" lon="12.38951033479374"><ele>33.166666666666664</ele><time>2026-04-11T08:46:42Z</time></trkpt><trkpt lat="44.08422213220387" lon="12.389529188505513"><ele>33.0</ele><time>2026-04-11T08:46:44Z</time></trkpt><trkpt lat="44.084131870719936" lon="12.389547288298752"><ele>33.0</ele><time>2026-04-11T08:46:46Z</time></trkpt><trkpt lat="44.08404427324958" lon="12.389562972754922"><ele>33.0</ele><time>2026-04-11T08:46:48Z</time></trkpt><trkpt lat="44.08395468858903" lon="12.38958083766918"><ele>33.0</ele><time>2026-04-11T08:46:50Z</time></trkpt><trkpt lat="44.083866184056504" lon="12.389601571933511"><ele>33.0</ele><time>2026-04-11T08:46:52Z</time></trkpt><trkpt lat="44.083778022266" lon="12.389617526093167"><ele>33.0</ele><time>2026-04-11T08:46:54Z</time></trkpt><trkpt lat="44.08369080809159" lon="12.389633548863218"><ele>33.0</ele><time>2026-04-11T08:46:56Z</time></trkpt><trkpt lat="44.08360470389815" lon="12.38965300557603"><ele>33.0</ele><time>2026-04-11T08:46:58Z</time></trkpt><trkpt lat="44.083520584049985" lon="12.389665090339927"><ele>33.0</ele><time>2026-04-11T08:47:00Z</time></trkpt><trkpt lat="44.08343628788916" lon="12.389684712102166"><ele>33.0</ele><time>2026-04-11T08:47:02Z</time></trkpt><trkpt lat="44.083351609836186" lon="12.3897049842903"><ele>33.0</ele><time>2026-04-11T08:47:04Z</time></trkpt><trkpt lat="44.08326730941938" lon="12.389723437837977"><ele>33.0</ele><time>2026-04-11T08:47:06Z</time></trkpt><trkpt lat="44.08318156561114" lon="12.389742638137271"><ele>33.0</ele><time>2026-04-11T08:47:08Z</time></trkpt><trkpt lat="44.0830956611724" lon="12.389761524929552"><ele>33.333333333333336</ele><time>2026-04-11T08:47:10Z</time></trkpt><trkpt lat="44.0830141512135" lon="12.389776071024768"><ele>33.666666666666664</ele><time>2026-04-11T08:47:12Z</time></trkpt><trkpt lat="44.08293427873867" lon="12.389803057422393"><ele>34.0</ele><time>2026-04-11T08:47:14Z</time></trkpt><trkpt lat="44.08285704219228" lon="12.389818205682705"><ele>34.33333333333333</ele><time>2026-04-11T08:47:16Z</time></trkpt><trkpt lat="44.082778442495524" lon="12.389835494174173"><ele>34.666666666666664</ele><time>2026-04-11T08:47:18Z</time></trkpt><trkpt lat="44.08270579355644" lon="12.38985924578614"><ele>35.0</ele><time>2026-04-11T08:47:20Z</time></trkpt><trkpt lat="44.08263363463159" lon="12.389874343811037"><ele>35.0</ele><time>2026-04-11T08:47:22Z</time></trkpt><trkpt lat="44.08256717263384" lon="12.389879967682068"><ele>35.0</ele><time>2026-04-11T08:47:24Z</time></trkpt><trkpt lat="44.08250422989579" lon="12.38984419395713"><ele>35.0</ele><time>2026-04-11T08:47:28Z</time></trkpt><trkpt lat="44.082492304238954" lon="12.389753721676206"><ele>35.0</ele><time>2026-04-11T08:47:30Z</time></trkpt><trkpt lat="44.08248169437952" lon="12.389629489635379"><ele>35.0</ele><time>2026-04-11T08:47:32Z</time></trkpt><trkpt lat="44.08245933340666" lon="12.389482626261506"><ele>35.0</ele><time>2026-04-11T08:47:34Z</time></trkpt><trkpt lat="44.08244472490486" lon="12.389354709434278"><ele>35.0</ele><time>2026-04-11T08:47:36Z</time></trkpt><trkpt lat="44.082440230405645" lon="12.389236905460992"><ele>35.0</ele><time>2026-04-11T08:47:38Z</time></trkpt><trkpt lat="44.08241712977022" lon="12.38912752777749"><ele>35.0</ele><time>2026-04-11T08:47:40Z</time></trkpt><trkpt lat="44.08241066746978" lon="12.389019826053193"><ele>35.0</ele><time>2026-04-11T08:47:42Z</time></trkpt><trkpt lat="44.082397804204916" lon="12.388927492801091"><ele>35.0</ele><time>2026-04-11T08:47:44Z</time></trkpt><trkpt lat="44.08235260278133" lon="12.388864426011914"><ele>35.0</ele><time>2026-04-11T08:47:46Z</time></trkpt><trkpt lat="44.08228773620342" lon="12.38881643567225"><ele>35.0</ele><time>2026-04-11T08:47:48Z</time></trkpt><trkpt lat="44.08221183322739" lon="12.388779911521686"><ele>35.0</ele><time>2026-04-11T08:47:50Z</time></trkpt><trkpt lat="44.08213912372218" lon="12.388753427582063"><ele>35.0</ele><time>2026-04-11T08:47:52Z</time></trkpt><trkpt lat="44.08205270008075" lon="12.388715714741704"><ele>35.0</ele><time>2026-04-11T08:47:55Z</time></trkpt><trkpt lat="44.082019495182976" lon="12.38863657413727"><ele>35.0</ele><time>2026-04-11T08:47:57Z</time></trkpt><trkpt lat="44.082004825262416" lon="12.38852905494759"><ele>35.0</ele><time>2026-04-11T08:47:59Z</time></trkpt><trkpt lat="44.081990698376664" lon="12.38842849021994"><ele>35.0</ele><time>2026-04-11T08:48:01Z</time></trkpt><trkpt lat="44.08192877620265" lon="12.388362269602853"><ele>35.0</ele><time>2026-04-11T08:48:03Z</time></trkpt><trkpt lat="44.08185248279611" lon="12.388327737629323"><ele>35.0</ele><time>2026-04-11T08:48:05Z</time></trkpt><trkpt lat="44.081796357616874" lon="12.388246492029936"><ele>35.0</ele><time>2026-04-11T08:48:07Z</time></trkpt><trkpt lat="44.08172907347346" lon="12.388208204405206"><ele>35.0</ele><time>2026-04-11T08:48:09Z</time></trkpt><trkpt lat="44.08165035037538" lon="12.388182935226977"><ele>35.0</ele><time>2026-04-11T08:48:11Z</time></trkpt><trkpt lat="44.08158280899624" lon="12.388132713518623"><ele>35.0</ele><time>2026-04-11T08:48:13Z</time></trkpt><trkpt lat="44.081526692899494" lon="12.388060258062092"><ele>35.166666666666664</ele><time>2026-04-11T08:48:15Z</time></trkpt><trkpt lat="44.081463411360595" lon="12.3879955085555"><ele>35.33333333333333</ele><time>2026-04-11T08:48:17Z</time></trkpt><trkpt lat="44.08142648388672" lon="12.387908720380462"><ele>35.5</ele><time>2026-04-11T08:48:19Z</time></trkpt><trkpt lat="44.081418998942105" lon="12.387799540251475"><ele>35.666666666666664</ele><time>2026-04-11T08:48:21Z</time></trkpt><trkpt lat="44.08141246511692" lon="12.38769992541827"><ele>35.833333333333336</ele><time>2026-04-11T08:48:23Z</time></trkpt><trkpt lat="44.081421726327314" lon="12.387556720240235"><ele>36.0</ele><time>2026-04-11T08:48:26Z</time></trkpt><trkpt lat="44.08143541210591" lon="12.387442347844335"><ele>36.0</ele><time>2026-04-11T08:48:28Z</time></trkpt><trkpt lat="44.081453274625105" lon="12.38733683792307"><ele>36.0</ele><time>2026-04-11T08:48:30Z</time></trkpt><trkpt lat="44.0813714588584" lon="12.387245333813222"><ele>36.0</ele><time>2026-04-11T08:48:33Z</time></trkpt><trkpt lat="44.0813060760259" lon="12.387188253380112"><ele>36.0</ele><time>2026-04-11T08:48:35Z</time></trkpt><trkpt lat="44.08123414877865" lon="12.387143930185601"><ele>36.0</ele><time>2026-04-11T08:48:37Z</time></trkpt><trkpt lat="44.081166425598234" lon="12.387092178863995"><ele>36.0</ele><time>2026-04-11T08:48:39Z</time></trkpt><trkpt lat="44.08109864947234" lon="12.387027350135401"><ele>36.166666666666664</ele><time>2026-04-11T08:48:41Z</time></trkpt><trkpt lat="44.081038520831626" lon="12.386958626597531"><ele>36.333333333333336</ele><time>2026-04-11T08:48:43Z</time></trkpt><trkpt lat="44.08097652207791" lon="12.386922344145626"><ele>36.5</ele><time>2026-04-11T08:48:45Z</time></trkpt><trkpt lat="44.08089760115818" lon="12.386866961763568"><ele>36.66666666666667</ele><time>2026-04-11T08:48:47Z</time></trkpt><trkpt lat="44.080842659737556" lon="12.386797218366723"><ele>36.833333333333336</ele><time>2026-04-11T08:48:49Z</time></trkpt><trkpt lat="44.08081193721613" lon="12.38670539769655"><ele>37.0</ele><time>2026-04-11T08:48:51Z</time></trkpt><trkpt lat="44.0808374143153" lon="12.386588459360306"><ele>37.0</ele><time>2026-04-11T08:48:53Z</time></trkpt><trkpt lat="44.08086796558524" lon="12.386478688027095"><ele>37.0</ele><time>2026-04-11T08:48:56Z</time></trkpt><trkpt lat="44.08087949125165" lon="12.386344920306632"><ele>37.0</ele><time>2026-04-11T08:48:59Z</time></trkpt><trkpt lat="44.0809024732407" lon="12.386249711183796"><ele>37.0</ele><time>2026-04-11T08:49:01Z</time></trkpt><trkpt lat="44.080966233203675" lon="12.386160202099083"><ele>37.0</ele><time>2026-04-11T08:49:04Z</time></trkpt><trkpt lat="44.08101347276241" lon="12.386092598052281"><ele>37.0</ele><time>2026-04-11T08:49:06Z</time></trkpt><trkpt lat="44.08109335925383" lon="12.38603540390946"><ele>36.800000000000004</ele><time>2026-04-11T08:49:08Z</time></trkpt><trkpt lat="44.08121330243471" lon="12.386042840878622"><ele>36.6</ele><time>2026-04-11T08:49:10Z</time></trkpt><trkpt lat="44.08130397290576" lon="12.386049105795093"><ele>36.400000000000006</ele><time>2026-04-11T08:49:11Z</time></trkpt><trkpt lat="44.0813989520235" lon="12.386053014250471"><ele>36.2</ele><time>2026-04-11T08:49:13Z</time></trkpt><trkpt lat="44.08149623092844" lon="12.386001330985255"><ele>36.0</ele><time>2026-04-11T08:49:15Z</time></trkpt><trkpt lat="44.08158598242561" lon="12.385969969233296"><ele>35.333333333333336</ele><time>2026-04-11T08:49:17Z</time></trkpt><trkpt lat="44.08168178927239" lon="12.385944145869104"><ele>34.666666666666664</ele><time>2026-04-11T08:49:19Z</time></trkpt><trkpt lat="44.081768862609124" lon="12.385947354897677"><ele>34.0</ele><time>2026-04-11T08:49:22Z</time></trkpt><trkpt lat="44.08182769740802" lon="12.385915812879691"><ele>33.33333333333333</ele><time>2026-04-11T08:49:24Z</time></trkpt><trkpt lat="44.08185439817398" lon="12.385827038230067"><ele>32.666666666666664</ele><time>2026-04-11T08:49:26Z</time></trkpt><trkpt lat="44.08184401039529" lon="12.385724774796554"><ele>32.0</ele><time>2026-04-11T08:49:28Z</time></trkpt><trkpt lat="44.08185888391279" lon="12.385625615339777"><ele>32.0</ele><time>2026-04-11T08:49:30Z</time></trkpt><trkpt lat="44.081857390131944" lon="12.385529349692465"><ele>31.999999999999996</ele><time>2026-04-11T08:49:33Z</time></trkpt><trkpt lat="44.08181373602298" lon="12.385464599553115"><ele>32.0</ele><time>2026-04-11T08:49:35Z</time></trkpt><trkpt lat="44.08174385573394" lon="12.385435812790753"><ele>32.0</ele><time>2026-04-11T08:49:37Z</time></trkpt><trkpt lat="44.0816759690499" lon="12.385352379223292"><ele>31.999999999999996</ele><time>2026-04-11T08:49:40Z</time></trkpt><trkpt lat="44.08163958213674" lon="12.385266090341291"><ele>32.0</ele><time>2026-04-11T08:49:42Z</time></trkpt><trkpt lat="44.08160505913671" lon="12.38518358971123"><ele>32.0</ele><time>2026-04-11T08:49:45Z</time></trkpt><trkpt lat="44.081566081855485" lon="12.385068894195934"><ele>32.666666666666664</ele><time>2026-04-11T08:49:49Z</time></trkpt><trkpt lat="44.081512242478766" lon="12.384995075977512"><ele>33.33333333333333</ele><time>2026-04-11T08:49:51Z</time></trkpt><trkpt lat="44.081481024741905" lon="12.384915850049365"><ele>34.0</ele><time>2026-04-11T08:49:56Z</time></trkpt><trkpt lat="44.08141386800322" lon="12.384857023924663"><ele>34.666666666666664</ele><time>2026-04-11T08:50:00Z</time></trkpt><trkpt lat="44.081337600159756" lon="12.384812519914652"><ele>35.333333333333336</ele><time>2026-04-11T08:50:03Z</time></trkpt><trkpt lat="44.081255145679066" lon="12.384772524547977"><ele>36.0</ele><time>2026-04-11T08:50:06Z</time></trkpt><trkpt lat="44.08117958361691" lon="12.384739321741952"><ele>36.0</ele><time>2026-04-11T08:50:09Z</time></trkpt><trkpt lat="44.081117538357134" lon="12.384686289313976"><ele>36.0</ele><time>2026-04-11T08:50:11Z</time></trkpt><trkpt lat="44.08105462096917" lon="12.384623812321838"><ele>36.0</ele><time>2026-04-11T08:50:14Z</time></trkpt><trkpt lat="44.081008032230336" lon="12.384514365742225"><ele>36.0</ele><time>2026-04-11T08:50:17Z</time></trkpt><trkpt lat="44.081001636246874" lon="12.384381950903528"><ele>36.0</ele><time>2026-04-11T08:50:20Z</time></trkpt><trkpt lat="44.081023910614086" lon="12.38425374266019"><ele>36.0</ele><time>2026-04-11T08:50:23Z</time></trkpt><trkpt lat="44.08101425551933" lon="12.384158885800023"><ele>36.0</ele><time>2026-04-11T08:50:25Z</time></trkpt><trkpt lat="44.08096097668732" lon="12.384083839345962"><ele>36.0</ele><time>2026-04-11T08:50:27Z</time></trkpt><trkpt lat="44.08089629322361" lon="12.384030129277562"><ele>36.0</ele><time>2026-04-11T08:50:30Z</time></trkpt><trkpt lat="44.08081541311763" lon="12.383960766576465"><ele>36.0</ele><time>2026-04-11T08:50:33Z</time></trkpt><trkpt lat="44.0807541981589" lon="12.383926817491167"><ele>36.0</ele><time>2026-04-11T08:50:35Z</time></trkpt><trkpt lat="44.080682128069895" lon="12.3838794792278"><ele>36.0</ele><time>2026-04-11T08:50:37Z</time></trkpt><trkpt lat="44.08061073024139" lon="12.383855446570147"><ele>36.0</ele><time>2026-04-11T08:50:38Z</time></trkpt><trkpt lat="44.08053337201038" lon="12.38390895180967"><ele>36.0</ele><time>2026-04-11T08:50:41Z</time></trkpt><trkpt lat="44.08047561189981" lon="12.383948452133586"><ele>36.0</ele><time>2026-04-11T08:50:43Z</time></trkpt><trkpt lat="44.08041094268762" lon="12.383981229789056"><ele>36.0</ele><time>2026-04-11T08:50:45Z</time></trkpt><trkpt lat="44.08033811281672" lon="12.384024223126392"><ele>36.0</ele><time>2026-04-11T08:50:47Z</time></trkpt><trkpt lat="44.080266287220105" lon="12.38407267648462"><ele>36.0</ele><time>2026-04-11T08:50:49Z</time></trkpt><trkpt lat="44.080184420155575" lon="12.384138931314146"><ele>36.0</ele><time>2026-04-11T08:50:51Z</time></trkpt><trkpt lat="44.080114403374274" lon="12.38420862979932"><ele>36.0</ele><time>2026-04-11T08:50:53Z</time></trkpt><trkpt lat="44.08005069169525" lon="12.38426211472026"><ele>36.0</ele><time>2026-04-11T08:50:55Z</time></trkpt><trkpt lat="44.07998033572583" lon="12.384344313849216"><ele>36.0</ele><time>2026-04-11T08:50:58Z</time></trkpt><trkpt lat="44.07993199214614" lon="12.38442046506448"><ele>36.0</ele><time>2026-04-11T08:51:00Z</time></trkpt><trkpt lat="44.07988887930063" lon="12.384507355846091"><ele>36.0</ele><time>2026-04-11T08:51:03Z</time></trkpt><trkpt lat="44.079842394795335" lon="12.38459840438078"><ele>36.142857142857146</ele><time>2026-04-11T08:51:07Z</time></trkpt><trkpt lat="44.07980715778848" lon="12.384690651355049"><ele>36.285714285714285</ele><time>2026-04-11T08:51:11Z</time></trkpt><trkpt lat="44.07978080852561" lon="12.38478481911525"><ele>36.42857142857143</ele><time>2026-04-11T08:51:14Z</time></trkpt><trkpt lat="44.07975190551006" lon="12.384887252521004"><ele>36.57142857142857</ele><time>2026-04-11T08:51:17Z</time></trkpt><trkpt lat="44.07973816642462" lon="12.384979661398333"><ele>36.714285714285715</ele><time>2026-04-11T08:51:20Z</time></trkpt><trkpt lat="44.07966703320294" lon="12.384929454039467"><ele>36.85714285714286</ele><time>2026-04-11T08:51:23Z</time></trkpt><trkpt lat="44.079620567381674" lon="12.38486348853387"><ele>37.0</ele><time>2026-04-11T08:51:26Z</time></trkpt><trkpt lat="44.07957481082486" lon="12.384795630412425"><ele>37.0</ele><time>2026-04-11T08:51:29Z</time></trkpt><trkpt lat="44.079508993008496" lon="12.384749803843588"><ele>37.0</ele><time>2026-04-11T08:51:32Z</time></trkpt><trkpt lat="44.07943349895223" lon="12.384795337471495"><ele>37.0</ele><time>2026-04-11T08:51:35Z</time></trkpt><trkpt lat="44.07936998708711" lon="12.384838842736569"><ele>37.0</ele><time>2026-04-11T08:51:39Z</time></trkpt><trkpt lat="44.07930468353732" lon="12.384839670938074"><ele>37.0</ele><time>2026-04-11T08:51:42Z</time></trkpt><trkpt lat="44.07924954557239" lon="12.384765532967661"><ele>37.0</ele><time>2026-04-11T08:51:45Z</time></trkpt><trkpt lat="44.07919442617952" lon="12.384685959517336"><ele>37.0</ele><time>2026-04-11T08:51:48Z</time></trkpt><trkpt lat="44.07914040152912" lon="12.384633581135386"><ele>37.142857142857146</ele><time>2026-04-11T08:51:50Z</time></trkpt><trkpt lat="44.07907387690346" lon="12.384551093259729"><ele>37.285714285714285</ele><time>2026-04-11T08:51:53Z</time></trkpt><trkpt lat="44.079025027650246" lon="12.384488269785717"><ele>37.42857142857143</ele><time>2026-04-11T08:51:55Z</time></trkpt><trkpt lat="44.07897001209683" lon="12.384426219235793"><ele>37.57142857142857</ele><time>2026-04-11T08:51:57Z</time></trkpt><trkpt lat="44.07892566685672" lon="12.384355365639058"><ele>37.714285714285715</ele><time>2026-04-11T08:52:00Z</time></trkpt><trkpt lat="44.07886844486216" lon="12.384286559545622"><ele>37.857142857142854</ele><time>2026-04-11T08:52:03Z</time></trkpt><trkpt lat="44.07883483400341" lon="12.38438091392877"><ele>38.0</ele><time>2026-04-11T08:52:10Z</time></trkpt><trkpt lat="44.07879151142042" lon="12.384470550323368"><ele>38.0</ele><time>2026-04-11T08:52:15Z</time></trkpt><trkpt lat="44.07878591499405" lon="12.384559613207077"><ele>38.0</ele><time>2026-04-11T08:52:18Z</time></trkpt><trkpt lat="44.078759757829374" lon="12.384667529974228"><ele>38.0</ele><time>2026-04-11T08:52:22Z</time></trkpt><trkpt lat="44.078722396796145" lon="12.38478327997333"><ele>38.0</ele><time>2026-04-11T08:52:25Z</time></trkpt><trkpt lat="44.07867073651777" lon="12.38485957622693"><ele>38.0</ele><time>2026-04-11T08:52:27Z</time></trkpt><trkpt lat="44.07864523085732" lon="12.38494028478535"><ele>38.0</ele><time>2026-04-11T08:52:29Z</time></trkpt><trkpt lat="44.07856414977125" lon="12.385002992564296"><ele>37.857142857142854</ele><time>2026-04-11T08:52:32Z</time></trkpt><trkpt lat="44.07849171364267" lon="12.385069185677718"><ele>37.714285714285715</ele><time>2026-04-11T08:52:35Z</time></trkpt><trkpt lat="44.07843132693183" lon="12.385133976450055"><ele>37.57142857142857</ele><time>2026-04-11T08:52:37Z</time></trkpt><trkpt lat="44.07837986571275" lon="12.385194201477066"><ele>37.42857142857143</ele><time>2026-04-11T08:52:39Z</time></trkpt><trkpt lat="44.07832833065316" lon="12.385265864432073"><ele>37.285714285714285</ele><time>2026-04-11T08:52:41Z</time></trkpt><trkpt lat="44.07827831054384" lon="12.385326828924198"><ele>37.142857142857146</ele><time>2026-04-11T08:52:43Z</time></trkpt><trkpt lat="44.078234401169354" lon="12.38539654228987"><ele>37.0</ele><time>2026-04-11T08:52:45Z</time></trkpt><trkpt lat="44.078176846931804" lon="12.385445842152306"><ele>37.0</ele><time>2026-04-11T08:52:49Z</time></trkpt><trkpt lat="44.07815592147061" lon="12.3853556499021"><ele>37.0</ele><time>2026-04-11T08:52:52Z</time></trkpt><trkpt lat="44.078135448538234" lon="12.385267185495014"><ele>37.0</ele><time>2026-04-11T08:52:54Z</time></trkpt><trkpt lat="44.078088641993396" lon="12.385182772847068"><ele>37.0</ele><time>2026-04-11T08:52:56Z</time></trkpt><trkpt lat="44.07802993854858" lon="12.385110328479572"><ele>37.0</ele><time>2026-04-11T08:52:58Z</time></trkpt><trkpt lat="44.07797918706691" lon="12.385056271769445"><ele>37.0</ele><time>2026-04-11T08:53:00Z</time></trkpt><trkpt lat="44.077957701880756" lon="12.384949163393"><ele>37.0</ele><time>2026-04-11T08:53:03Z</time></trkpt><trkpt lat="44.07800084702368" lon="12.384869076072313"><ele>37.0</ele><time>2026-04-11T08:53:05Z</time></trkpt><trkpt lat="44.078043156639545" lon="12.384760856672594"><ele>37.0</ele><time>2026-04-11T08:53:08Z</time></trkpt><trkpt lat="44.07801719849466" lon="12.384680645655472"><ele>37.0</ele><time>2026-04-11T08:53:10Z</time></trkpt><trkpt lat="44.07796785072603" lon="12.384599033002717"><ele>37.0</ele><time>2026-04-11T08:53:14Z</time></trkpt><trkpt lat="44.07794917592278" lon="12.384503028277264"><ele>37.0</ele><time>2026-04-11T08:53:17Z</time></trkpt><trkpt lat="44.07793103754609" lon="12.384415013335504"><ele>37.0</ele><time>2026-04-11T08:53:19Z</time></trkpt><trkpt lat="44.077925959774625" lon="12.384289485705107"><ele>37.16666666666667</ele><time>2026-04-11T08:53:22Z</time></trkpt><trkpt lat="44.07794363803474" lon="12.38418592329816"><ele>37.333333333333336</ele><time>2026-04-11T08:53:24Z</time></trkpt><trkpt lat="44.07797250753355" lon="12.384085715949732"><ele>37.5</ele><time>2026-04-11T08:53:26Z</time></trkpt><trkpt lat="44.0779996312895" lon="12.383978856803456"><ele>37.666666666666664</ele><time>2026-04-11T08:53:28Z</time></trkpt><trkpt lat="44.07802367938727" lon="12.38389249833035"><ele>37.83333333333333</ele><time>2026-04-11T08:53:30Z</time></trkpt><trkpt lat="44.07805747515085" lon="12.383775241439402"><ele>38.0</ele><time>2026-04-11T08:53:33Z</time></trkpt><trkpt lat="44.07809933069162" lon="12.383663917765558"><ele>38.166666666666664</ele><time>2026-04-11T08:53:36Z</time></trkpt><trkpt lat="44.07811948955776" lon="12.38356481763164"><ele>38.33333333333333</ele><time>2026-04-11T08:53:38Z</time></trkpt><trkpt lat="44.07814343794873" lon="12.383471136404513"><ele>38.5</ele><time>2026-04-11T08:53:40Z</time></trkpt><trkpt lat="44.07818883338246" lon="12.383365580594498"><ele>38.666666666666664</ele><time>2026-04-11T08:53:43Z</time></trkpt><trkpt lat="44.07818812728835" lon="12.38325400406842"><ele>38.833333333333336</ele><time>2026-04-11T08:53:46Z</time></trkpt><trkpt lat="44.07813261093016" lon="12.383174435676343"><ele>39.0</ele><time>2026-04-11T08:53:49Z</time></trkpt><trkpt lat="44.0780610670406" lon="12.383135240073585"><ele>39.0</ele><time>2026-04-11T08:53:52Z</time></trkpt><trkpt lat="44.07799610888569" lon="12.383100401726333"><ele>39.0</ele><time>2026-04-11T08:53:55Z</time></trkpt><trkpt lat="44.07793424477502" lon="12.383064522833253"><ele>39.0</ele><time>2026-04-11T08:53:58Z</time></trkpt><trkpt lat="44.07784693939933" lon="12.383057023913539"><ele>39.0</ele><time>2026-04-11T08:54:02Z</time></trkpt><trkpt lat="44.077775304033864" lon="12.382994746228238"><ele>39.0</ele><time>2026-04-11T08:54:06Z</time></trkpt><trkpt lat="44.07771059357534" lon="12.38290379300696"><ele>39.0</ele><time>2026-04-11T08:54:09Z</time></trkpt><trkpt lat="44.07766094188189" lon="12.382830345506479"><ele>39.0</ele><time>2026-04-11T08:54:11Z</time></trkpt><trkpt lat="44.077600762551576" lon="12.382741378418144"><ele>39.0</ele><time>2026-04-11T08:54:13Z</time></trkpt><trkpt lat="44.07752985640202" lon="12.382646154171038"><ele>39.0</ele><time>2026-04-11T08:54:15Z</time></trkpt><trkpt lat="44.077464202208624" lon="12.38257213666435"><ele>39.0</ele><time>2026-04-11T08:54:17Z</time></trkpt><trkpt lat="44.07740077521058" lon="12.382507082286464"><ele>39.0</ele><time>2026-04-11T08:54:19Z</time></trkpt><trkpt lat="44.077354763071035" lon="12.382444370118785"><ele>39.0</ele><time>2026-04-11T08:54:21Z</time></trkpt><trkpt lat="44.07729867895075" lon="12.38236269587224"><ele>39.0</ele><time>2026-04-11T08:54:23Z</time></trkpt><trkpt lat="44.07722045039129" lon="12.382301650133138"><ele>39.0</ele><time>2026-04-11T08:54:25Z</time></trkpt><trkpt lat="44.07716423682811" lon="12.382230879075733"><ele>39.0</ele><time>2026-04-11T08:54:27Z</time></trkpt><trkpt lat="44.07710759021119" lon="12.382147130513557"><ele>39.0</ele><time>2026-04-11T08:54:29Z</time></trkpt><trkpt lat="44.07704501424447" lon="12.38207513488069"><ele>39.0</ele><time>2026-04-11T08:54:31Z</time></trkpt><trkpt lat="44.07699323180376" lon="12.381986027551074"><ele>39.0</ele><time>2026-04-11T08:54:33Z</time></trkpt><trkpt lat="44.07695366438742" lon="12.381882226725285"><ele>38.666666666666664</ele><time>2026-04-11T08:54:35Z</time></trkpt><trkpt lat="44.07692326637687" lon="12.381776688923967"><ele>38.333333333333336</ele><time>2026-04-11T08:54:37Z</time></trkpt><trkpt lat="44.076909253153914" lon="12.38167461729705"><ele>38.0</ele><time>2026-04-11T08:54:39Z</time></trkpt><trkpt lat="44.076893213372394" lon="12.381560809651772"><ele>37.66666666666667</ele><time>2026-04-11T08:54:41Z</time></trkpt><trkpt lat="44.07687414752821" lon="12.381438956745718"><ele>37.333333333333336</ele><time>2026-04-11T08:54:43Z</time></trkpt><trkpt lat="44.0768101696918" lon="12.38134300271729"><ele>37.0</ele><time>2026-04-11T08:54:45Z</time></trkpt><trkpt lat="44.07675310032766" lon="12.381255735347839"><ele>37.0</ele><time>2026-04-11T08:54:47Z</time></trkpt><trkpt lat="44.076673571754476" lon="12.381177713214782"><ele>37.0</ele><time>2026-04-11T08:54:49Z</time></trkpt><trkpt lat="44.0765921092724" lon="12.381139072109885"><ele>37.0</ele><time>2026-04-11T08:54:51Z</time></trkpt><trkpt lat="44.07651608035832" lon="12.381124281839524"><ele>37.0</ele><time>2026-04-11T08:54:53Z</time></trkpt><trkpt lat="44.076397875305275" lon="12.38116814662729"><ele>37.0</ele><time>2026-04-11T08:54:55Z</time></trkpt><trkpt lat="44.076333724131636" lon="12.381199044356052"><ele>37.16666666666667</ele><time>2026-04-11T08:54:56Z</time></trkpt><trkpt lat="44.076336129743495" lon="12.381312529393648"><ele>37.333333333333336</ele><time>2026-04-11T08:54:59Z</time></trkpt><trkpt lat="44.07627993804069" lon="12.38140193134419"><ele>37.5</ele><time>2026-04-11T08:55:02Z</time></trkpt><trkpt lat="44.07620486533761" lon="12.381471556894"><ele>37.666666666666664</ele><time>2026-04-11T08:55:05Z</time></trkpt><trkpt lat="44.07611020832956" lon="12.381504417064654"><ele>37.83333333333333</ele><time>2026-04-11T08:55:08Z</time></trkpt><trkpt lat="44.07603920055527" lon="12.381483971643833"><ele>38.0</ele><time>2026-04-11T08:55:10Z</time></trkpt><trkpt lat="44.07598226046733" lon="12.381379742393676"><ele>38.0</ele><time>2026-04-11T08:55:12Z</time></trkpt><trkpt lat="44.0759457164403" lon="12.381253052502988"><ele>38.0</ele><time>2026-04-11T08:55:14Z</time></trkpt><trkpt lat="44.07588106467848" lon="12.381141840470775"><ele>38.0</ele><time>2026-04-11T08:55:16Z</time></trkpt><trkpt lat="44.07583944645958" lon="12.381054025269565"><ele>38.0</ele><time>2026-04-11T08:55:18Z</time></trkpt><trkpt lat="44.0758017654105" lon="12.38096930027955"><ele>38.0</ele><time>2026-04-11T08:55:20Z</time></trkpt><trkpt lat="44.075751774810996" lon="12.380900210559277"><ele>38.0</ele><time>2026-04-11T08:55:22Z</time></trkpt><trkpt lat="44.07569923738711" lon="12.380815848417708"><ele>38.5</ele><time>2026-04-11T08:55:24Z</time></trkpt><trkpt lat="44.075647468474195" lon="12.380720919623721"><ele>39.0</ele><time>2026-04-11T08:55:26Z</time></trkpt><trkpt lat="44.075625372195994" lon="12.380617463888802"><ele>39.5</ele><time>2026-04-11T08:55:28Z</time></trkpt><trkpt lat="44.075600469313784" lon="12.380500315706545"><ele>40.0</ele><time>2026-04-11T08:55:31Z</time></trkpt><trkpt lat="44.07552227932028" lon="12.380528082870617"><ele>40.5</ele><time>2026-04-11T08:55:34Z</time></trkpt><trkpt lat="44.07547771172971" lon="12.38059679608293"><ele>41.0</ele><time>2026-04-11T08:55:36Z</time></trkpt><trkpt lat="44.075423471762285" lon="12.380676211707671"><ele>41.0</ele><time>2026-04-11T08:55:38Z</time></trkpt><trkpt lat="44.07536855139893" lon="12.380747242156522"><ele>41.0</ele><time>2026-04-11T08:55:39Z</time></trkpt><trkpt lat="44.075323745235586" lon="12.380820595387187"><ele>41.0</ele><time>2026-04-11T08:55:42Z</time></trkpt><trkpt lat="44.07524780505515" lon="12.380883821437038"><ele>41.0</ele><time>2026-04-11T08:55:45Z</time></trkpt><trkpt lat="44.07516459264426" lon="12.380904558478704"><ele>41.0</ele><time>2026-04-11T08:55:48Z</time></trkpt><trkpt lat="44.07509890705878" lon="12.380925455075113"><ele>41.0</ele><time>2026-04-11T08:55:51Z</time></trkpt><trkpt lat="44.075020774323924" lon="12.380905592955463"><ele>41.199999999999996</ele><time>2026-04-11T08:55:55Z</time></trkpt><trkpt lat="44.074925368947945" lon="12.380857607955766"><ele>41.4</ele><time>2026-04-11T08:55:58Z</time></trkpt><trkpt lat="44.07490364118554" lon="12.380749283308127"><ele>41.6</ele><time>2026-04-11T08:56:01Z</time></trkpt><trkpt lat="44.07487428023144" lon="12.38064189490224"><ele>41.8</ele><time>2026-04-11T08:56:04Z</time></trkpt><trkpt lat="44.07484973961977" lon="12.380519590608301"><ele>42.0</ele><time>2026-04-11T08:56:07Z</time></trkpt><trkpt lat="44.07481798200051" lon="12.380385589305943"><ele>42.166666666666664</ele><time>2026-04-11T08:56:10Z</time></trkpt><trkpt lat="44.07481479779618" lon="12.38028724518674"><ele>42.333333333333336</ele><time>2026-04-11T08:56:12Z</time></trkpt><trkpt lat="44.07477125928886" lon="12.380198199396062"><ele>42.5</ele><time>2026-04-11T08:56:14Z</time></trkpt><trkpt lat="44.074747965468106" lon="12.380081759436074"><ele>42.66666666666667</ele><time>2026-04-11T08:56:16Z</time></trkpt><trkpt lat="44.074711025795224" lon="12.379971873542667"><ele>42.833333333333336</ele><time>2026-04-11T08:56:18Z</time></trkpt><trkpt lat="44.07468720315911" lon="12.379855360810073"><ele>43.0</ele><time>2026-04-11T08:56:20Z</time></trkpt><trkpt lat="44.07465121768766" lon="12.379744767348289"><ele>42.8</ele><time>2026-04-11T08:56:22Z</time></trkpt><trkpt lat="44.074625987706106" lon="12.379625066472835"><ele>42.599999999999994</ele><time>2026-04-11T08:56:24Z</time></trkpt><trkpt lat="44.074585450172634" lon="12.379502658261124"><ele>42.400000000000006</ele><time>2026-04-11T08:56:26Z</time></trkpt><trkpt lat="44.07455090246818" lon="12.379369535820341"><ele>42.2</ele><time>2026-04-11T08:56:28Z</time></trkpt><trkpt lat="44.07451001840893" lon="12.379226707951"><ele>42.0</ele><time>2026-04-11T08:56:30Z</time></trkpt><trkpt lat="44.07447660262418" lon="12.379076485308701"><ele>42.0</ele><time>2026-04-11T08:56:32Z</time></trkpt><trkpt lat="44.07441422255836" lon="12.378934612576174"><ele>42.0</ele><time>2026-04-11T08:56:34Z</time></trkpt><trkpt lat="44.07435058223749" lon="12.378798750157577"><ele>42.0</ele><time>2026-04-11T08:56:36Z</time></trkpt><trkpt lat="44.07428786803005" lon="12.37865385451293"><ele>42.0</ele><time>2026-04-11T08:56:38Z</time></trkpt><trkpt lat="44.074226105583655" lon="12.378514371391892"><ele>41.833333333333336</ele><time>2026-04-11T08:56:40Z</time></trkpt><trkpt lat="44.07419074541603" lon="12.378439610364675"><ele>41.666666666666664</ele><time>2026-04-11T08:56:41Z</time></trkpt><trkpt lat="44.074145025887674" lon="12.378371015567467"><ele>41.5</ele><time>2026-04-11T08:56:42Z</time></trkpt><trkpt lat="44.074071013290876" lon="12.378229486682661"><ele>41.33333333333333</ele><time>2026-04-11T08:56:44Z</time></trkpt><trkpt lat="44.07403189485739" lon="12.37815933247674"><ele>41.166666666666664</ele><time>2026-04-11T08:56:45Z</time></trkpt><trkpt lat="44.07399182728179" lon="12.378088005429278"><ele>41.0</ele><time>2026-04-11T08:56:46Z</time></trkpt><trkpt lat="44.07391824258391" lon="12.377947490012566"><ele>41.5</ele><time>2026-04-11T08:56:48Z</time></trkpt><trkpt lat="44.073847090405245" lon="12.377812335909681"><ele>42.0</ele><time>2026-04-11T08:56:50Z</time></trkpt><trkpt lat="44.073774377791565" lon="12.377683811461143"><ele>42.5</ele><time>2026-04-11T08:56:52Z</time></trkpt><trkpt lat="44.07371148763681" lon="12.377553251667686"><ele>43.0</ele><time>2026-04-11T08:56:54Z</time></trkpt><trkpt lat="44.07363277620911" lon="12.377440320073008"><ele>43.0</ele><time>2026-04-11T08:56:56Z</time></trkpt><trkpt lat="44.07358662358377" lon="12.377379964335246"><ele>43.0</ele><time>2026-04-11T08:56:57Z</time></trkpt><trkpt lat="44.07350433039315" lon="12.377257375061006"><ele>43.0</ele><time>2026-04-11T08:56:59Z</time></trkpt><trkpt lat="44.07345503584619" lon="12.377200030845565"><ele>43.0</ele><time>2026-04-11T08:57:00Z</time></trkpt><trkpt lat="44.07340825198423" lon="12.377137823425373"><ele>43.0</ele><time>2026-04-11T08:57:01Z</time></trkpt><trkpt lat="44.07335737520926" lon="12.377079573639145"><ele>43.0</ele><time>2026-04-11T08:57:02Z</time></trkpt><trkpt lat="44.07325919858321" lon="12.37698039267758"><ele>43.2</ele><time>2026-04-11T08:57:04Z</time></trkpt><trkpt lat="44.073160026911985" lon="12.376877584319864"><ele>43.4</ele><time>2026-04-11T08:57:06Z</time></trkpt><trkpt lat="44.073064269868446" lon="12.37677906041609"><ele>43.6</ele><time>2026-04-11T08:57:08Z</time></trkpt><trkpt lat="44.07296954044883" lon="12.37668789687498"><ele>43.800000000000004</ele><time>2026-04-11T08:57:10Z</time></trkpt><trkpt lat="44.07288714587358" lon="12.376633010620088"><ele>44.0</ele><time>2026-04-11T08:57:11Z</time></trkpt><trkpt lat="44.072825112741405" lon="12.376551845266519"><ele>44.0</ele><time>2026-04-11T08:57:13Z</time></trkpt><trkpt lat="44.07273198895902" lon="12.376451862125688"><ele>44.0</ele><time>2026-04-11T08:57:15Z</time></trkpt><trkpt lat="44.07264239529281" lon="12.376356291682095"><ele>44.0</ele><time>2026-04-11T08:57:17Z</time></trkpt><trkpt lat="44.0725484046701" lon="12.376268253080312"><ele>44.0</ele><time>2026-04-11T08:57:19Z</time></trkpt><trkpt lat="44.07245852659957" lon="12.376173016444255"><ele>44.25</ele><time>2026-04-11T08:57:21Z</time></trkpt><trkpt lat="44.072366218704566" lon="12.37608478449221"><ele>44.5</ele><time>2026-04-11T08:57:23Z</time></trkpt><trkpt lat="44.07228207657314" lon="12.375980862449714"><ele>44.75</ele><time>2026-04-11T08:57:25Z</time></trkpt><trkpt lat="44.072187744221644" lon="12.375884182418135"><ele>45.0</ele><time>2026-04-11T08:57:27Z</time></trkpt><trkpt lat="44.07210215965325" lon="12.375782287818613"><ele>45.0</ele><time>2026-04-11T08:57:29Z</time></trkpt><trkpt lat="44.07201663617923" lon="12.375688427219988"><ele>45.0</ele><time>2026-04-11T08:57:31Z</time></trkpt><trkpt lat="44.07192475503233" lon="12.375594707304215"><ele>45.0</ele><time>2026-04-11T08:57:33Z</time></trkpt><trkpt lat="44.071835754205715" lon="12.375500917115613"><ele>45.0</ele><time>2026-04-11T08:57:35Z</time></trkpt><trkpt lat="44.071746176092105" lon="12.375404756955605"><ele>45.0</ele><time>2026-04-11T08:57:37Z</time></trkpt><trkpt lat="44.07165625747384" lon="12.375307148896894"><ele>45.5</ele><time>2026-04-11T08:57:39Z</time></trkpt><trkpt lat="44.07156629247028" lon="12.375209359400294"><ele>46.0</ele><time>2026-04-11T08:57:41Z</time></trkpt><trkpt lat="44.07147385340445" lon="12.375114145786206"><ele>46.5</ele><time>2026-04-11T08:57:43Z</time></trkpt><trkpt lat="44.07137779186279" lon="12.375019175779977"><ele>47.0</ele><time>2026-04-11T08:57:45Z</time></trkpt><trkpt lat="44.071284159664266" lon="12.37491966944746"><ele>47.0</ele><time>2026-04-11T08:57:47Z</time></trkpt><trkpt lat="44.07118448936824" lon="12.374822302418746"><ele>47.0</ele><time>2026-04-11T08:57:49Z</time></trkpt><trkpt lat="44.07108886200417" lon="12.374723696563851"><ele>47.0</ele><time>2026-04-11T08:57:51Z</time></trkpt><trkpt lat="44.070992442669876" lon="12.374623712244757"><ele>47.0</ele><time>2026-04-11T08:57:53Z</time></trkpt><trkpt lat="44.07089747482313" lon="12.37452273877097"><ele>47.25</ele><time>2026-04-11T08:57:55Z</time></trkpt><trkpt lat="44.07080266526586" lon="12.374427244715887"><ele>47.5</ele><time>2026-04-11T08:57:57Z</time></trkpt><trkpt lat="44.0707122347591" lon="12.374325915968097"><ele>47.75</ele><time>2026-04-11T08:57:59Z</time></trkpt><trkpt lat="44.070620792894594" lon="12.374231795394545"><ele>48.0</ele><time>2026-04-11T08:58:01Z</time></trkpt><trkpt lat="44.07052842410144" lon="12.37413712129748"><ele>48.0</ele><time>2026-04-11T08:58:03Z</time></trkpt><trkpt lat="44.070436526972024" lon="12.374038922413325"><ele>48.0</ele><time>2026-04-11T08:58:05Z</time></trkpt><trkpt lat="44.07034923217921" lon="12.373944669680794"><ele>48.0</ele><time>2026-04-11T08:58:07Z</time></trkpt><trkpt lat="44.070262541531356" lon="12.373850030606814"><ele>48.0</ele><time>2026-04-11T08:58:09Z</time></trkpt><trkpt lat="44.07017704686879" lon="12.373758892812976"><ele>48.0</ele><time>2026-04-11T08:58:11Z</time></trkpt><trkpt lat="44.070088288274185" lon="12.373670801774617"><ele>48.0</ele><time>2026-04-11T08:58:13Z</time></trkpt><trkpt lat="44.070002657443254" lon="12.373579376641798"><ele>48.0</ele><time>2026-04-11T08:58:15Z</time></trkpt><trkpt lat="44.0699134496682" lon="12.373483875191187"><ele>48.0</ele><time>2026-04-11T08:58:17Z</time></trkpt><trkpt lat="44.06982423971649" lon="12.373391151868672"><ele>48.0</ele><time>2026-04-11T08:58:19Z</time></trkpt><trkpt lat="44.069736541246776" lon="12.373295055809592"><ele>48.0</ele><time>2026-04-11T08:58:21Z</time></trkpt><trkpt lat="44.069648357468964" lon="12.37320457386554"><ele>48.2</ele><time>2026-04-11T08:58:23Z</time></trkpt><trkpt lat="44.06956079028781" lon="12.373121672977748"><ele>48.4</ele><time>2026-04-11T08:58:25Z</time></trkpt><trkpt lat="44.06947295045159" lon="12.373027823744934"><ele>48.6</ele><time>2026-04-11T08:58:27Z</time></trkpt><trkpt lat="44.069383262563186" lon="12.372930507410457"><ele>48.800000000000004</ele><time>2026-04-11T08:58:29Z</time></trkpt><trkpt lat="44.069292299139775" lon="12.372839898316256"><ele>49.0</ele><time>2026-04-11T08:58:31Z</time></trkpt><trkpt lat="44.069200861561654" lon="12.372739801274479"><ele>49.25</ele><time>2026-04-11T08:58:33Z</time></trkpt><trkpt lat="44.069104461151944" lon="12.372643458771309"><ele>49.5</ele><time>2026-04-11T08:58:35Z</time></trkpt><trkpt lat="44.06901041585732" lon="12.37254264610718"><ele>49.75</ele><time>2026-04-11T08:58:37Z</time></trkpt><trkpt lat="44.06891409172039" lon="12.3724412104561"><ele>50.0</ele><time>2026-04-11T08:58:39Z</time></trkpt><trkpt lat="44.06881887569981" lon="12.372339938252583"><ele>50.0</ele><time>2026-04-11T08:58:41Z</time></trkpt><trkpt lat="44.06872154467209" lon="12.372240460688712"><ele>50.0</ele><time>2026-04-11T08:58:43Z</time></trkpt><trkpt lat="44.068622986026156" lon="12.372137347849987"><ele>50.0</ele><time>2026-04-11T08:58:45Z</time></trkpt><trkpt lat="44.06852614184678" lon="12.372040131692607"><ele>50.0</ele><time>2026-04-11T08:58:47Z</time></trkpt><trkpt lat="44.06842878767326" lon="12.37194075209416"><ele>50.0</ele><time>2026-04-11T08:58:49Z</time></trkpt><trkpt lat="44.068330989823714" lon="12.371837020363149"><ele>50.0</ele><time>2026-04-11T08:58:51Z</time></trkpt><trkpt lat="44.06823391995965" lon="12.37173769897765"><ele>50.0</ele><time>2026-04-11T08:58:53Z</time></trkpt><trkpt lat="44.068134660746544" lon="12.371635092624256"><ele>50.0</ele><time>2026-04-11T08:58:55Z</time></trkpt><trkpt lat="44.068031523406816" lon="12.3715496497281"><ele>50.333333333333336</ele><time>2026-04-11T08:58:57Z</time></trkpt><trkpt lat="44.0679318014301" lon="12.371457844636796"><ele>50.66666666666667</ele><time>2026-04-11T08:58:59Z</time></trkpt><trkpt lat="44.067879746999076" lon="12.37140787921659"><ele>51.0</ele><time>2026-04-11T08:59:00Z</time></trkpt><trkpt lat="44.06777440021794" lon="12.371308927539554"><ele>51.33333333333333</ele><time>2026-04-11T08:59:02Z</time></trkpt><trkpt lat="44.06771881225356" lon="12.371266648334071"><ele>51.666666666666664</ele><time>2026-04-11T08:59:03Z</time></trkpt><trkpt lat="44.067664236333854" lon="12.371216334171404"><ele>52.0</ele><time>2026-04-11T08:59:04Z</time></trkpt><trkpt lat="44.06761036223306" lon="12.37115783537265"><ele>52.14285714285714</ele><time>2026-04-11T08:59:05Z</time></trkpt><trkpt lat="44.06755595120119" lon="12.371112706433639"><ele>52.28571428571429</ele><time>2026-04-11T08:59:06Z</time></trkpt><trkpt lat="44.067500865203264" lon="12.37106897330274"><ele>52.42857142857143</ele><time>2026-04-11T08:59:07Z</time></trkpt><trkpt lat="44.06744583513692" lon="12.37101892886207"><ele>52.57142857142857</ele><time>2026-04-11T08:59:08Z</time></trkpt><trkpt lat="44.06739129381484" lon="12.370970355949932"><ele>52.71428571428571</ele><time>2026-04-11T08:59:09Z</time></trkpt><trkpt lat="44.06733760562796" lon="12.370923841916184"><ele>52.85714285714286</ele><time>2026-04-11T08:59:10Z</time></trkpt><trkpt lat="44.067281970415195" lon="12.370875416276553"><ele>53.0</ele><time>2026-04-11T08:59:11Z</time></trkpt><trkpt lat="44.067227225989086" lon="12.370827431859704"><ele>53.42857142857143</ele><time>2026-04-11T08:59:12Z</time></trkpt><trkpt lat="44.06717171025628" lon="12.370783200159138"><ele>53.857142857142854</ele><time>2026-04-11T08:59:13Z</time></trkpt><trkpt lat="44.067116773810596" lon="12.37073944687785"><ele>54.285714285714285</ele><time>2026-04-11T08:59:14Z</time></trkpt><trkpt lat="44.06705977794887" lon="12.370694008445906"><ele>54.714285714285715</ele><time>2026-04-11T08:59:15Z</time></trkpt><trkpt lat="44.06699982723083" lon="12.370659046697114"><ele>55.14285714285714</ele><time>2026-04-11T08:59:16Z</time></trkpt><trkpt lat="44.06694072908007" lon="12.370624304007201"><ele>55.57142857142857</ele><time>2026-04-11T08:59:17Z</time></trkpt><trkpt lat="44.06688028534819" lon="12.370592425135138"><ele>56.0</ele><time>2026-04-11T08:59:18Z</time></trkpt><trkpt lat="44.06676719885734" lon="12.370544112749286"><ele>55.8</ele><time>2026-04-11T08:59:20Z</time></trkpt><trkpt lat="44.06669980486404" lon="12.370524471105249"><ele>55.599999999999994</ele><time>2026-04-11T08:59:21Z</time></trkpt><trkpt lat="44.0665778317032" lon="12.370488224992451"><ele>55.4</ele><time>2026-04-11T08:59:23Z</time></trkpt><trkpt lat="44.066514646737524" lon="12.370476666402611"><ele>55.2</ele><time>2026-04-11T08:59:24Z</time></trkpt><trkpt lat="44.066387915129184" lon="12.37044853270554"><ele>55.0</ele><time>2026-04-11T08:59:26Z</time></trkpt><trkpt lat="44.0662697887888" lon="12.37041067726629"><ele>55.49999999999999</ele><time>2026-04-11T08:59:28Z</time></trkpt><trkpt lat="44.0662085264651" lon="12.370383631468833"><ele>56.0</ele><time>2026-04-11T08:59:29Z</time></trkpt><trkpt lat="44.06614965163939" lon="12.370351487226873"><ele>56.5</ele><time>2026-04-11T08:59:30Z</time></trkpt><trkpt lat="44.06608829701203" lon="12.370308962304575"><ele>57.0</ele><time>2026-04-11T08:59:31Z</time></trkpt><trkpt lat="44.06597763267399" lon="12.370232664419682"><ele>57.49999999999999</ele><time>2026-04-11T08:59:33Z</time></trkpt><trkpt lat="44.06588498034373" lon="12.370140181613577"><ele>58.0</ele><time>2026-04-11T08:59:35Z</time></trkpt><trkpt lat="44.06582536809591" lon="12.370088898134423"><ele>58.83333333333333</ele><time>2026-04-11T08:59:36Z</time></trkpt><trkpt lat="44.06576225903505" lon="12.370050941475924"><ele>59.666666666666664</ele><time>2026-04-11T08:59:37Z</time></trkpt><trkpt lat="44.06570696367137" lon="12.370008645673765"><ele>60.5</ele><time>2026-04-11T08:59:38Z</time></trkpt><trkpt lat="44.06559836042804" lon="12.369916706562892"><ele>61.33333333333333</ele><time>2026-04-11T08:59:40Z</time></trkpt><trkpt lat="44.06553984322378" lon="12.369879194131974"><ele>62.166666666666664</ele><time>2026-04-11T08:59:41Z</time></trkpt><trkpt lat="44.0654836882178" lon="12.369837054652983"><ele>63.0</ele><time>2026-04-11T08:59:42Z</time></trkpt><trkpt lat="44.065425718613426" lon="12.369800304936867"><ele>63.0</ele><time>2026-04-11T08:59:43Z</time></trkpt><trkpt lat="44.065366383271545" lon="12.369762494190999"><ele>63.0</ele><time>2026-04-11T08:59:44Z</time></trkpt><trkpt lat="44.06530475567275" lon="12.369728839467236"><ele>63.0</ele><time>2026-04-11T08:59:45Z</time></trkpt><trkpt lat="44.065187441616104" lon="12.369657963149535"><ele>63.0</ele><time>2026-04-11T08:59:47Z</time></trkpt><trkpt lat="44.06512699669549" lon="12.369624156872865"><ele>63.0</ele><time>2026-04-11T08:59:48Z</time></trkpt><trkpt lat="44.06506422372351" lon="12.369591146762218"><ele>63.0</ele><time>2026-04-11T08:59:49Z</time></trkpt><trkpt lat="44.065003790528294" lon="12.369552851624317"><ele>62.57142857142857</ele><time>2026-04-11T08:59:50Z</time></trkpt><trkpt lat="44.06494158903581" lon="12.369520553893548"><ele>62.14285714285714</ele><time>2026-04-11T08:59:51Z</time></trkpt><trkpt lat="44.064882673533305" lon="12.369484910729087"><ele>61.714285714285715</ele><time>2026-04-11T08:59:52Z</time></trkpt><trkpt lat="44.064821626682736" lon="12.369450132684687"><ele>61.285714285714285</ele><time>2026-04-11T08:59:53Z</time></trkpt><trkpt lat="44.06476084216157" lon="12.369414109104362"><ele>60.857142857142854</ele><time>2026-04-11T08:59:54Z</time></trkpt><trkpt lat="44.06470246434789" lon="12.369380261462695"><ele>60.42857142857143</ele><time>2026-04-11T08:59:55Z</time></trkpt><trkpt lat="44.064641890351695" lon="12.369347812543765"><ele>60.0</ele><time>2026-04-11T08:59:56Z</time></trkpt><trkpt lat="44.064582340459815" lon="12.369317732083294"><ele>60.0</ele><time>2026-04-11T08:59:57Z</time></trkpt><trkpt lat="44.064521977392054" lon="12.36928247393448"><ele>60.0</ele><time>2026-04-11T08:59:58Z</time></trkpt><trkpt lat="44.06440707583634" lon="12.369212426139201"><ele>60.0</ele><time>2026-04-11T09:00:00Z</time></trkpt><trkpt lat="44.06432968019461" lon="12.36916999775246"><ele>60.0</ele><time>2026-04-11T09:00:01Z</time></trkpt><trkpt lat="44.064234250888376" lon="12.369087815965303"><ele>60.0</ele><time>2026-04-11T09:00:03Z</time></trkpt><trkpt lat="44.064124798934124" lon="12.368993953441828"><ele>59.8</ele><time>2026-04-11T09:00:05Z</time></trkpt><trkpt lat="44.06407062681654" lon="12.368946524225167"><ele>59.6</ele><time>2026-04-11T09:00:06Z</time></trkpt><trkpt lat="44.06398912993196" lon="12.368905407397378"><ele>59.400000000000006</ele><time>2026-04-11T09:00:07Z</time></trkpt><trkpt lat="44.063905073043905" lon="12.368804118290253"><ele>59.2</ele><time>2026-04-11T09:00:09Z</time></trkpt><trkpt lat="44.06380021445118" lon="12.368709326663094"><ele>59.0</ele><time>2026-04-11T09:00:11Z</time></trkpt><trkpt lat="44.06371942667538" lon="12.36861487192595"><ele>59.00000000000001</ele><time>2026-04-11T09:00:13Z</time></trkpt><trkpt lat="44.063640080556425" lon="12.368582550618264"><ele>59.0</ele><time>2026-04-11T09:00:14Z</time></trkpt><trkpt lat="44.063576522424086" lon="12.368553548464245"><ele>59.0</ele><time>2026-04-11T09:00:15Z</time></trkpt><trkpt lat="44.063515562520436" lon="12.368523789501928"><ele>59.0</ele><time>2026-04-11T09:00:16Z</time></trkpt><trkpt lat="44.06339656337447" lon="12.368467836434492"><ele>59.00000000000001</ele><time>2026-04-11T09:00:18Z</time></trkpt><trkpt lat="44.063331308555576" lon="12.36844855106047"><ele>59.0</ele><time>2026-04-11T09:00:19Z</time></trkpt><trkpt lat="44.06326990458652" lon="12.368424205845509"><ele>59.333333333333336</ele><time>2026-04-11T09:00:20Z</time></trkpt><trkpt lat="44.06320577438637" lon="12.368403157478575"><ele>59.66666666666667</ele><time>2026-04-11T09:00:21Z</time></trkpt><trkpt lat="44.06313885721117" lon="12.368383033805227"><ele>60.0</ele><time>2026-04-11T09:00:22Z</time></trkpt><trkpt lat="44.06307437718106" lon="12.368362976023555"><ele>60.33333333333333</ele><time>2026-04-11T09:00:23Z</time></trkpt><trkpt lat="44.06294808971789" lon="12.368318979041838"><ele>60.666666666666664</ele><time>2026-04-11T09:00:25Z</time></trkpt><trkpt lat="44.06288289551274" lon="12.368303398730497"><ele>61.0</ele><time>2026-04-11T09:00:26Z</time></trkpt><trkpt lat="44.0628171764444" lon="12.368286692958467"><ele>60.99999999999999</ele><time>2026-04-11T09:00:27Z</time></trkpt><trkpt lat="44.062697244082756" lon="12.368250311588751"><ele>61.0</ele><time>2026-04-11T09:00:29Z</time></trkpt><trkpt lat="44.062635702082545" lon="12.3682250502927"><ele>61.0</ele><time>2026-04-11T09:00:30Z</time></trkpt><trkpt lat="44.0625174826035" lon="12.368213292154639"><ele>61.0</ele><time>2026-04-11T09:00:32Z</time></trkpt><trkpt lat="44.06246886906725" lon="12.368273399347489"><ele>60.99999999999999</ele><time>2026-04-11T09:00:33Z</time></trkpt><trkpt lat="44.062451094414016" lon="12.36835853494999"><ele>61.0</ele><time>2026-04-11T09:00:34Z</time></trkpt><trkpt lat="44.0624543951796" lon="12.36848570609468"><ele>61.33333333333333</ele><time>2026-04-11T09:00:36Z</time></trkpt><trkpt lat="44.0624460681648" lon="12.36861134318338"><ele>61.666666666666664</ele><time>2026-04-11T09:00:38Z</time></trkpt><trkpt lat="44.06244699999102" lon="12.368701266361306"><ele>62.0</ele><time>2026-04-11T09:00:39Z</time></trkpt><trkpt lat="44.06241500942756" lon="12.368796236256227"><ele>62.33333333333333</ele><time>2026-04-11T09:00:41Z</time></trkpt><trkpt lat="44.06240344103809" lon="12.368912694350826"><ele>62.666666666666664</ele><time>2026-04-11T09:00:43Z</time></trkpt><trkpt lat="44.06239206828975" lon="12.369021304801842"><ele>63.0</ele><time>2026-04-11T09:00:45Z</time></trkpt><trkpt lat="44.062381753449166" lon="12.3691300644797"><ele>64.33333333333333</ele><time>2026-04-11T09:00:47Z</time></trkpt><trkpt lat="44.06237117429428" lon="12.369228338716745"><ele>65.66666666666667</ele><time>2026-04-11T09:00:49Z</time></trkpt><trkpt lat="44.06235932014492" lon="12.369317188759332"><ele>67.0</ele><time>2026-04-11T09:00:51Z</time></trkpt><trkpt lat="44.0623420328809" lon="12.369437801350681"><ele>68.33333333333334</ele><time>2026-04-11T09:00:54Z</time></trkpt><trkpt lat="44.06232878630777" lon="12.369536839519327"><ele>69.66666666666667</ele><time>2026-04-11T09:00:57Z</time></trkpt><trkpt lat="44.06231702447977" lon="12.369637138018676"><ele>71.0</ele><time>2026-04-11T09:01:00Z</time></trkpt><trkpt lat="44.062303318911866" lon="12.369751231870781"><ele>72.83333333333334</ele><time>2026-04-11T09:01:03Z</time></trkpt><trkpt lat="44.062291280274344" lon="12.36986043320118"><ele>74.66666666666667</ele><time>2026-04-11T09:01:06Z</time></trkpt><trkpt lat="44.0622762455231" lon="12.369962145843898"><ele>76.5</ele><time>2026-04-11T09:01:09Z</time></trkpt><trkpt lat="44.06227345994339" lon="12.370068493996644"><ele>78.33333333333333</ele><time>2026-04-11T09:01:12Z</time></trkpt><trkpt lat="44.062292012034845" lon="12.370173769341054"><ele>80.16666666666666</ele><time>2026-04-11T09:01:15Z</time></trkpt><trkpt lat="44.062317323261176" lon="12.37028623170165"><ele>82.0</ele><time>2026-04-11T09:01:18Z</time></trkpt><trkpt lat="44.06233662223957" lon="12.370392220283549"><ele>82.0</ele><time>2026-04-11T09:01:21Z</time></trkpt><trkpt lat="44.0623542113905" lon="12.370518037820386"><ele>82.0</ele><time>2026-04-11T09:01:24Z</time></trkpt><trkpt lat="44.06237081294291" lon="12.370638417483137"><ele>82.0</ele><time>2026-04-11T09:01:27Z</time></trkpt><trkpt lat="44.062398137872165" lon="12.3707573822038"><ele>82.0</ele><time>2026-04-11T09:01:30Z</time></trkpt><trkpt lat="44.06240941133974" lon="12.370844108173616"><ele>82.0</ele><time>2026-04-11T09:01:32Z</time></trkpt><trkpt lat="44.06242991843269" lon="12.370969781613825"><ele>82.0</ele><time>2026-04-11T09:01:35Z</time></trkpt><trkpt lat="44.06244812288724" lon="12.371083855464667"><ele>81.5</ele><time>2026-04-11T09:01:38Z</time></trkpt><trkpt lat="44.062465215877864" lon="12.371201148183072"><ele>81.0</ele><time>2026-04-11T09:01:41Z</time></trkpt><trkpt lat="44.06248435210707" lon="12.371322794987314"><ele>80.5</ele><time>2026-04-11T09:01:44Z</time></trkpt><trkpt lat="44.062500392807976" lon="12.371435513911475"><ele>80.0</ele><time>2026-04-11T09:01:47Z</time></trkpt><trkpt lat="44.062520738515246" lon="12.371527823432888"><ele>79.5</ele><time>2026-04-11T09:01:50Z</time></trkpt><trkpt lat="44.06253816875621" lon="12.37163117265287"><ele>79.0</ele><time>2026-04-11T09:01:54Z</time></trkpt><trkpt lat="44.062554959314156" lon="12.371718176452571"><ele>80.14285714285715</ele><time>2026-04-11T09:01:57Z</time></trkpt><trkpt lat="44.062573124366914" lon="12.371827173063638"><ele>81.28571428571429</ele><time>2026-04-11T09:02:01Z</time></trkpt><trkpt lat="44.06258899717951" lon="12.371941002314985"><ele>82.42857142857143</ele><time>2026-04-11T09:02:06Z</time></trkpt><trkpt lat="44.06260753255914" lon="12.372032888257852"><ele>83.57142857142858</ele><time>2026-04-11T09:02:10Z</time></trkpt><trkpt lat="44.06262003035857" lon="12.372142456961017"><ele>84.71428571428572</ele><time>2026-04-11T09:02:15Z</time></trkpt><trkpt lat="44.06263447176769" lon="12.372233946147665"><ele>85.85714285714286</ele><time>2026-04-11T09:02:19Z</time></trkpt><trkpt lat="44.06265021341626" lon="12.372320070569693"><ele>87.0</ele><time>2026-04-11T09:02:23Z</time></trkpt><trkpt lat="44.06265792826874" lon="12.372422434069657"><ele>89.14285714285714</ele><time>2026-04-11T09:02:28Z</time></trkpt><trkpt lat="44.062671008593846" lon="12.37250944134249"><ele>91.28571428571429</ele><time>2026-04-11T09:02:32Z</time></trkpt><trkpt lat="44.06268911496863" lon="12.37259422380051"><ele>93.42857142857143</ele><time>2026-04-11T09:02:36Z</time></trkpt><trkpt lat="44.06269462342373" lon="12.372684949957417"><ele>95.57142857142857</ele><time>2026-04-11T09:02:40Z</time></trkpt><trkpt lat="44.062635547567695" lon="12.372747233781592"><ele>97.71428571428572</ele><time>2026-04-11T09:02:45Z</time></trkpt><trkpt lat="44.062570159135234" lon="12.372795935082884"><ele>99.85714285714286</ele><time>2026-04-11T09:02:50Z</time></trkpt><trkpt lat="44.06249804454745" lon="12.372877411828755"><ele>102.0</ele><time>2026-04-11T09:02:53Z</time></trkpt><trkpt lat="44.062434835454816" lon="12.372917980622539"><ele>103.57142857142857</ele><time>2026-04-11T09:02:56Z</time></trkpt><trkpt lat="44.06238695493861" lon="12.37297694313909"><ele>105.14285714285714</ele><time>2026-04-11T09:02:59Z</time></trkpt><trkpt lat="44.06232166614123" lon="12.373026478887413"><ele>106.71428571428572</ele><time>2026-04-11T09:03:02Z</time></trkpt><trkpt lat="44.06225691895613" lon="12.3730788976419"><ele>108.28571428571428</ele><time>2026-04-11T09:03:05Z</time></trkpt><trkpt lat="44.062195117701535" lon="12.37313319057936"><ele>109.85714285714285</ele><time>2026-04-11T09:03:08Z</time></trkpt><trkpt lat="44.06212536461148" lon="12.37318237420556"><ele>111.42857142857143</ele><time>2026-04-11T09:03:11Z</time></trkpt><trkpt lat="44.062051771027235" lon="12.373222580978519"><ele>113.0</ele><time>2026-04-11T09:03:14Z</time></trkpt><trkpt lat="44.06197465232562" lon="12.373200794995123"><ele>112.99999999999999</ele><time>2026-04-11T09:03:18Z</time></trkpt><trkpt lat="44.061897737867575" lon="12.373159955283468"><ele>113.0</ele><time>2026-04-11T09:03:22Z</time></trkpt><trkpt lat="44.06181656059633" lon="12.373100484355636"><ele>113.0</ele><time>2026-04-11T09:03:24Z</time></trkpt><trkpt lat="44.061778156073174" lon="12.373028896995567"><ele>113.0</ele><time>2026-04-11T09:03:28Z</time></trkpt><trkpt lat="44.06174018642688" lon="12.37295212016302"><ele>112.99999999999999</ele><time>2026-04-11T09:03:31Z</time></trkpt><trkpt lat="44.061688399384984" lon="12.37286959949497"><ele>113.0</ele><time>2026-04-11T09:03:35Z</time></trkpt><trkpt lat="44.06164433989997" lon="12.372779336931227"><ele>116.16666666666666</ele><time>2026-04-11T09:03:39Z</time></trkpt><trkpt lat="44.0615846919446" lon="12.372703884168986"><ele>119.33333333333333</ele><time>2026-04-11T09:03:43Z</time></trkpt><trkpt lat="44.06153884529063" lon="12.372623425829763"><ele>122.5</ele><time>2026-04-11T09:03:47Z</time></trkpt><trkpt lat="44.06147747929538" lon="12.372541871861351"><ele>125.66666666666666</ele><time>2026-04-11T09:03:52Z</time></trkpt><trkpt lat="44.061418573130815" lon="12.372506447867938"><ele>128.83333333333334</ele><time>2026-04-11T09:03:55Z</time></trkpt><trkpt lat="44.06135787024752" lon="12.372431914551607"><ele>132.0</ele><time>2026-04-11T09:03:59Z</time></trkpt><trkpt lat="44.061307524969386" lon="12.372364064582344"><ele>132.0</ele><time>2026-04-11T09:04:03Z</time></trkpt><trkpt lat="44.06124671953728" lon="12.372319103138913"><ele>132.0</ele><time>2026-04-11T09:04:07Z</time></trkpt><trkpt lat="44.06118975565886" lon="12.372260273863198"><ele>132.0</ele><time>2026-04-11T09:04:12Z</time></trkpt><trkpt lat="44.06114193958244" lon="12.372199574878298"><ele>132.0</ele><time>2026-04-11T09:04:16Z</time></trkpt><trkpt lat="44.06109424170563" lon="12.372112509508213"><ele>132.0</ele><time>2026-04-11T09:04:21Z</time></trkpt><trkpt lat="44.061053114045684" lon="12.37201680303288"><ele>132.0</ele><time>2026-04-11T09:04:25Z</time></trkpt><trkpt lat="44.06100990806725" lon="12.37194403690006"><ele>132.0</ele><time>2026-04-11T09:04:28Z</time></trkpt><trkpt lat="44.06095834497996" lon="12.371869479023141"><ele>132.42857142857142</ele><time>2026-04-11T09:04:31Z</time></trkpt><trkpt lat="44.060921967104406" lon="12.37179620649528"><ele>132.85714285714286</ele><time>2026-04-11T09:04:34Z</time></trkpt><trkpt lat="44.06086816969259" lon="12.371733508788836"><ele>133.28571428571428</ele><time>2026-04-11T09:04:37Z</time></trkpt><trkpt lat="44.060824725042764" lon="12.371665496239437"><ele>133.71428571428572</ele><time>2026-04-11T09:04:40Z</time></trkpt><trkpt lat="44.06077526479219" lon="12.37159242983865"><ele>134.14285714285714</ele><time>2026-04-11T09:04:44Z</time></trkpt><trkpt lat="44.0607216316108" lon="12.371516635457063"><ele>134.57142857142856</ele><time>2026-04-11T09:04:47Z</time></trkpt><trkpt lat="44.06067343766462" lon="12.37145765719789"><ele>135.0</ele><time>2026-04-11T09:04:50Z</time></trkpt><trkpt lat="44.060616854804174" lon="12.371388168239644"><ele>135.16666666666666</ele><time>2026-04-11T09:04:53Z</time></trkpt><trkpt lat="44.06055665795805" lon="12.371323578293579"><ele>135.33333333333334</ele><time>2026-04-11T09:04:56Z</time></trkpt><trkpt lat="44.060495001678255" lon="12.371235655961371"><ele>135.5</ele><time>2026-04-11T09:04:59Z</time></trkpt><trkpt lat="44.06045376647843" lon="12.371155466066943"><ele>135.66666666666669</ele><time>2026-04-11T09:05:01Z</time></trkpt><trkpt lat="44.060333623847505" lon="12.371075696870976"><ele>135.83333333333334</ele><time>2026-04-11T09:05:03Z</time></trkpt><trkpt lat="44.060273368993094" lon="12.371026794562791"><ele>136.0</ele><time>2026-04-11T09:05:04Z</time></trkpt><trkpt lat="44.06022901751595" lon="12.370962908131874"><ele>136.0</ele><time>2026-04-11T09:05:07Z</time></trkpt><trkpt lat="44.06014066571553" lon="12.370919169551202"><ele>136.0</ele><time>2026-04-11T09:05:10Z</time></trkpt><trkpt lat="44.06006456665765" lon="12.37091128410303"><ele>136.0</ele><time>2026-04-11T09:05:13Z</time></trkpt><trkpt lat="44.05997866603974" lon="12.370882655324683"><ele>136.0</ele><time>2026-04-11T09:05:16Z</time></trkpt><trkpt lat="44.05988436778628" lon="12.370869642059318"><ele>136.0</ele><time>2026-04-11T09:05:19Z</time></trkpt><trkpt lat="44.059812308061865" lon="12.370853211006878"><ele>136.0</ele><time>2026-04-11T09:05:21Z</time></trkpt><trkpt lat="44.05972550335988" lon="12.370838015015671"><ele>134.6</ele><time>2026-04-11T09:05:23Z</time></trkpt><trkpt lat="44.059642190861126" lon="12.370767003635947"><ele>133.2</ele><time>2026-04-11T09:05:25Z</time></trkpt><trkpt lat="44.059569291593455" lon="12.370674376886795"><ele>131.8</ele><time>2026-04-11T09:05:27Z</time></trkpt><trkpt lat="44.05945920890927" lon="12.370578421012047"><ele>130.4</ele><time>2026-04-11T09:05:29Z</time></trkpt><trkpt lat="44.05940159284889" lon="12.370518567881973"><ele>129.0</ele><time>2026-04-11T09:05:30Z</time></trkpt><trkpt lat="44.05933095031613" lon="12.37045765873292"><ele>127.66666666666667</ele><time>2026-04-11T09:05:31Z</time></trkpt><trkpt lat="44.05925701841117" lon="12.370416636882371"><ele>126.33333333333334</ele><time>2026-04-11T09:05:32Z</time></trkpt><trkpt lat="44.059172221315805" lon="12.370389534689338"><ele>125.0</ele><time>2026-04-11T09:05:33Z</time></trkpt><trkpt lat="44.059089484154256" lon="12.370393631164232"><ele>123.66666666666667</ele><time>2026-04-11T09:05:34Z</time></trkpt><trkpt lat="44.059018226476475" lon="12.370403678081596"><ele>122.33333333333334</ele><time>2026-04-11T09:05:35Z</time></trkpt><trkpt lat="44.05891784694426" lon="12.370407478150195"><ele>121.0</ele><time>2026-04-11T09:05:37Z</time></trkpt><trkpt lat="44.0588312741035" lon="12.370399473540683"><ele>118.83333333333334</ele><time>2026-04-11T09:05:39Z</time></trkpt><trkpt lat="44.05874637671948" lon="12.370307452002598"><ele>116.66666666666667</ele><time>2026-04-11T09:05:41Z</time></trkpt><trkpt lat="44.058724327674646" lon="12.370214975323082"><ele>114.5</ele><time>2026-04-11T09:05:42Z</time></trkpt><trkpt lat="44.05869770953071" lon="12.37010947791055"><ele>112.33333333333334</ele><time>2026-04-11T09:05:43Z</time></trkpt><trkpt lat="44.058673280562445" lon="12.369991359558059"><ele>110.16666666666667</ele><time>2026-04-11T09:05:44Z</time></trkpt><trkpt lat="44.05865433126116" lon="12.36988583449994"><ele>108.0</ele><time>2026-04-11T09:05:45Z</time></trkpt><trkpt lat="44.05864269513491" lon="12.369797600904082"><ele>107.60000000000001</ele><time>2026-04-11T09:05:46Z</time></trkpt><trkpt lat="44.05860733786132" lon="12.36964703039327"><ele>107.20000000000002</ele><time>2026-04-11T09:05:48Z</time></trkpt><trkpt lat="44.05856123288608" lon="12.369522478712748"><ele>106.8</ele><time>2026-04-11T09:05:50Z</time></trkpt><trkpt lat="44.05850103979245" lon="12.369425479278224"><ele>106.4</ele><time>2026-04-11T09:05:52Z</time></trkpt><trkpt lat="44.05842431274768" lon="12.369316581825672"><ele>106.0</ele><time>2026-04-11T09:05:55Z</time></trkpt><trkpt lat="44.058376332217165" lon="12.369206546058539"><ele>106.00000000000001</ele><time>2026-04-11T09:05:58Z</time></trkpt><trkpt lat="44.058327062082476" lon="12.369116833279985"><ele>106.0</ele><time>2026-04-11T09:06:00Z</time></trkpt><trkpt lat="44.058283850504466" lon="12.369023122562576"><ele>106.0</ele><time>2026-04-11T09:06:02Z</time></trkpt><trkpt lat="44.058237926454055" lon="12.36893568184857"><ele>106.0</ele><time>2026-04-11T09:06:04Z</time></trkpt><trkpt lat="44.0581903521446" lon="12.36885876978346"><ele>106.00000000000001</ele><time>2026-04-11T09:06:06Z</time></trkpt><trkpt lat="44.058139050787815" lon="12.368764250931514"><ele>106.0</ele><time>2026-04-11T09:06:09Z</time></trkpt><trkpt lat="44.05807880276676" lon="12.368693704267374"><ele>102.33333333333334</ele><time>2026-04-11T09:06:12Z</time></trkpt><trkpt lat="44.05805297840784" lon="12.368588395985535"><ele>98.66666666666667</ele><time>2026-04-11T09:06:15Z</time></trkpt><trkpt lat="44.058011965781894" lon="12.368496695474539"><ele>95.0</ele><time>2026-04-11T09:06:18Z</time></trkpt><trkpt lat="44.057965654079155" lon="12.36840296631312"><ele>91.33333333333334</ele><time>2026-04-11T09:06:22Z</time></trkpt><trkpt lat="44.05794797866319" lon="12.368288529545083"><ele>87.66666666666667</ele><time>2026-04-11T09:06:25Z</time></trkpt><trkpt lat="44.05793664458924" lon="12.368181908387731"><ele>84.0</ele><time>2026-04-11T09:06:33Z</time></trkpt><trkpt lat="44.057910530044616" lon="12.368098643388889"><ele>82.85714285714286</ele><time>2026-04-11T09:06:39Z</time></trkpt><trkpt lat="44.05788268035589" lon="12.368013650877513"><ele>81.71428571428572</ele><time>2026-04-11T09:06:43Z</time></trkpt><trkpt lat="44.05783295720042" lon="12.367945709102594"><ele>80.57142857142857</ele><time>2026-04-11T09:06:46Z</time></trkpt><trkpt lat="44.057779974944914" lon="12.36787335816129"><ele>79.42857142857143</ele><time>2026-04-11T09:06:49Z</time></trkpt><trkpt lat="44.05772126628" lon="12.36777397393509"><ele>78.28571428571429</ele><time>2026-04-11T09:06:54Z</time></trkpt><trkpt lat="44.05767765289304" lon="12.36770554642329"><ele>77.14285714285714</ele><time>2026-04-11T09:06:59Z</time></trkpt><trkpt lat="44.057634453329506" lon="12.367636615234167"><ele>76.0</ele><time>2026-04-11T09:07:01Z</time></trkpt><trkpt lat="44.05756358724656" lon="12.367556627493485"><ele>76.0</ele><time>2026-04-11T09:07:03Z</time></trkpt><trkpt lat="44.05750754598084" lon="12.367500881884954"><ele>76.0</ele><time>2026-04-11T09:07:05Z</time></trkpt><trkpt lat="44.057430981826094" lon="12.367474103923872"><ele>76.0</ele><time>2026-04-11T09:07:07Z</time></trkpt><trkpt lat="44.05735967459589" lon="12.367467611413794"><ele>76.0</ele><time>2026-04-11T09:07:09Z</time></trkpt><trkpt lat="44.05726239146057" lon="12.367449901325582"><ele>76.0</ele><time>2026-04-11T09:07:12Z</time></trkpt><trkpt lat="44.057197289179726" lon="12.367420774725511"><ele>76.0</ele><time>2026-04-11T09:07:14Z</time></trkpt><trkpt lat="44.057115042402636" lon="12.36741391407077"><ele>75.16666666666666</ele><time>2026-04-11T09:07:16Z</time></trkpt><trkpt lat="44.057052515259976" lon="12.367402054984426"><ele>74.33333333333333</ele><time>2026-04-11T09:07:18Z</time></trkpt><trkpt lat="44.056979400225096" lon="12.367391378291067"><ele>73.5</ele><time>2026-04-11T09:07:21Z</time></trkpt><trkpt lat="44.0568998910272" lon="12.367381751381657"><ele>72.66666666666667</ele><time>2026-04-11T09:07:28Z</time></trkpt><trkpt lat="44.05682078554162" lon="12.36738255007072"><ele>71.83333333333334</ele><time>2026-04-11T09:07:29Z</time></trkpt><trkpt lat="44.056750433520726" lon="12.367395525584095"><ele>71.0</ele><time>2026-04-11T09:07:31Z</time></trkpt><trkpt lat="44.056644123955735" lon="12.367382674970697"><ele>71.5</ele><time>2026-04-11T09:07:33Z</time></trkpt><trkpt lat="44.05654293649138" lon="12.367406370408235"><ele>72.0</ele><time>2026-04-11T09:07:35Z</time></trkpt><trkpt lat="44.05644372542306" lon="12.367438333340402"><ele>72.5</ele><time>2026-04-11T09:07:37Z</time></trkpt><trkpt lat="44.05637279368841" lon="12.367463269430193"><ele>73.0</ele><time>2026-04-11T09:07:38Z</time></trkpt><trkpt lat="44.056295016748926" lon="12.367485920755595"><ele>73.5</ele><time>2026-04-11T09:07:40Z</time></trkpt><trkpt lat="44.05620754108407" lon="12.36750625265268"><ele>74.0</ele><time>2026-04-11T09:07:42Z</time></trkpt><trkpt lat="44.056125427550654" lon="12.367532136382684"><ele>74.0</ele><time>2026-04-11T09:07:44Z</time></trkpt><trkpt lat="44.05605671086678" lon="12.367553230459983"><ele>74.0</ele><time>2026-04-11T09:07:46Z</time></trkpt><trkpt lat="44.05599680522242" lon="12.36758614709589"><ele>74.0</ele><time>2026-04-11T09:07:48Z</time></trkpt><trkpt lat="44.05591850604114" lon="12.36763860730724"><ele>74.0</ele><time>2026-04-11T09:07:51Z</time></trkpt><trkpt lat="44.05584972973729" lon="12.367707190814738"><ele>74.0</ele><time>2026-04-11T09:07:54Z</time></trkpt><trkpt lat="44.055790408244775" lon="12.367776875385124"><ele>74.0</ele><time>2026-04-11T09:07:57Z</time></trkpt><trkpt lat="44.05573007811701" lon="12.367844831820156"><ele>75.57142857142857</ele><time>2026-04-11T09:08:00Z</time></trkpt><trkpt lat="44.05567150707256" lon="12.36790644096272"><ele>77.14285714285714</ele><time>2026-04-11T09:08:03Z</time></trkpt><trkpt lat="44.0556221355376" lon="12.367965891521278"><ele>78.71428571428572</ele><time>2026-04-11T09:08:06Z</time></trkpt><trkpt lat="44.05556750124915" lon="12.368025079446017"><ele>80.28571428571428</ele><time>2026-04-11T09:08:09Z</time></trkpt><trkpt lat="44.055509462436774" lon="12.36808682774363"><ele>81.85714285714285</ele><time>2026-04-11T09:08:12Z</time></trkpt><trkpt lat="44.055452257979645" lon="12.368145793547225"><ele>83.42857142857143</ele><time>2026-04-11T09:08:15Z</time></trkpt><trkpt lat="44.05540207234537" lon="12.368199931059497"><ele>85.0</ele><time>2026-04-11T09:08:18Z</time></trkpt><trkpt lat="44.05535056946358" lon="12.36825158563314"><ele>85.0</ele><time>2026-04-11T09:08:21Z</time></trkpt><trkpt lat="44.05529155609613" lon="12.368312726328337"><ele>85.0</ele><time>2026-04-11T09:08:25Z</time></trkpt><trkpt lat="44.05522596030929" lon="12.368356927838436"><ele>85.0</ele><time>2026-04-11T09:08:29Z</time></trkpt><trkpt lat="44.05517326982191" lon="12.368416715683715"><ele>85.0</ele><time>2026-04-11T09:08:33Z</time></trkpt><trkpt lat="44.0551167942059" lon="12.368498998587956"><ele>85.0</ele><time>2026-04-11T09:08:37Z</time></trkpt><trkpt lat="44.055074497798046" lon="12.3685981972524"><ele>85.0</ele><time>2026-04-11T09:08:41Z</time></trkpt><trkpt lat="44.055038476114916" lon="12.368701781594282"><ele>85.0</ele><time>2026-04-11T09:08:45Z</time></trkpt><trkpt lat="44.05500084269935" lon="12.368780784396728"><ele>85.0</ele><time>2026-04-11T09:08:48Z</time></trkpt><trkpt lat="44.054971430730724" lon="12.368875567050715"><ele>85.0</ele><time>2026-04-11T09:08:52Z</time></trkpt><trkpt lat="44.05498539992014" lon="12.368983194799668"><ele>85.0</ele><time>2026-04-11T09:08:56Z</time></trkpt><trkpt lat="44.05504278657966" lon="12.369060941365486"><ele>85.0</ele><time>2026-04-11T09:09:00Z</time></trkpt><trkpt lat="44.05509406426441" lon="12.369144383919929"><ele>85.0</ele><time>2026-04-11T09:09:04Z</time></trkpt><trkpt lat="44.05512741086384" lon="12.36922767566551"><ele>85.0</ele><time>2026-04-11T09:09:08Z</time></trkpt><trkpt lat="44.055160531098785" lon="12.369313838777778"><ele>85.42857142857143</ele><time>2026-04-11T09:09:12Z</time></trkpt><trkpt lat="44.055193716723046" lon="12.369388319455215"><ele>85.85714285714285</ele><time>2026-04-11T09:09:16Z</time></trkpt><trkpt lat="44.055221152780554" lon="12.369477350491454"><ele>86.28571428571428</ele><time>2026-04-11T09:09:20Z</time></trkpt><trkpt lat="44.05521065281681" lon="12.369574633000049"><ele>86.71428571428572</ele><time>2026-04-11T09:09:24Z</time></trkpt><trkpt lat="44.055168942811086" lon="12.369657767038115"><ele>87.14285714285714</ele><time>2026-04-11T09:09:28Z</time></trkpt><trkpt lat="44.055123561165" lon="12.369721181609794"><ele>87.57142857142857</ele><time>2026-04-11T09:09:32Z</time></trkpt><trkpt lat="44.05506669949324" lon="12.369801429023186"><ele>88.0</ele><time>2026-04-11T09:09:37Z</time></trkpt><trkpt lat="44.05501798100456" lon="12.369866908487797"><ele>89.85714285714286</ele><time>2026-04-11T09:09:41Z</time></trkpt><trkpt lat="44.05496768311067" lon="12.369942390892929"><ele>91.71428571428571</ele><time>2026-04-11T09:09:45Z</time></trkpt><trkpt lat="44.05492455651901" lon="12.37000669569782"><ele>93.57142857142857</ele><time>2026-04-11T09:09:49Z</time></trkpt><trkpt lat="44.05488366204366" lon="12.370074673646842"><ele>95.42857142857143</ele><time>2026-04-11T09:09:53Z</time></trkpt><trkpt lat="44.05483683826654" lon="12.370137655460477"><ele>97.28571428571428</ele><time>2026-04-11T09:09:57Z</time></trkpt><trkpt lat="44.054796932662725" lon="12.370217725089068"><ele>99.14285714285714</ele><time>2026-04-11T09:10:02Z</time></trkpt><trkpt lat="44.05476007952479" lon="12.370305102389933"><ele>101.0</ele><time>2026-04-11T09:10:07Z</time></trkpt><trkpt lat="44.05472572417731" lon="12.37040292832328"><ele>102.28571428571428</ele><time>2026-04-11T09:10:31Z</time></trkpt><trkpt lat="44.054702310979835" lon="12.37048518427505"><ele>103.57142857142857</ele><time>2026-04-11T09:10:35Z</time></trkpt><trkpt lat="44.054676654552665" lon="12.370572069393202"><ele>104.85714285714286</ele><time>2026-04-11T09:10:41Z</time></trkpt><trkpt lat="44.05464232590273" lon="12.370662268588063"><ele>106.14285714285714</ele><time>2026-04-11T09:10:46Z</time></trkpt><trkpt lat="44.054613806554215" lon="12.37074932400218"><ele>107.42857142857143</ele><time>2026-04-11T09:10:51Z</time></trkpt><trkpt lat="44.054580102110904" lon="12.370828063638445"><ele>108.71428571428571</ele><time>2026-04-11T09:10:55Z</time></trkpt><trkpt lat="44.05454859304396" lon="12.370904622711677"><ele>110.0</ele><time>2026-04-11T09:10:59Z</time></trkpt><trkpt lat="44.05453806290905" lon="12.370993452480533"><ele>110.85714285714285</ele><time>2026-04-11T09:11:04Z</time></trkpt><trkpt lat="44.05452109570762" lon="12.371100456249652"><ele>111.71428571428572</ele><time>2026-04-11T09:11:09Z</time></trkpt><trkpt lat="44.054520728133774" lon="12.371211381613346"><ele>112.57142857142858</ele><time>2026-04-11T09:11:13Z</time></trkpt><trkpt lat="44.05451896217246" lon="12.371301191402914"><ele>113.42857142857143</ele><time>2026-04-11T09:11:16Z</time></trkpt><trkpt lat="44.05453120069848" lon="12.371389834748237"><ele>114.28571428571429</ele><time>2026-04-11T09:11:19Z</time></trkpt><trkpt lat="44.05453250119987" lon="12.371508236679968"><ele>115.14285714285715</ele><time>2026-04-11T09:11:23Z</time></trkpt><trkpt lat="44.05453787897141" lon="12.371599976107678"><ele>116.00000000000001</ele><time>2026-04-11T09:11:26Z</time></trkpt><trkpt lat="44.05454640537658" lon="12.371717459950364"><ele>116.66666666666666</ele><time>2026-04-11T09:11:30Z</time></trkpt><trkpt lat="44.05455542149009" lon="12.371808844060599"><ele>117.33333333333333</ele><time>2026-04-11T09:11:33Z</time></trkpt><trkpt lat="44.054574748413586" lon="12.37192041762762"><ele>118.0</ele><time>2026-04-11T09:11:36Z</time></trkpt><trkpt lat="44.05457135194285" lon="12.37202379431636"><ele>118.66666666666666</ele><time>2026-04-11T09:11:38Z</time></trkpt><trkpt lat="44.05456850768892" lon="12.37212454281955"><ele>119.33333333333333</ele><time>2026-04-11T09:11:40Z</time></trkpt><trkpt lat="44.05456188478637" lon="12.372247716886637"><ele>120.0</ele><time>2026-04-11T09:11:43Z</time></trkpt><trkpt lat="44.05456523219192" lon="12.3723542140068"><ele>121.0</ele><time>2026-04-11T09:11:46Z</time></trkpt><trkpt lat="44.054562538946534" lon="12.372462596529365"><ele>122.0</ele><time>2026-04-11T09:11:49Z</time></trkpt><trkpt lat="44.05456086738937" lon="12.372569144636575"><ele>123.0</ele><time>2026-04-11T09:11:52Z</time></trkpt><trkpt lat="44.05455766057721" lon="12.372676345937967"><ele>124.0</ele><time>2026-04-11T09:11:55Z</time></trkpt><trkpt lat="44.0545445136949" lon="12.372774638372583"><ele>125.0</ele><time>2026-04-11T09:11:58Z</time></trkpt><trkpt lat="44.05453978118773" lon="12.372877245598355"><ele>126.0</ele><time>2026-04-11T09:12:02Z</time></trkpt><trkpt lat="44.054528962761495" lon="12.372973711597709"><ele>127.0</ele><time>2026-04-11T09:12:07Z</time></trkpt><trkpt lat="44.05452929499732" lon="12.373078937509149"><ele>128.71428571428572</ele><time>2026-04-11T09:12:12Z</time></trkpt><trkpt lat="44.05453772560092" lon="12.373183816983337"><ele>130.42857142857142</ele><time>2026-04-11T09:12:17Z</time></trkpt><trkpt lat="44.05454659334571" lon="12.37327406801318"><ele>132.14285714285714</ele><time>2026-04-11T09:12:22Z</time></trkpt><trkpt lat="44.05456346935724" lon="12.373375538768675"><ele>133.85714285714286</ele><time>2026-04-11T09:12:27Z</time></trkpt><trkpt lat="44.0545906319172" lon="12.373458483131026"><ele>135.57142857142858</ele><time>2026-04-11T09:12:32Z</time></trkpt><trkpt lat="44.054591717301626" lon="12.373550266064482"><ele>137.28571428571428</ele><time>2026-04-11T09:12:37Z</time></trkpt><trkpt lat="44.054609762642876" lon="12.373640340704508"><ele>139.0</ele><time>2026-04-11T09:13:29Z</time></trkpt><trkpt lat="44.0546202706761" lon="12.373738454621977"><ele>139.0</ele><time>2026-04-11T09:13:33Z</time></trkpt><trkpt lat="44.0546441744924" lon="12.373820454106633"><ele>139.0</ele><time>2026-04-11T09:13:40Z</time></trkpt><trkpt lat="44.05464812168744" lon="12.373910261983283"><ele>139.0</ele><time>2026-04-11T09:13:48Z</time></trkpt><trkpt lat="44.05468021321766" lon="12.373991822116114"><ele>139.0</ele><time>2026-04-11T09:13:54Z</time></trkpt><trkpt lat="44.0546982974056" lon="12.374078368328279"><ele>139.0</ele><time>2026-04-11T09:14:00Z</time></trkpt><trkpt lat="44.054700745998154" lon="12.374176105741851"><ele>139.0</ele><time>2026-04-11T09:14:07Z</time></trkpt><trkpt lat="44.05473226183979" lon="12.374261968660983"><ele>139.0</ele><time>2026-04-11T09:14:14Z</time></trkpt><trkpt lat="44.054759135890656" lon="12.37434319598907"><ele>138.28571428571428</ele><time>2026-04-11T09:14:40Z</time></trkpt><trkpt lat="44.05479964317308" lon="12.374421625672364"><ele>137.57142857142858</ele><time>2026-04-11T09:14:45Z</time></trkpt><trkpt lat="44.05485582709126" lon="12.374499088159087"><ele>136.85714285714286</ele><time>2026-04-11T09:14:50Z</time></trkpt><trkpt lat="44.05490392972318" lon="12.374568106095726"><ele>136.14285714285714</ele><time>2026-04-11T09:14:54Z</time></trkpt><trkpt lat="44.054967142304356" lon="12.374611210433677"><ele>135.42857142857142</ele><time>2026-04-11T09:14:58Z</time></trkpt><trkpt lat="44.05502918943091" lon="12.374670195370406"><ele>134.71428571428572</ele><time>2026-04-11T09:15:03Z</time></trkpt><trkpt lat="44.05508417492119" lon="12.37473675601363"><ele>134.0</ele><time>2026-04-11T09:15:08Z</time></trkpt><trkpt lat="44.05513805753243" lon="12.374793345737164"><ele>135.85714285714286</ele><time>2026-04-11T09:15:13Z</time></trkpt><trkpt lat="44.05518494703379" lon="12.374857708955483"><ele>137.71428571428572</ele><time>2026-04-11T09:15:16Z</time></trkpt><trkpt lat="44.05522145012801" lon="12.37493667902587"><ele>139.57142857142856</ele><time>2026-04-11T09:15:21Z</time></trkpt><trkpt lat="44.0552493858999" lon="12.3750210429212"><ele>141.42857142857144</ele><time>2026-04-11T09:15:27Z</time></trkpt><trkpt lat="44.055253983600714" lon="12.375130280769715"><ele>143.28571428571428</ele><time>2026-04-11T09:15:30Z</time></trkpt><trkpt lat="44.05523339279401" lon="12.375219805240029"><ele>145.14285714285714</ele><time>2026-04-11T09:15:36Z</time></trkpt><trkpt lat="44.055201504323804" lon="12.37530093705553"><ele>147.0</ele><time>2026-04-11T09:15:40Z</time></trkpt><trkpt lat="44.05516335577576" lon="12.375389741958582"><ele>147.0</ele><time>2026-04-11T09:15:45Z</time></trkpt><trkpt lat="44.05510261326448" lon="12.375496045136412"><ele>147.0</ele><time>2026-04-11T09:15:49Z</time></trkpt><trkpt lat="44.05510111219306" lon="12.375600655500767"><ele>147.0</ele><time>2026-04-11T09:15:54Z</time></trkpt><trkpt lat="44.055083925718414" lon="12.37569616033496"><ele>147.0</ele><time>2026-04-11T09:15:59Z</time></trkpt><trkpt lat="44.0550600983911" lon="12.375792790865999"><ele>147.0</ele><time>2026-04-11T09:16:04Z</time></trkpt><trkpt lat="44.05500653286425" lon="12.375861158931839"><ele>147.0</ele><time>2026-04-11T09:16:08Z</time></trkpt><trkpt lat="44.05494192710732" lon="12.37583023191296"><ele>147.57142857142858</ele><time>2026-04-11T09:16:12Z</time></trkpt><trkpt lat="44.05487429027209" lon="12.375788814054253"><ele>148.14285714285714</ele><time>2026-04-11T09:16:16Z</time></trkpt><trkpt lat="44.054812728134785" lon="12.37573772787018"><ele>148.71428571428572</ele><time>2026-04-11T09:16:20Z</time></trkpt><trkpt lat="44.05475795694248" lon="12.37568880386609"><ele>149.28571428571428</ele><time>2026-04-11T09:16:24Z</time></trkpt><trkpt lat="44.05469503956465" lon="12.375629566362562"><ele>149.85714285714286</ele><time>2026-04-11T09:16:28Z</time></trkpt><trkpt lat="44.05463290827452" lon="12.375571788703889"><ele>150.42857142857144</ele><time>2026-04-11T09:16:32Z</time></trkpt><trkpt lat="44.05457471445975" lon="12.375532166599992"><ele>151.0</ele><time>2026-04-11T09:16:35Z</time></trkpt><trkpt lat="44.05451358211035" lon="12.375459363934544"><ele>151.2857142857143</ele><time>2026-04-11T09:16:39Z</time></trkpt><trkpt lat="44.05445735381853" lon="12.375414263932562"><ele>151.57142857142858</ele><time>2026-04-11T09:16:42Z</time></trkpt><trkpt lat="44.05438741520825" lon="12.37537427928502"><ele>151.85714285714286</ele><time>2026-04-11T09:16:45Z</time></trkpt><trkpt lat="44.054326503624836" lon="12.375314780812275"><ele>152.14285714285717</ele><time>2026-04-11T09:16:48Z</time></trkpt><trkpt lat="44.05425941106555" lon="12.375252540719295"><ele>152.42857142857144</ele><time>2026-04-11T09:16:51Z</time></trkpt><trkpt lat="44.05418305746728" lon="12.375188042716964"><ele>152.71428571428572</ele><time>2026-04-11T09:16:54Z</time></trkpt><trkpt lat="44.0541277547649" lon="12.37514214122134"><ele>153.0</ele><time>2026-04-11T09:16:56Z</time></trkpt><trkpt lat="44.054052067521994" lon="12.375081662013688"><ele>153.0</ele><time>2026-04-11T09:16:59Z</time></trkpt><trkpt lat="44.05397548178711" lon="12.375005865520073"><ele>153.0</ele><time>2026-04-11T09:17:02Z</time></trkpt><trkpt lat="44.0539156857149" lon="12.37496723014931"><ele>153.0</ele><time>2026-04-11T09:17:04Z</time></trkpt><trkpt lat="44.05383867084801" lon="12.374894224973227"><ele>153.0</ele><time>2026-04-11T09:17:07Z</time></trkpt><trkpt lat="44.05378335952889" lon="12.374850186516948"><ele>153.0</ele><time>2026-04-11T09:17:09Z</time></trkpt><trkpt lat="44.05372701646315" lon="12.374805557874906"><ele>153.0</ele><time>2026-04-11T09:17:11Z</time></trkpt><trkpt lat="44.05365257804247" lon="12.374736247524437"><ele>152.5</ele><time>2026-04-11T09:17:14Z</time></trkpt><trkpt lat="44.053580634532196" lon="12.374674540228023"><ele>152.0</ele><time>2026-04-11T09:17:17Z</time></trkpt><trkpt lat="44.05350195038189" lon="12.37461326639993"><ele>151.5</ele><time>2026-04-11T09:17:20Z</time></trkpt><trkpt lat="44.05344951628775" lon="12.374563982719577"><ele>151.0</ele><time>2026-04-11T09:17:22Z</time></trkpt><trkpt lat="44.05339314417084" lon="12.374521026614028"><ele>150.5</ele><time>2026-04-11T09:17:24Z</time></trkpt><trkpt lat="44.05333514385551" lon="12.374477124693977"><ele>150.0</ele><time>2026-04-11T09:17:26Z</time></trkpt><trkpt lat="44.05324999275387" lon="12.374415683124521"><ele>149.99999999999997</ele><time>2026-04-11T09:17:29Z</time></trkpt><trkpt lat="44.05319264665372" lon="12.374364197915485"><ele>150.0</ele><time>2026-04-11T09:17:31Z</time></trkpt><trkpt lat="44.05313310183813" lon="12.374317358787152"><ele>150.0</ele><time>2026-04-11T09:17:33Z</time></trkpt><trkpt lat="44.05306885658398" lon="12.374263196951171"><ele>150.0</ele><time>2026-04-11T09:17:35Z</time></trkpt><trkpt lat="44.05300891331503" lon="12.37420222486464"><ele>150.0</ele><time>2026-04-11T09:17:37Z</time></trkpt><trkpt lat="44.05294541610358" lon="12.374141436365823"><ele>149.99999999999997</ele><time>2026-04-11T09:17:39Z</time></trkpt><trkpt lat="44.05288780396511" lon="12.374074382396625"><ele>150.0</ele><time>2026-04-11T09:17:41Z</time></trkpt><trkpt lat="44.05282604599507" lon="12.373999538412805"><ele>150.0</ele><time>2026-04-11T09:17:43Z</time></trkpt><trkpt lat="44.052726456150666" lon="12.37393581416037"><ele>150.0</ele><time>2026-04-11T09:17:45Z</time></trkpt><trkpt lat="44.052673076866554" lon="12.37385997949484"><ele>150.0</ele><time>2026-04-11T09:17:47Z</time></trkpt><trkpt lat="44.05260779932704" lon="12.373781064081301"><ele>150.0</ele><time>2026-04-11T09:17:49Z</time></trkpt><trkpt lat="44.052530176521515" lon="12.373703725331717"><ele>150.0</ele><time>2026-04-11T09:17:51Z</time></trkpt><trkpt lat="44.05245226264856" lon="12.373625452904497"><ele>150.6</ele><time>2026-04-11T09:17:53Z</time></trkpt><trkpt lat="44.05237476743624" lon="12.373534787673815"><ele>151.2</ele><time>2026-04-11T09:17:55Z</time></trkpt><trkpt lat="44.05228958951412" lon="12.373451133510558"><ele>151.8</ele><time>2026-04-11T09:17:57Z</time></trkpt><trkpt lat="44.052206204959674" lon="12.373361852787088"><ele>152.4</ele><time>2026-04-11T09:17:59Z</time></trkpt><trkpt lat="44.05211956053023" lon="12.373276304780179"><ele>153.0</ele><time>2026-04-11T09:18:01Z</time></trkpt><trkpt lat="44.05204901654403" lon="12.37317608256232"><ele>153.0</ele><time>2026-04-11T09:18:03Z</time></trkpt><trkpt lat="44.05195719489306" lon="12.373099047881052"><ele>153.0</ele><time>2026-04-11T09:18:05Z</time></trkpt><trkpt lat="44.05188148558167" lon="12.373022459261803"><ele>153.0</ele><time>2026-04-11T09:18:07Z</time></trkpt><trkpt lat="44.051812731605395" lon="12.372945467187483"><ele>153.0</ele><time>2026-04-11T09:18:09Z</time></trkpt><trkpt lat="44.05173703116857" lon="12.372862425808249"><ele>153.0</ele><time>2026-04-11T09:18:11Z</time></trkpt><trkpt lat="44.0516791561417" lon="12.372793963001506"><ele>153.5</ele><time>2026-04-11T09:18:13Z</time></trkpt><trkpt lat="44.051611879362035" lon="12.372722516943629"><ele>154.0</ele><time>2026-04-11T09:18:15Z</time></trkpt><trkpt lat="44.05155827471062" lon="12.372644377236568"><ele>154.5</ele><time>2026-04-11T09:18:17Z</time></trkpt><trkpt lat="44.05149653716802" lon="12.372580590708587"><ele>155.0</ele><time>2026-04-11T09:18:19Z</time></trkpt><trkpt lat="44.05145267998486" lon="12.37249947286826"><ele>155.5</ele><time>2026-04-11T09:18:21Z</time></trkpt><trkpt lat="44.051397154172" lon="12.372433780259223"><ele>156.0</ele><time>2026-04-11T09:18:23Z</time></trkpt><trkpt lat="44.051347378926714" lon="12.372356632494796"><ele>156.0</ele><time>2026-04-11T09:18:25Z</time></trkpt><trkpt lat="44.051316423311704" lon="12.372276016713105"><ele>156.0</ele><time>2026-04-11T09:18:27Z</time></trkpt><trkpt lat="44.05126479064389" lon="12.37222080034243"><ele>156.0</ele><time>2026-04-11T09:18:29Z</time></trkpt><trkpt lat="44.05119022040584" lon="12.372122555023168"><ele>156.0</ele><time>2026-04-11T09:18:32Z</time></trkpt><trkpt lat="44.051126545701" lon="12.372084398600052"><ele>156.0</ele><time>2026-04-11T09:18:34Z</time></trkpt><trkpt lat="44.05105418208864" lon="12.372069850893695"><ele>156.0</ele><time>2026-04-11T09:18:36Z</time></trkpt><trkpt lat="44.05097531708923" lon="12.372056485452875"><ele>157.66666666666666</ele><time>2026-04-11T09:18:38Z</time></trkpt><trkpt lat="44.05089179732105" lon="12.372050000465725"><ele>159.33333333333334</ele><time>2026-04-11T09:18:40Z</time></trkpt><trkpt lat="44.05080526143844" lon="12.37204345575043"><ele>161.0</ele><time>2026-04-11T09:18:42Z</time></trkpt><trkpt lat="44.0507224137084" lon="12.372031935855354"><ele>162.66666666666669</ele><time>2026-04-11T09:18:44Z</time></trkpt><trkpt lat="44.05064135788824" lon="12.372002576571417"><ele>164.33333333333334</ele><time>2026-04-11T09:18:46Z</time></trkpt><trkpt lat="44.05055577429536" lon="12.371956157061168"><ele>166.0</ele><time>2026-04-11T09:18:48Z</time></trkpt><trkpt lat="44.05048323577491" lon="12.371904336019602"><ele>166.0</ele><time>2026-04-11T09:18:50Z</time></trkpt><trkpt lat="44.05043061451645" lon="12.371820786477143"><ele>166.0</ele><time>2026-04-11T09:18:52Z</time></trkpt><trkpt lat="44.05037231511574" lon="12.371755804243115"><ele>166.0</ele><time>2026-04-11T09:18:54Z</time></trkpt><trkpt lat="44.050314846640134" lon="12.371693181010238"><ele>166.0</ele><time>2026-04-11T09:18:56Z</time></trkpt><trkpt lat="44.05024955229278" lon="12.371644760041328"><ele>166.0</ele><time>2026-04-11T09:18:58Z</time></trkpt><trkpt lat="44.05018126037135" lon="12.371610914865611"><ele>166.0</ele><time>2026-04-11T09:19:00Z</time></trkpt><trkpt lat="44.05010652301081" lon="12.371589622146471"><ele>166.0</ele><time>2026-04-11T09:19:02Z</time></trkpt><trkpt lat="44.05003296015957" lon="12.371568372866466"><ele>166.0</ele><time>2026-04-11T09:19:04Z</time></trkpt><trkpt lat="44.04992054305569" lon="12.371549785803278"><ele>166.0</ele><time>2026-04-11T09:19:06Z</time></trkpt><trkpt lat="44.04985666647325" lon="12.371522055084542"><ele>166.0</ele><time>2026-04-11T09:19:08Z</time></trkpt><trkpt lat="44.049769278424264" lon="12.371503036992225"><ele>166.0</ele><time>2026-04-11T09:19:10Z</time></trkpt><trkpt lat="44.049688695935636" lon="12.37146451433297"><ele>166.0</ele><time>2026-04-11T09:19:12Z</time></trkpt><trkpt lat="44.049602114385564" lon="12.371441875868756"><ele>166.0</ele><time>2026-04-11T09:19:14Z</time></trkpt><trkpt lat="44.049535512807815" lon="12.371396833176702"><ele>166.0</ele><time>2026-04-11T09:19:16Z</time></trkpt><trkpt lat="44.049453077958965" lon="12.371339413645142"><ele>166.0</ele><time>2026-04-11T09:19:19Z</time></trkpt><trkpt lat="44.049378246500886" lon="12.371285619454149"><ele>166.0</ele><time>2026-04-11T09:19:22Z</time></trkpt><trkpt lat="44.0493189170964" lon="12.371250274314047"><ele>166.0</ele><time>2026-04-11T09:19:25Z</time></trkpt><trkpt lat="44.0492317278894" lon="12.371216038468274"><ele>166.0</ele><time>2026-04-11T09:19:28Z</time></trkpt><trkpt lat="44.0491622899561" lon="12.371187685979592"><ele>166.33333333333334</ele><time>2026-04-11T09:19:30Z</time></trkpt><trkpt lat="44.04909232145648" lon="12.371157620516383"><ele>166.66666666666669</ele><time>2026-04-11T09:19:32Z</time></trkpt><trkpt lat="44.049017959349925" lon="12.371141792584579"><ele>167.0</ele><time>2026-04-11T09:19:34Z</time></trkpt><trkpt lat="44.04893785054816" lon="12.371127193318856"><ele>167.33333333333334</ele><time>2026-04-11T09:19:36Z</time></trkpt><trkpt lat="44.04885921085115" lon="12.371115504792868"><ele>167.66666666666666</ele><time>2026-04-11T09:19:38Z</time></trkpt><trkpt lat="44.048779478146535" lon="12.371108312038547"><ele>168.0</ele><time>2026-04-11T09:19:40Z</time></trkpt><trkpt lat="44.04869905798027" lon="12.371095119676998"><ele>168.0</ele><time>2026-04-11T09:19:42Z</time></trkpt><trkpt lat="44.04861653130016" lon="12.371084911229214"><ele>168.0</ele><time>2026-04-11T09:19:44Z</time></trkpt><trkpt lat="44.048546137338" lon="12.371088358688558"><ele>168.0</ele><time>2026-04-11T09:19:46Z</time></trkpt><trkpt lat="44.04847491148865" lon="12.371078868777323"><ele>168.0</ele><time>2026-04-11T09:19:48Z</time></trkpt><trkpt lat="44.048407155573216" lon="12.371069622330692"><ele>168.0</ele><time>2026-04-11T09:19:50Z</time></trkpt><trkpt lat="44.04834315501372" lon="12.371067923801936"><ele>168.0</ele><time>2026-04-11T09:19:52Z</time></trkpt><trkpt lat="44.048255255958296" lon="12.371062113085804"><ele>168.0</ele><time>2026-04-11T09:19:55Z</time></trkpt><trkpt lat="44.048191703848694" lon="12.371059376562043"><ele>168.33333333333334</ele><time>2026-04-11T09:19:57Z</time></trkpt><trkpt lat="44.04812801734102" lon="12.371053184351418"><ele>168.66666666666666</ele><time>2026-04-11T09:19:59Z</time></trkpt><trkpt lat="44.04803122518878" lon="12.371051320824009"><ele>169.0</ele><time>2026-04-11T09:20:02Z</time></trkpt><trkpt lat="44.0479610052952" lon="12.371055586884385"><ele>169.33333333333331</ele><time>2026-04-11T09:20:04Z</time></trkpt><trkpt lat="44.04788773475727" lon="12.37105263914638"><ele>169.66666666666666</ele><time>2026-04-11T09:20:06Z</time></trkpt><trkpt lat="44.04779765582736" lon="12.371041179323342"><ele>170.0</ele><time>2026-04-11T09:20:08Z</time></trkpt><trkpt lat="44.047718118816476" lon="12.371031137873521"><ele>170.0</ele><time>2026-04-11T09:20:10Z</time></trkpt><trkpt lat="44.04763293337529" lon="12.371021632023217"><ele>170.0</ele><time>2026-04-11T09:20:12Z</time></trkpt><trkpt lat="44.0475394456446" lon="12.371014560545865"><ele>170.0</ele><time>2026-04-11T09:20:14Z</time></trkpt><trkpt lat="44.04744041248011" lon="12.371003669273845"><ele>170.0</ele><time>2026-04-11T09:20:16Z</time></trkpt><trkpt lat="44.04734479802944" lon="12.371009518524604"><ele>170.0</ele><time>2026-04-11T09:20:18Z</time></trkpt><trkpt lat="44.04728046183323" lon="12.371006094253103"><ele>170.0</ele><time>2026-04-11T09:20:19Z</time></trkpt><trkpt lat="44.047164147342706" lon="12.371029751342432"><ele>170.0</ele><time>2026-04-11T09:20:21Z</time></trkpt><trkpt lat="44.04705080816321" lon="12.371057438753255"><ele>170.0</ele><time>2026-04-11T09:20:23Z</time></trkpt><trkpt lat="44.04694696112246" lon="12.371086828997303"><ele>170.0</ele><time>2026-04-11T09:20:25Z</time></trkpt><trkpt lat="44.04683365717205" lon="12.371115453615513"><ele>170.0</ele><time>2026-04-11T09:20:27Z</time></trkpt><trkpt lat="44.04672658799761" lon="12.37114114269668"><ele>170.0</ele><time>2026-04-11T09:20:29Z</time></trkpt><trkpt lat="44.046663163010656" lon="12.371142025516475"><ele>169.2</ele><time>2026-04-11T09:20:30Z</time></trkpt><trkpt lat="44.04654978385637" lon="12.37116238129888"><ele>168.4</ele><time>2026-04-11T09:20:32Z</time></trkpt><trkpt lat="44.04642850560373" lon="12.371186499287779"><ele>167.60000000000002</ele><time>2026-04-11T09:20:34Z</time></trkpt><trkpt lat="44.0463111629897" lon="12.371203738486898"><ele>166.8</ele><time>2026-04-11T09:20:36Z</time></trkpt><trkpt lat="44.046246892320724" lon="12.371222724566787"><ele>166.0</ele><time>2026-04-11T09:20:37Z</time></trkpt><trkpt lat="44.046126675813056" lon="12.37125346629132"><ele>166.0</ele><time>2026-04-11T09:20:39Z</time></trkpt><trkpt lat="44.04606101738297" lon="12.37127426350583"><ele>166.0</ele><time>2026-04-11T09:20:40Z</time></trkpt><trkpt lat="44.0459988720399" lon="12.37129143039707"><ele>166.0</ele><time>2026-04-11T09:20:41Z</time></trkpt><trkpt lat="44.04588053101885" lon="12.371338392269367"><ele>166.0</ele><time>2026-04-11T09:20:43Z</time></trkpt><trkpt lat="44.045804370718606" lon="12.371400068031852"><ele>166.0</ele><time>2026-04-11T09:20:45Z</time></trkpt><trkpt lat="44.045724990859604" lon="12.371416873314102"><ele>166.0</ele><time>2026-04-11T09:20:46Z</time></trkpt><trkpt lat="44.04560417664469" lon="12.371460551930737"><ele>167.20000000000002</ele><time>2026-04-11T09:20:48Z</time></trkpt><trkpt lat="44.04550113468118" lon="12.371495091818023"><ele>168.4</ele><time>2026-04-11T09:20:50Z</time></trkpt><trkpt lat="44.04540210748798" lon="12.371532097593153"><ele>169.6</ele><time>2026-04-11T09:20:52Z</time></trkpt><trkpt lat="44.04531057420214" lon="12.371556098169373"><ele>170.8</ele><time>2026-04-11T09:20:54Z</time></trkpt><trkpt lat="44.0452234466972" lon="12.371578234269492"><ele>172.0</ele><time>2026-04-11T09:20:56Z</time></trkpt><trkpt lat="44.045141881760216" lon="12.371595035909925"><ele>172.0</ele><time>2026-04-11T09:20:58Z</time></trkpt><trkpt lat="44.04506164416378" lon="12.37160339719554"><ele>172.0</ele><time>2026-04-11T09:21:00Z</time></trkpt><trkpt lat="44.044982713126494" lon="12.371608890662639"><ele>172.0</ele><time>2026-04-11T09:21:02Z</time></trkpt><trkpt lat="44.044898290261166" lon="12.371621661357175"><ele>172.0</ele><time>2026-04-11T09:21:04Z</time></trkpt><trkpt lat="44.04482350587537" lon="12.371617782577745"><ele>172.0</ele><time>2026-04-11T09:21:06Z</time></trkpt><trkpt lat="44.04474515047776" lon="12.371616460135744"><ele>172.0</ele><time>2026-04-11T09:21:08Z</time></trkpt><trkpt lat="44.04467287174273" lon="12.37161136234302"><ele>172.33333333333334</ele><time>2026-04-11T09:21:10Z</time></trkpt><trkpt lat="44.04459481788999" lon="12.371609430452127"><ele>172.66666666666669</ele><time>2026-04-11T09:21:12Z</time></trkpt><trkpt lat="44.04451508337608" lon="12.371620879228104"><ele>173.0</ele><time>2026-04-11T09:21:14Z</time></trkpt><trkpt lat="44.044430385679846" lon="12.371635770076566"><ele>173.33333333333334</ele><time>2026-04-11T09:21:16Z</time></trkpt><trkpt lat="44.04435414591609" lon="12.371660495169198"><ele>173.66666666666666</ele><time>2026-04-11T09:21:18Z</time></trkpt><trkpt lat="44.044285533670845" lon="12.371701857804222"><ele>174.0</ele><time>2026-04-11T09:21:20Z</time></trkpt><trkpt lat="44.044211317786235" lon="12.37175329683413"><ele>174.0</ele><time>2026-04-11T09:21:22Z</time></trkpt><trkpt lat="44.04414713566884" lon="12.371814657825203"><ele>174.0</ele><time>2026-04-11T09:21:24Z</time></trkpt><trkpt lat="44.04407733340751" lon="12.371870258459381"><ele>174.0</ele><time>2026-04-11T09:21:26Z</time></trkpt><trkpt lat="44.04401165072782" lon="12.371941302133827"><ele>174.0</ele><time>2026-04-11T09:21:28Z</time></trkpt><trkpt lat="44.04393603468065" lon="12.372006542536765"><ele>174.0</ele><time>2026-04-11T09:21:30Z</time></trkpt><trkpt lat="44.04386338840769" lon="12.372071519172025"><ele>174.0</ele><time>2026-04-11T09:21:32Z</time></trkpt><trkpt lat="44.04378766412344" lon="12.37212890595634"><ele>173.83333333333334</ele><time>2026-04-11T09:21:34Z</time></trkpt><trkpt lat="44.04370980092193" lon="12.372174498730757"><ele>173.66666666666666</ele><time>2026-04-11T09:21:36Z</time></trkpt><trkpt lat="44.04363428003545" lon="12.372205255430861"><ele>173.5</ele><time>2026-04-11T09:21:38Z</time></trkpt><trkpt lat="44.04355610237745" lon="12.372230366996048"><ele>173.33333333333331</ele><time>2026-04-11T09:21:40Z</time></trkpt><trkpt lat="44.04347381182895" lon="12.372244387318569"><ele>173.16666666666666</ele><time>2026-04-11T09:21:42Z</time></trkpt><trkpt lat="44.04339425682817" lon="12.372248778918467"><ele>173.0</ele><time>2026-04-11T09:21:44Z</time></trkpt><trkpt lat="44.04331379168168" lon="12.372245372198824"><ele>174.83333333333331</ele><time>2026-04-11T09:21:46Z</time></trkpt><trkpt lat="44.04322915684199" lon="12.372232242688384"><ele>176.66666666666666</ele><time>2026-04-11T09:21:48Z</time></trkpt><trkpt lat="44.04314210297621" lon="12.372220621783692"><ele>178.5</ele><time>2026-04-11T09:21:50Z</time></trkpt><trkpt lat="44.04305200395646" lon="12.372208741336726"><ele>180.33333333333334</ele><time>2026-04-11T09:21:52Z</time></trkpt><trkpt lat="44.042965133283666" lon="12.372188441129465"><ele>182.16666666666669</ele><time>2026-04-11T09:21:54Z</time></trkpt><trkpt lat="44.042884505831864" lon="12.372172284117818"><ele>184.0</ele><time>2026-04-11T09:21:56Z</time></trkpt><trkpt lat="44.0428056204911" lon="12.372148205351369"><ele>184.0</ele><time>2026-04-11T09:21:58Z</time></trkpt><trkpt lat="44.04272835337171" lon="12.372111652791482"><ele>184.0</ele><time>2026-04-11T09:22:00Z</time></trkpt><trkpt lat="44.04266342657925" lon="12.372085541814885"><ele>184.0</ele><time>2026-04-11T09:22:02Z</time></trkpt><trkpt lat="44.0425995031554" lon="12.37204689738894"><ele>184.0</ele><time>2026-04-11T09:22:04Z</time></trkpt><trkpt lat="44.04254118961055" lon="12.372012220829395"><ele>184.0</ele><time>2026-04-11T09:22:06Z</time></trkpt><trkpt lat="44.042463121881916" lon="12.371963617145477"><ele>184.0</ele><time>2026-04-11T09:22:09Z</time></trkpt><trkpt lat="44.04238440964712" lon="12.371917490782222"><ele>184.0</ele><time>2026-04-11T09:22:12Z</time></trkpt><trkpt lat="44.0422937504609" lon="12.371879037235171"><ele>184.0</ele><time>2026-04-11T09:22:15Z</time></trkpt><trkpt lat="44.042223224636096" lon="12.371849025460946"><ele>184.0</ele><time>2026-04-11T09:22:17Z</time></trkpt><trkpt lat="44.04214333410151" lon="12.371818117338606"><ele>184.0</ele><time>2026-04-11T09:22:19Z</time></trkpt><trkpt lat="44.042056419632395" lon="12.371786331458607"><ele>184.0</ele><time>2026-04-11T09:22:21Z</time></trkpt><trkpt lat="44.041964570213906" lon="12.37174620881904"><ele>184.0</ele><time>2026-04-11T09:22:23Z</time></trkpt><trkpt lat="44.041868881081236" lon="12.37168338083628"><ele>184.0</ele><time>2026-04-11T09:22:25Z</time></trkpt><trkpt lat="44.041774015169075" lon="12.37160390602737"><ele>184.0</ele><time>2026-04-11T09:22:27Z</time></trkpt><trkpt lat="44.041700084551984" lon="12.371483659254572"><ele>184.0</ele><time>2026-04-11T09:22:29Z</time></trkpt><trkpt lat="44.04166202433267" lon="12.371412669513623"><ele>184.0</ele><time>2026-04-11T09:22:30Z</time></trkpt><trkpt lat="44.04163325796306" lon="12.371334477981915"><ele>184.0</ele><time>2026-04-11T09:22:31Z</time></trkpt><trkpt lat="44.04160099965061" lon="12.371163884133068"><ele>182.14285714285714</ele><time>2026-04-11T09:22:33Z</time></trkpt><trkpt lat="44.04159144403037" lon="12.371073506929271"><ele>180.28571428571428</ele><time>2026-04-11T09:22:34Z</time></trkpt><trkpt lat="44.04158310209513" lon="12.370978983918642"><ele>178.42857142857142</ele><time>2026-04-11T09:22:35Z</time></trkpt><trkpt lat="44.041576557373354" lon="12.370886936264023"><ele>176.57142857142856</ele><time>2026-04-11T09:22:36Z</time></trkpt><trkpt lat="44.04156862636978" lon="12.370799174777813"><ele>174.71428571428572</ele><time>2026-04-11T09:22:37Z</time></trkpt><trkpt lat="44.04155013103679" lon="12.370714617220008"><ele>172.85714285714283</ele><time>2026-04-11T09:22:38Z</time></trkpt><trkpt lat="44.041526541635996" lon="12.37062939665141"><ele>171.0</ele><time>2026-04-11T09:22:39Z</time></trkpt><trkpt lat="44.041495773658134" lon="12.370546042039958"><ele>172.28571428571428</ele><time>2026-04-11T09:22:40Z</time></trkpt><trkpt lat="44.04144889942607" lon="12.370469997125067"><ele>173.57142857142856</ele><time>2026-04-11T09:22:41Z</time></trkpt><trkpt lat="44.04140219388974" lon="12.370391463822367"><ele>174.85714285714283</ele><time>2026-04-11T09:22:42Z</time></trkpt><trkpt lat="44.041356702191166" lon="12.370323205888544"><ele>176.14285714285714</ele><time>2026-04-11T09:22:43Z</time></trkpt><trkpt lat="44.04130444445275" lon="12.37025517329173"><ele>177.42857142857144</ele><time>2026-04-11T09:22:44Z</time></trkpt><trkpt lat="44.04125836891975" lon="12.370184042820275"><ele>178.7142857142857</ele><time>2026-04-11T09:22:45Z</time></trkpt><trkpt lat="44.04120654690434" lon="12.370112417572544"><ele>180.0</ele><time>2026-04-11T09:22:46Z</time></trkpt><trkpt lat="44.041158181133184" lon="12.370044536809914"><ele>180.0</ele><time>2026-04-11T09:22:47Z</time></trkpt><trkpt lat="44.041112902544185" lon="12.369981545460705"><ele>180.0</ele><time>2026-04-11T09:22:48Z</time></trkpt><trkpt lat="44.04104242816659" lon="12.369874878176361"><ele>180.0</ele><time>2026-04-11T09:22:50Z</time></trkpt><trkpt lat="44.04099075821967" lon="12.369807198406615"><ele>180.0</ele><time>2026-04-11T09:22:52Z</time></trkpt><trkpt lat="44.04092559146792" lon="12.369793733522094"><ele>180.0</ele><time>2026-04-11T09:23:03Z</time></trkpt><trkpt lat="44.04085453866089" lon="12.36982440283939"><ele>180.0</ele><time>2026-04-11T09:23:05Z</time></trkpt><trkpt lat="44.040788197082406" lon="12.369810971819787"><ele>180.0</ele><time>2026-04-11T09:23:07Z</time></trkpt><trkpt lat="44.04069860005768" lon="12.369825930328481"><ele>178.7142857142857</ele><time>2026-04-11T09:23:10Z</time></trkpt><trkpt lat="44.04062286168601" lon="12.369846919418476"><ele>177.42857142857144</ele><time>2026-04-11T09:23:13Z</time></trkpt><trkpt lat="44.04055145845838" lon="12.369875119655346"><ele>176.14285714285714</ele><time>2026-04-11T09:23:15Z</time></trkpt><trkpt lat="44.0404848128683" lon="12.369919429376314"><ele>174.85714285714283</ele><time>2026-04-11T09:23:18Z</time></trkpt><trkpt lat="44.04042083735305" lon="12.369933040867583"><ele>173.57142857142856</ele><time>2026-04-11T09:23:21Z</time></trkpt><trkpt lat="44.04035560739796" lon="12.36994350359875"><ele>172.28571428571428</ele><time>2026-04-11T09:23:24Z</time></trkpt><trkpt lat="44.04028626728802" lon="12.3699430034078"><ele>171.0</ele><time>2026-04-11T09:23:27Z</time></trkpt><trkpt lat="44.040225276148405" lon="12.36998419760598"><ele>171.0</ele><time>2026-04-11T09:23:34Z</time></trkpt><trkpt lat="44.040162076030946" lon="12.370045623412954"><ele>171.0</ele><time>2026-04-11T09:23:37Z</time></trkpt><trkpt lat="44.04009495516415" lon="12.370108132748506"><ele>171.0</ele><time>2026-04-11T09:23:40Z</time></trkpt><trkpt lat="44.04002388207473" lon="12.370168331044665"><ele>171.0</ele><time>2026-04-11T09:23:43Z</time></trkpt><trkpt lat="44.03995139483151" lon="12.370236136205808"><ele>171.0</ele><time>2026-04-11T09:23:46Z</time></trkpt><trkpt lat="44.0398992756945" lon="12.370308588358343"><ele>171.0</ele><time>2026-04-11T09:23:49Z</time></trkpt><trkpt lat="44.03983612683356" lon="12.370360935615354"><ele>169.14285714285714</ele><time>2026-04-11T09:23:53Z</time></trkpt><trkpt lat="44.03976906004319" lon="12.37041537880285"><ele>167.28571428571428</ele><time>2026-04-11T09:23:56Z</time></trkpt><trkpt lat="44.03970371537968" lon="12.370469530236832"><ele>165.42857142857144</ele><time>2026-04-11T09:24:00Z</time></trkpt><trkpt lat="44.039665312548564" lon="12.370539348483907"><ele>163.57142857142856</ele><time>2026-04-11T09:24:08Z</time></trkpt><trkpt lat="44.0396193036093" lon="12.37060647955939"><ele>161.71428571428572</ele><time>2026-04-11T09:24:12Z</time></trkpt><trkpt lat="44.0395925614486" lon="12.3706896123991"><ele>159.85714285714286</ele><time>2026-04-11T09:24:15Z</time></trkpt><trkpt lat="44.03957303918583" lon="12.370774487671412"><ele>158.0</ele><time>2026-04-11T09:24:18Z</time></trkpt><trkpt lat="44.03955505329633" lon="12.370866121458366"><ele>155.83333333333331</ele><time>2026-04-11T09:24:22Z</time></trkpt><trkpt lat="44.03951589014369" lon="12.37095383404417"><ele>153.66666666666666</ele><time>2026-04-11T09:24:26Z</time></trkpt><trkpt lat="44.03946937355526" lon="12.371037900182351"><ele>151.5</ele><time>2026-04-11T09:24:30Z</time></trkpt><trkpt lat="44.039418841226954" lon="12.371113613723892"><ele>149.33333333333334</ele><time>2026-04-11T09:24:34Z</time></trkpt><trkpt lat="44.039343630720396" lon="12.371201008425103"><ele>147.16666666666669</ele><time>2026-04-11T09:24:38Z</time></trkpt><trkpt lat="44.03929480634545" lon="12.371266450993346"><ele>145.0</ele><time>2026-04-11T09:24:42Z</time></trkpt><trkpt lat="44.039245817926606" lon="12.371321847648257"><ele>141.83333333333334</ele><time>2026-04-11T09:24:45Z</time></trkpt><trkpt lat="44.03917999495535" lon="12.371400975351973"><ele>138.66666666666669</ele><time>2026-04-11T09:24:50Z</time></trkpt><trkpt lat="44.03913029885805" lon="12.371466296182438"><ele>135.5</ele><time>2026-04-11T09:24:54.001Z</time></trkpt><trkpt lat="44.039084619033645" lon="12.371528092847234"><ele>132.33333333333334</ele><time>2026-04-11T09:24:58.001Z</time></trkpt><trkpt lat="44.03903418488385" lon="12.371597678971721"><ele>129.16666666666666</ele><time>2026-04-11T09:25:01.001Z</time></trkpt><trkpt lat="44.03895828932205" lon="12.371738320371225"><ele>126.0</ele><time>2026-04-11T09:25:04.001Z</time></trkpt><trkpt lat="44.038896880181255" lon="12.371788615571607"><ele>124.0</ele><time>2026-04-11T09:25:07.001Z</time></trkpt><trkpt lat="44.038830285333574" lon="12.37183880825939"><ele>122.0</ele><time>2026-04-11T09:25:10.001Z</time></trkpt><trkpt lat="44.03874536160071" lon="12.371879165046018"><ele>120.0</ele><time>2026-04-11T09:25:13Z</time></trkpt><trkpt lat="44.03868193255084" lon="12.371904547942458"><ele>118.0</ele><time>2026-04-11T09:25:16Z</time></trkpt><trkpt lat="44.03861457106486" lon="12.371925355044535"><ele>116.0</ele><time>2026-04-11T09:25:19Z</time></trkpt><trkpt lat="44.038529021891854" lon="12.371938015599934"><ele>114.0</ele><time>2026-04-11T09:25:24Z</time></trkpt><trkpt lat="44.03845978947264" lon="12.37197042679127"><ele>114.0</ele><time>2026-04-11T09:25:27Z</time></trkpt><trkpt lat="44.03841957422945" lon="12.372060539915706"><ele>114.0</ele><time>2026-04-11T09:25:30Z</time></trkpt><trkpt lat="44.03842331235459" lon="12.372178241770266"><ele>114.0</ele><time>2026-04-11T09:25:34Z</time></trkpt><trkpt lat="44.038458281244665" lon="12.372267390308702"><ele>114.0</ele><time>2026-04-11T09:25:37Z</time></trkpt><trkpt lat="44.038500938023944" lon="12.372367824505046"><ele>114.0</ele><time>2026-04-11T09:25:41Z</time></trkpt><trkpt lat="44.03853693584943" lon="12.372468333683013"><ele>114.0</ele><time>2026-04-11T09:25:44Z</time></trkpt><trkpt lat="44.0385734987099" lon="12.372567502428414"><ele>113.16666666666667</ele><time>2026-04-11T09:25:46Z</time></trkpt><trkpt lat="44.03858160816746" lon="12.37267520353917"><ele>112.33333333333334</ele><time>2026-04-11T09:25:49Z</time></trkpt><trkpt lat="44.038534037116115" lon="12.372744901149026"><ele>111.5</ele><time>2026-04-11T09:26:02Z</time></trkpt><trkpt lat="44.03846370590699" lon="12.37278671730103"><ele>110.66666666666667</ele><time>2026-04-11T09:26:04Z</time></trkpt><trkpt lat="44.03839893041138" lon="12.372807520427624"><ele>109.83333333333334</ele><time>2026-04-11T09:26:06Z</time></trkpt><trkpt lat="44.03832826906366" lon="12.372889301410346"><ele>109.0</ele><time>2026-04-11T09:26:08Z</time></trkpt><trkpt lat="44.03824309050773" lon="12.37303384565685"><ele>109.00000000000001</ele><time>2026-04-11T09:26:10Z</time></trkpt><trkpt lat="44.03819789656686" lon="12.373100745360208"><ele>109.0</ele><time>2026-04-11T09:26:11Z</time></trkpt><trkpt lat="44.038161640774945" lon="12.373208233833008"><ele>109.0</ele><time>2026-04-11T09:26:12Z</time></trkpt><trkpt lat="44.03813394728406" lon="12.37331863122949"><ele>109.0</ele><time>2026-04-11T09:26:13Z</time></trkpt><trkpt lat="44.0381072954858" lon="12.373422767219136"><ele>109.00000000000001</ele><time>2026-04-11T09:26:14Z</time></trkpt><trkpt lat="44.038079635849044" lon="12.373525572827019"><ele>109.0</ele><time>2026-04-11T09:26:15Z</time></trkpt><trkpt lat="44.038054821439125" lon="12.373635377945513"><ele>109.00000000000001</ele><time>2026-04-11T09:26:16Z</time></trkpt><trkpt lat="44.03803417267659" lon="12.373737995168808"><ele>109.0</ele><time>2026-04-11T09:26:17Z</time></trkpt><trkpt lat="44.038017968090266" lon="12.37384184490634"><ele>109.0</ele><time>2026-04-11T09:26:18Z</time></trkpt><trkpt lat="44.0379914861008" lon="12.373985588531378"><ele>109.0</ele><time>2026-04-11T09:26:20Z</time></trkpt><trkpt lat="44.037957245001785" lon="12.374095228172548"><ele>109.00000000000001</ele><time>2026-04-11T09:26:22Z</time></trkpt><trkpt lat="44.0379292955571" lon="12.374194030557193"><ele>109.0</ele><time>2026-04-11T09:26:24Z</time></trkpt><trkpt lat="44.03793279822604" lon="12.37430170308449"><ele>108.16666666666667</ele><time>2026-04-11T09:26:26Z</time></trkpt><trkpt lat="44.03793837091274" lon="12.374428640818978"><ele>107.33333333333334</ele><time>2026-04-11T09:26:28Z</time></trkpt><trkpt lat="44.03796635316587" lon="12.374543643688732"><ele>106.5</ele><time>2026-04-11T09:26:30Z</time></trkpt><trkpt lat="44.03801622058926" lon="12.374651975137152"><ele>105.66666666666666</ele><time>2026-04-11T09:26:32Z</time></trkpt><trkpt lat="44.03803018392458" lon="12.374759527786225"><ele>104.83333333333333</ele><time>2026-04-11T09:26:34Z</time></trkpt><trkpt lat="44.03800732492979" lon="12.374882902614663"><ele>104.0</ele><time>2026-04-11T09:26:36Z</time></trkpt><trkpt lat="44.03795977771161" lon="12.374990539717313"><ele>102.80000000000001</ele><time>2026-04-11T09:26:38Z</time></trkpt><trkpt lat="44.0378866531436" lon="12.375088366657547"><ele>101.60000000000001</ele><time>2026-04-11T09:26:40Z</time></trkpt><trkpt lat="44.0378153999904" lon="12.375169594076683"><ele>100.4</ele><time>2026-04-11T09:26:42Z</time></trkpt><trkpt lat="44.0377702987493" lon="12.37530420850811"><ele>99.2</ele><time>2026-04-11T09:26:44Z</time></trkpt><trkpt lat="44.03777416926365" lon="12.375448435835997"><ele>98.0</ele><time>2026-04-11T09:26:46Z</time></trkpt><trkpt lat="44.03779586896253" lon="12.375543584022765"><ele>97.16666666666666</ele><time>2026-04-11T09:26:47Z</time></trkpt><trkpt lat="44.03778471966553" lon="12.37563689873594"><ele>96.33333333333333</ele><time>2026-04-11T09:26:49Z</time></trkpt><trkpt lat="44.03779521406658" lon="12.37575492356375"><ele>95.5</ele><time>2026-04-11T09:26:51Z</time></trkpt><trkpt lat="44.037795503328375" lon="12.375863553076334"><ele>94.66666666666666</ele><time>2026-04-11T09:26:53Z</time></trkpt><trkpt lat="44.037783121319954" lon="12.375976351343045"><ele>93.83333333333333</ele><time>2026-04-11T09:26:55Z</time></trkpt><trkpt lat="44.03775938315818" lon="12.376094068718334"><ele>93.0</ele><time>2026-04-11T09:26:57Z</time></trkpt><trkpt lat="44.03773480091646" lon="12.37620836598893"><ele>93.0</ele><time>2026-04-11T09:26:59Z</time></trkpt><trkpt lat="44.037723830449096" lon="12.376321336763105"><ele>93.0</ele><time>2026-04-11T09:27:01Z</time></trkpt><trkpt lat="44.03774997248356" lon="12.376426697547904"><ele>93.0</ele><time>2026-04-11T09:27:03Z</time></trkpt><trkpt lat="44.037776771275915" lon="12.376535854781244"><ele>93.0</ele><time>2026-04-11T09:27:05Z</time></trkpt><trkpt lat="44.037788354406615" lon="12.37665021341171"><ele>93.0</ele><time>2026-04-11T09:27:07Z</time></trkpt><trkpt lat="44.03778572521994" lon="12.376776145340418"><ele>93.0</ele><time>2026-04-11T09:27:09Z</time></trkpt><trkpt lat="44.03776824675023" lon="12.376917902713132"><ele>93.0</ele><time>2026-04-11T09:27:11Z</time></trkpt><trkpt lat="44.03776645460525" lon="12.377073093537769"><ele>93.0</ele><time>2026-04-11T09:27:13Z</time></trkpt><trkpt lat="44.03775988398425" lon="12.377207807958179"><ele>93.0</ele><time>2026-04-11T09:27:15.001Z</time></trkpt><trkpt lat="44.03775602128418" lon="12.37733832053863"><ele>93.0</ele><time>2026-04-11T09:27:17Z</time></trkpt><trkpt lat="44.03773917540515" lon="12.377451471785129"><ele>93.0</ele><time>2026-04-11T09:27:19Z</time></trkpt><trkpt lat="44.03773739113699" lon="12.377586208756536"><ele>92.83333333333333</ele><time>2026-04-11T09:27:21Z</time></trkpt><trkpt lat="44.03772227113812" lon="12.377719038983193"><ele>92.66666666666667</ele><time>2026-04-11T09:27:23Z</time></trkpt><trkpt lat="44.037697133396165" lon="12.377807194762935"><ele>92.5</ele><time>2026-04-11T09:27:37Z</time></trkpt><trkpt lat="44.037660965487426" lon="12.37792632719175"><ele>92.33333333333334</ele><time>2026-04-11T09:27:40Z</time></trkpt><trkpt lat="44.03762803101377" lon="12.37800572980244"><ele>92.16666666666667</ele><time>2026-04-11T09:27:42Z</time></trkpt><trkpt lat="44.037585139305946" lon="12.37807616402361"><ele>92.0</ele><time>2026-04-11T09:27:44Z</time></trkpt><trkpt lat="44.03755175967423" lon="12.378175953781096"><ele>91.83333333333334</ele><time>2026-04-11T09:27:46Z</time></trkpt><trkpt lat="44.03751485142732" lon="12.378293701789636"><ele>91.66666666666667</ele><time>2026-04-11T09:27:48Z</time></trkpt><trkpt lat="44.03748260186255" lon="12.378413465653809"><ele>91.5</ele><time>2026-04-11T09:27:50Z</time></trkpt><trkpt lat="44.03747050462615" lon="12.378503274693198"><ele>91.33333333333333</ele><time>2026-04-11T09:27:52Z</time></trkpt><trkpt lat="44.03746742943123" lon="12.378614900018103"><ele>91.16666666666666</ele><time>2026-04-11T09:27:57Z</time></trkpt><trkpt lat="44.03750003211273" lon="12.378710747015159"><ele>91.0</ele><time>2026-04-11T09:28:00Z</time></trkpt><trkpt lat="44.03753084429047" lon="12.378829378796361"><ele>90.16666666666666</ele><time>2026-04-11T09:28:03Z</time></trkpt><trkpt lat="44.03757458775502" lon="12.378949995456793"><ele>89.33333333333333</ele><time>2026-04-11T09:28:06Z</time></trkpt><trkpt lat="44.03761631500457" lon="12.379032084072096"><ele>88.5</ele><time>2026-04-11T09:28:08Z</time></trkpt><trkpt lat="44.037659905765395" lon="12.379112899112595"><ele>87.66666666666667</ele><time>2026-04-11T09:28:10Z</time></trkpt><trkpt lat="44.03768433303736" lon="12.379235200035074"><ele>86.83333333333334</ele><time>2026-04-11T09:28:13Z</time></trkpt><trkpt lat="44.03766946369378" lon="12.379367294278582"><ele>86.0</ele><time>2026-04-11T09:28:15Z</time></trkpt><trkpt lat="44.03760355750254" lon="12.379487605186744"><ele>86.0</ele><time>2026-04-11T09:28:17Z</time></trkpt><trkpt lat="44.037543922043994" lon="12.379615727562976"><ele>86.0</ele><time>2026-04-11T09:28:19Z</time></trkpt><trkpt lat="44.03747602359997" lon="12.379744905084648"><ele>86.0</ele><time>2026-04-11T09:28:21Z</time></trkpt><trkpt lat="44.03743427148759" lon="12.379815362582761"><ele>86.0</ele><time>2026-04-11T09:28:22Z</time></trkpt><trkpt lat="44.03734830011279" lon="12.379927327972753"><ele>86.0</ele><time>2026-04-11T09:28:24Z</time></trkpt><trkpt lat="44.03729785892516" lon="12.379980458271246"><ele>85.5</ele><time>2026-04-11T09:28:25Z</time></trkpt><trkpt lat="44.03724880567505" lon="12.380039446779632"><ele>85.0</ele><time>2026-04-11T09:28:26Z</time></trkpt><trkpt lat="44.03719997637978" lon="12.380100579568564"><ele>84.5</ele><time>2026-04-11T09:28:27Z</time></trkpt><trkpt lat="44.03714988196212" lon="12.380157029708457"><ele>84.0</ele><time>2026-04-11T09:28:28Z</time></trkpt><trkpt lat="44.03710060124704" lon="12.380219470984999"><ele>83.5</ele><time>2026-04-11T09:28:29Z</time></trkpt><trkpt lat="44.037055868750706" lon="12.380283276083905"><ele>83.0</ele><time>2026-04-11T09:28:30Z</time></trkpt><trkpt lat="44.03696352743091" lon="12.380414948225924"><ele>83.0</ele><time>2026-04-11T09:28:32Z</time></trkpt><trkpt lat="44.036921392015486" lon="12.380480960091385"><ele>83.0</ele><time>2026-04-11T09:28:33Z</time></trkpt><trkpt lat="44.03684166631448" lon="12.38060345612799"><ele>83.0</ele><time>2026-04-11T09:28:35Z</time></trkpt><trkpt lat="44.03676089565031" lon="12.380735081106037"><ele>83.0</ele><time>2026-04-11T09:28:37Z</time></trkpt><trkpt lat="44.03672429409752" lon="12.380806930454199"><ele>83.0</ele><time>2026-04-11T09:28:38Z</time></trkpt><trkpt lat="44.036651379581606" lon="12.380943318625997"><ele>83.16666666666667</ele><time>2026-04-11T09:28:40Z</time></trkpt><trkpt lat="44.036609125130916" lon="12.38101874455371"><ele>83.33333333333334</ele><time>2026-04-11T09:28:41Z</time></trkpt><trkpt lat="44.03657641064407" lon="12.381099533099537"><ele>83.5</ele><time>2026-04-11T09:28:42Z</time></trkpt><trkpt lat="44.036536515813374" lon="12.38117496278689"><ele>83.66666666666667</ele><time>2026-04-11T09:28:43Z</time></trkpt><trkpt lat="44.03649674639637" lon="12.381249639977007"><ele>83.83333333333333</ele><time>2026-04-11T09:28:44Z</time></trkpt><trkpt lat="44.03645371056068" lon="12.381324448432274"><ele>84.0</ele><time>2026-04-11T09:28:45Z</time></trkpt><trkpt lat="44.0363729440865" lon="12.381460584263571"><ele>84.0</ele><time>2026-04-11T09:28:47Z</time></trkpt><trkpt lat="44.0363287965525" lon="12.381533946874812"><ele>84.0</ele><time>2026-04-11T09:28:48Z</time></trkpt><trkpt lat="44.036287959784275" lon="12.38161348148708"><ele>84.0</ele><time>2026-04-11T09:28:49Z</time></trkpt><trkpt lat="44.03624142907916" lon="12.381695464162572"><ele>84.0</ele><time>2026-04-11T09:28:50Z</time></trkpt><trkpt lat="44.0361961721656" lon="12.381779585945653"><ele>84.0</ele><time>2026-04-11T09:28:51Z</time></trkpt><trkpt lat="44.036153649239665" lon="12.381852538733817"><ele>84.0</ele><time>2026-04-11T09:28:52Z</time></trkpt><trkpt lat="44.036111012046256" lon="12.38192378906654"><ele>84.0</ele><time>2026-04-11T09:28:53Z</time></trkpt><trkpt lat="44.036076048240915" lon="12.382007176875847"><ele>84.0</ele><time>2026-04-11T09:28:54Z</time></trkpt><trkpt lat="44.03605475337732" lon="12.382093797883105"><ele>84.0</ele><time>2026-04-11T09:28:55Z</time></trkpt><trkpt lat="44.03602044964461" lon="12.382257720240304"><ele>84.0</ele><time>2026-04-11T09:28:57Z</time></trkpt><trkpt lat="44.035981542698465" lon="12.3824110149693"><ele>84.0</ele><time>2026-04-11T09:28:59Z</time></trkpt><trkpt lat="44.035933300477765" lon="12.38253433785047"><ele>84.0</ele><time>2026-04-11T09:29:01Z</time></trkpt><trkpt lat="44.035889367723684" lon="12.382647386926141"><ele>84.16666666666667</ele><time>2026-04-11T09:29:03Z</time></trkpt><trkpt lat="44.03584661624429" lon="12.382761491118991"><ele>84.33333333333333</ele><time>2026-04-11T09:29:05Z</time></trkpt><trkpt lat="44.03581398523625" lon="12.38288457046176"><ele>84.5</ele><time>2026-04-11T09:29:07Z</time></trkpt><trkpt lat="44.035771847991015" lon="12.383003125250065"><ele>84.66666666666666</ele><time>2026-04-11T09:29:09Z</time></trkpt><trkpt lat="44.03572805169737" lon="12.383110622600247"><ele>84.83333333333333</ele><time>2026-04-11T09:29:11Z</time></trkpt><trkpt lat="44.035706524200975" lon="12.383198239724013"><ele>85.0</ele><time>2026-04-11T09:29:28Z</time></trkpt><trkpt lat="44.03575688314104" lon="12.383265635463356"><ele>84.42857142857143</ele><time>2026-04-11T09:29:33Z</time></trkpt><trkpt lat="44.03582128779595" lon="12.383311401589413"><ele>83.85714285714285</ele><time>2026-04-11T09:29:39Z</time></trkpt><trkpt lat="44.03589154652198" lon="12.383355704001156"><ele>83.28571428571428</ele><time>2026-04-11T09:29:43Z</time></trkpt><trkpt lat="44.035955148095816" lon="12.383398479230083"><ele>82.71428571428572</ele><time>2026-04-11T09:29:47Z</time></trkpt><trkpt lat="44.03602759836693" lon="12.383452912813864"><ele>82.14285714285714</ele><time>2026-04-11T09:29:51Z</time></trkpt><trkpt lat="44.03608703812552" lon="12.383496209194519"><ele>81.57142857142857</ele><time>2026-04-11T09:29:54Z</time></trkpt><trkpt lat="44.0361439312492" lon="12.383546799170336"><ele>81.0</ele><time>2026-04-11T09:29:57Z</time></trkpt><trkpt lat="44.036210957373335" lon="12.38360360181685"><ele>81.0</ele><time>2026-04-11T09:30:00Z</time></trkpt><trkpt lat="44.03626551097526" lon="12.38365566071151"><ele>81.0</ele><time>2026-04-11T09:30:03Z</time></trkpt><trkpt lat="44.03632377604548" lon="12.383709404100692"><ele>81.0</ele><time>2026-04-11T09:30:06Z</time></trkpt><trkpt lat="44.03638245973795" lon="12.383755976613477"><ele>81.0</ele><time>2026-04-11T09:30:09Z</time></trkpt><trkpt lat="44.036444317651736" lon="12.383799193462464"><ele>81.0</ele><time>2026-04-11T09:30:12Z</time></trkpt><trkpt lat="44.03649264922817" lon="12.383860912738339"><ele>81.0</ele><time>2026-04-11T09:30:15Z</time></trkpt><trkpt lat="44.036546505862546" lon="12.38392616462433"><ele>81.0</ele><time>2026-04-11T09:30:18Z</time></trkpt><trkpt lat="44.03660382624387" lon="12.383986734588605"><ele>83.71428571428572</ele><time>2026-04-11T09:30:21Z</time></trkpt><trkpt lat="44.036646459292356" lon="12.384053621330613"><ele>86.42857142857143</ele><time>2026-04-11T09:30:24Z</time></trkpt><trkpt lat="44.0366984559868" lon="12.384122713685832"><ele>89.14285714285714</ele><time>2026-04-11T09:30:29Z</time></trkpt><trkpt lat="44.03674131511834" lon="12.384197362399568"><ele>91.85714285714286</ele><time>2026-04-11T09:30:45Z</time></trkpt><trkpt lat="44.0367653238285" lon="12.384283123528888"><ele>94.57142857142857</ele><time>2026-04-11T09:30:49Z</time></trkpt><trkpt lat="44.03674581766547" lon="12.384387974920832"><ele>97.28571428571429</ele><time>2026-04-11T09:30:53Z</time></trkpt><trkpt lat="44.03674991750633" lon="12.384480875142481"><ele>100.0</ele><time>2026-04-11T09:30:57Z</time></trkpt><trkpt lat="44.036739524787606" lon="12.38457800189546"><ele>100.00000000000001</ele><time>2026-04-11T09:31:01Z</time></trkpt><trkpt lat="44.03670575601941" lon="12.384676222036598"><ele>100.0</ele><time>2026-04-11T09:31:05Z</time></trkpt><trkpt lat="44.03669206896017" lon="12.384768848833483"><ele>100.0</ele><time>2026-04-11T09:31:10Z</time></trkpt><trkpt lat="44.03665590988136" lon="12.384861962003411"><ele>100.0</ele><time>2026-04-11T09:31:21Z</time></trkpt><trkpt lat="44.03660160456899" lon="12.384924515844133"><ele>100.0</ele><time>2026-04-11T09:31:24.001Z</time></trkpt><trkpt lat="44.03654073634465" lon="12.384985586145133"><ele>100.00000000000001</ele><time>2026-04-11T09:31:28.001Z</time></trkpt><trkpt lat="44.03649299525354" lon="12.385062905185203"><ele>100.0</ele><time>2026-04-11T09:31:31Z</time></trkpt><trkpt lat="44.03642514862138" lon="12.38509311152912"><ele>99.66666666666667</ele><time>2026-04-11T09:31:33Z</time></trkpt><trkpt lat="44.036383598933035" lon="12.385207001441788"><ele>99.33333333333334</ele><time>2026-04-11T09:31:37Z</time></trkpt><trkpt lat="44.03635558794666" lon="12.385300193406195"><ele>99.0</ele><time>2026-04-11T09:31:40Z</time></trkpt><trkpt lat="44.036376581274595" lon="12.385390830262404"><ele>98.66666666666666</ele><time>2026-04-11T09:31:43Z</time></trkpt><trkpt lat="44.03640477304215" lon="12.385489928740618"><ele>98.33333333333333</ele><time>2026-04-11T09:31:47Z</time></trkpt><trkpt lat="44.036451962122484" lon="12.38556289052758"><ele>98.0</ele><time>2026-04-11T09:31:51Z</time></trkpt><trkpt lat="44.03651448311385" lon="12.385615035166598"><ele>97.99999999999999</ele><time>2026-04-11T09:31:56Z</time></trkpt><trkpt lat="44.03658296146812" lon="12.385642888822902"><ele>98.0</ele><time>2026-04-11T09:32:00Z</time></trkpt><trkpt lat="44.03664970043099" lon="12.385711929854292"><ele>98.0</ele><time>2026-04-11T09:32:05Z</time></trkpt><trkpt lat="44.03670062736665" lon="12.3857643667959"><ele>98.0</ele><time>2026-04-11T09:32:09Z</time></trkpt><trkpt lat="44.036753609476456" lon="12.385825541040294"><ele>97.99999999999999</ele><time>2026-04-11T09:32:14Z</time></trkpt><trkpt lat="44.03681273410784" lon="12.385876707542964"><ele>98.0</ele><time>2026-04-11T09:32:19Z</time></trkpt><trkpt lat="44.036923824942015" lon="12.38596148208246"><ele>101.28571428571428</ele><time>2026-04-11T09:32:50Z</time></trkpt><trkpt lat="44.036986002982786" lon="12.38600516355201"><ele>104.57142857142857</ele><time>2026-04-11T09:32:54Z</time></trkpt><trkpt lat="44.03704951169897" lon="12.38603718592313"><ele>107.85714285714286</ele><time>2026-04-11T09:32:58Z</time></trkpt><trkpt lat="44.03711767875348" lon="12.386012571246708"><ele>111.14285714285714</ele><time>2026-04-11T09:33:02Z</time></trkpt><trkpt lat="44.037175165081976" lon="12.38595297037776"><ele>114.42857142857142</ele><time>2026-04-11T09:33:06Z</time></trkpt><trkpt lat="44.03722086640483" lon="12.385878636220378"><ele>117.71428571428571</ele><time>2026-04-11T09:33:10.001Z</time></trkpt><trkpt lat="44.03726424066453" lon="12.38580886385835"><ele>121.0</ele><time>2026-04-11T09:33:14.001Z</time></trkpt><trkpt lat="44.03732688397146" lon="12.385738096118738"><ele>121.0</ele><time>2026-04-11T09:33:19.001Z</time></trkpt><trkpt lat="44.03737931365576" lon="12.385674788969258"><ele>120.99999999999999</ele><time>2026-04-11T09:33:23.001Z</time></trkpt><trkpt lat="44.0374334607828" lon="12.385608218203217"><ele>121.0</ele><time>2026-04-11T09:33:28.001Z</time></trkpt><trkpt lat="44.03748967409087" lon="12.385542483046603"><ele>121.0</ele><time>2026-04-11T09:33:33.001Z</time></trkpt><trkpt lat="44.037543280799675" lon="12.385485325607078"><ele>120.99999999999999</ele><time>2026-04-11T09:33:37Z</time></trkpt><trkpt lat="44.03759751450588" lon="12.385431960771255"><ele>121.0</ele><time>2026-04-11T09:33:41Z</time></trkpt><trkpt lat="44.03764971852243" lon="12.38536603918674"><ele>121.0</ele><time>2026-04-11T09:33:45Z</time></trkpt><trkpt lat="44.037693213369074" lon="12.38529608940074"><ele>122.42857142857142</ele><time>2026-04-11T09:33:49Z</time></trkpt><trkpt lat="44.03774701032269" lon="12.38524238969733"><ele>123.85714285714285</ele><time>2026-04-11T09:33:53Z</time></trkpt><trkpt lat="44.0378081388123" lon="12.385178526035073"><ele>125.28571428571428</ele><time>2026-04-11T09:33:58Z</time></trkpt><trkpt lat="44.03786121636429" lon="12.385101864866405"><ele>126.71428571428572</ele><time>2026-04-11T09:34:02Z</time></trkpt><trkpt lat="44.037920862286185" lon="12.385034508864102"><ele>128.14285714285717</ele><time>2026-04-11T09:34:06Z</time></trkpt><trkpt lat="44.03797381027388" lon="12.384977180434056"><ele>129.57142857142858</ele><time>2026-04-11T09:34:10Z</time></trkpt><trkpt lat="44.03803310248884" lon="12.384926106702132"><ele>131.0</ele><time>2026-04-11T09:34:14Z</time></trkpt><trkpt lat="44.038093913241404" lon="12.38485262334687"><ele>131.0</ele><time>2026-04-11T09:34:18Z</time></trkpt><trkpt lat="44.03815557041683" lon="12.384782367444897"><ele>131.0</ele><time>2026-04-11T09:34:22Z</time></trkpt><trkpt lat="44.038210100803006" lon="12.384708909446385"><ele>131.0</ele><time>2026-04-11T09:34:26Z</time></trkpt><trkpt lat="44.03826162147836" lon="12.384649047027033"><ele>131.0</ele><time>2026-04-11T09:34:29Z</time></trkpt><trkpt lat="44.03832301404704" lon="12.384580496112331"><ele>131.0</ele><time>2026-04-11T09:34:33Z</time></trkpt><trkpt lat="44.038382006206895" lon="12.384525496274597"><ele>131.0</ele><time>2026-04-11T09:34:37Z</time></trkpt><trkpt lat="44.0384353518205" lon="12.384443911186438"><ele>132.85714285714286</ele><time>2026-04-11T09:34:41Z</time></trkpt><trkpt lat="44.038484375999516" lon="12.384353744419672"><ele>134.71428571428572</ele><time>2026-04-11T09:34:45Z</time></trkpt><trkpt lat="44.03851472381119" lon="12.384267513799053"><ele>136.57142857142858</ele><time>2026-04-11T09:34:49Z</time></trkpt><trkpt lat="44.03853068575732" lon="12.384181074131758"><ele>138.42857142857144</ele><time>2026-04-11T09:34:52Z</time></trkpt><trkpt lat="44.03854382734982" lon="12.384086846214213"><ele>140.28571428571428</ele><time>2026-04-11T09:34:55Z</time></trkpt><trkpt lat="44.03855517977877" lon="12.383997008017115"><ele>142.14285714285717</ele><time>2026-04-11T09:34:58Z</time></trkpt><trkpt lat="44.038601706900465" lon="12.383903966070717"><ele>144.0</ele><time>2026-04-11T09:35:02Z</time></trkpt><trkpt lat="44.03865403454975" lon="12.38383130579326"><ele>144.00000000000003</ele><time>2026-04-11T09:35:06Z</time></trkpt><trkpt lat="44.03871710959624" lon="12.38376900435515"><ele>144.0</ele><time>2026-04-11T09:35:10Z</time></trkpt><trkpt lat="44.038770258193374" lon="12.383714656495963"><ele>144.0</ele><time>2026-04-11T09:35:14.001Z</time></trkpt><trkpt lat="44.038824100402216" lon="12.38364601254355"><ele>144.0</ele><time>2026-04-11T09:35:18.001Z</time></trkpt><trkpt lat="44.038888310152714" lon="12.383612679559517"><ele>144.0</ele><time>2026-04-11T09:35:22.001Z</time></trkpt><trkpt lat="44.038949629054024" lon="12.383557229203436"><ele>144.00000000000003</ele><time>2026-04-11T09:35:26.001Z</time></trkpt><trkpt lat="44.039022450701594" lon="12.383521526653338"><ele>144.0</ele><time>2026-04-11T09:35:30.001Z</time></trkpt><trkpt lat="44.039093854539196" lon="12.3835067985578"><ele>146.16666666666666</ele><time>2026-04-11T09:35:33.001Z</time></trkpt><trkpt lat="44.039175254172115" lon="12.383526103785284"><ele>148.33333333333334</ele><time>2026-04-11T09:35:36.001Z</time></trkpt><trkpt lat="44.03928100125413" lon="12.383579534033181"><ele>150.5</ele><time>2026-04-11T09:35:39.001Z</time></trkpt><trkpt lat="44.03935535816131" lon="12.38359762964562"><ele>152.66666666666669</ele><time>2026-04-11T09:35:41.999Z</time></trkpt><trkpt lat="44.039420178574744" lon="12.383608217040337"><ele>154.83333333333334</ele><time>2026-04-11T09:35:44.999Z</time></trkpt><trkpt lat="44.03951926790169" lon="12.38360957939642"><ele>157.0</ele><time>2026-04-11T09:35:48Z</time></trkpt><trkpt lat="44.039588199037" lon="12.383646096453695"><ele>156.99999999999997</ele><time>2026-04-11T09:35:51Z</time></trkpt><trkpt lat="44.039658596834755" lon="12.383659153118543"><ele>157.0</ele><time>2026-04-11T09:35:54Z</time></trkpt><trkpt lat="44.03973970587969" lon="12.38369078199794"><ele>157.0</ele><time>2026-04-11T09:35:58Z</time></trkpt><trkpt lat="44.03981620608252" lon="12.383701490799352"><ele>157.0</ele><time>2026-04-11T09:36:02Z</time></trkpt><trkpt lat="44.03988787416481" lon="12.383718703595328"><ele>157.0</ele><time>2026-04-11T09:36:06Z</time></trkpt><trkpt lat="44.03995248496576" lon="12.383753280388758"><ele>156.99999999999997</ele><time>2026-04-11T09:36:10Z</time></trkpt><trkpt lat="44.04002304580721" lon="12.383786906004426"><ele>157.0</ele><time>2026-04-11T09:36:14Z</time></trkpt><trkpt lat="44.040091241724504" lon="12.38382712932213"><ele>158.42857142857142</ele><time>2026-04-11T09:36:18Z</time></trkpt><trkpt lat="44.04016125244997" lon="12.38385605566923"><ele>159.85714285714286</ele><time>2026-04-11T09:36:22Z</time></trkpt><trkpt lat="44.04023040874111" lon="12.383886664021997"><ele>161.28571428571428</ele><time>2026-04-11T09:36:26Z</time></trkpt><trkpt lat="44.04029746660272" lon="12.3839148108228"><ele>162.71428571428572</ele><time>2026-04-11T09:36:30Z</time></trkpt><trkpt lat="44.04037204997822" lon="12.383954679734416"><ele>164.14285714285714</ele><time>2026-04-11T09:36:35Z</time></trkpt><trkpt lat="44.040437062845086" lon="12.383996147971256"><ele>165.57142857142856</ele><time>2026-04-11T09:36:39Z</time></trkpt><trkpt lat="44.04050479504193" lon="12.384019875141233"><ele>167.0</ele><time>2026-04-11T09:36:43Z</time></trkpt><trkpt lat="44.040585865627605" lon="12.384058824483834"><ele>167.0</ele><time>2026-04-11T09:36:47Z</time></trkpt><trkpt lat="44.04066701427234" lon="12.384095486041602"><ele>167.0</ele><time>2026-04-11T09:36:50Z</time></trkpt><trkpt lat="44.04071577535227" lon="12.38415154111544"><ele>167.0</ele><time>2026-04-11T09:36:52Z</time></trkpt><trkpt lat="44.0407819166931" lon="12.384245733372747"><ele>167.0</ele><time>2026-04-11T09:36:55Z</time></trkpt><trkpt lat="44.040831188974686" lon="12.38432878562308"><ele>167.0</ele><time>2026-04-11T09:36:57Z</time></trkpt><trkpt lat="44.04089088267103" lon="12.384431028961039"><ele>167.0</ele><time>2026-04-11T09:36:59Z</time></trkpt><trkpt lat="44.040951504287975" lon="12.384525397795652"><ele>166.83333333333331</ele><time>2026-04-11T09:37:01Z</time></trkpt><trkpt lat="44.041014394389734" lon="12.384623463631016"><ele>166.66666666666666</ele><time>2026-04-11T09:37:03Z</time></trkpt><trkpt lat="44.04107116994715" lon="12.384706732940632"><ele>166.5</ele><time>2026-04-11T09:37:05Z</time></trkpt><trkpt lat="44.04111571646576" lon="12.384784562439322"><ele>166.33333333333334</ele><time>2026-04-11T09:37:07Z</time></trkpt><trkpt lat="44.04115670491822" lon="12.384855035508135"><ele>166.16666666666669</ele><time>2026-04-11T09:37:09Z</time></trkpt><trkpt lat="44.04119771172825" lon="12.384925607403972"><ele>166.0</ele><time>2026-04-11T09:37:11Z</time></trkpt><trkpt lat="44.04125189984205" lon="12.385020761700984"><ele>166.0</ele><time>2026-04-11T09:37:14.001Z</time></trkpt><trkpt lat="44.0413053302634" lon="12.385122164682414"><ele>166.0</ele><time>2026-04-11T09:37:17.001Z</time></trkpt><trkpt lat="44.041346617604844" lon="12.385191757419676"><ele>166.0</ele><time>2026-04-11T09:37:19.001Z</time></trkpt><trkpt lat="44.04139325121393" lon="12.385286105945069"><ele>166.0</ele><time>2026-04-11T09:37:21.001Z</time></trkpt><trkpt lat="44.041423757502756" lon="12.385450099075326"><ele>166.0</ele><time>2026-04-11T09:37:23.001Z</time></trkpt><trkpt lat="44.0414403846615" lon="12.385545873549404"><ele>166.0</ele><time>2026-04-11T09:37:24.001Z</time></trkpt><trkpt lat="44.04145896836629" lon="12.385635247887782"><ele>164.5</ele><time>2026-04-11T09:37:25.001Z</time></trkpt><trkpt lat="44.041486841607174" lon="12.385737989318558"><ele>163.0</ele><time>2026-04-11T09:37:26.001Z</time></trkpt><trkpt lat="44.04150575611741" lon="12.38585225250615"><ele>161.5</ele><time>2026-04-11T09:37:27.001Z</time></trkpt><trkpt lat="44.04152456225159" lon="12.385970428454195"><ele>160.0</ele><time>2026-04-11T09:37:28.001Z</time></trkpt><trkpt lat="44.04155103392297" lon="12.386079796906614"><ele>158.5</ele><time>2026-04-11T09:37:29.001Z</time></trkpt><trkpt lat="44.04157765152871" lon="12.386202444736114"><ele>157.0</ele><time>2026-04-11T09:37:30.001Z</time></trkpt><trkpt lat="44.04160541156584" lon="12.386336838723407"><ele>157.33333333333334</ele><time>2026-04-11T09:37:31.001Z</time></trkpt><trkpt lat="44.04163301490525" lon="12.38646523684199"><ele>157.66666666666669</ele><time>2026-04-11T09:37:32.001Z</time></trkpt><trkpt lat="44.04166013308932" lon="12.386585640547866"><ele>158.0</ele><time>2026-04-11T09:37:33.001Z</time></trkpt><trkpt lat="44.04168389648997" lon="12.38669022107907"><ele>158.33333333333334</ele><time>2026-04-11T09:37:34.001Z</time></trkpt><trkpt lat="44.04170350709251" lon="12.386795904082057"><ele>158.66666666666666</ele><time>2026-04-11T09:37:35.001Z</time></trkpt><trkpt lat="44.041728062749605" lon="12.386901822181738"><ele>159.0</ele><time>2026-04-11T09:37:36.001Z</time></trkpt><trkpt lat="44.04175935108039" lon="12.386994023806317"><ele>159.0</ele><time>2026-04-11T09:37:37.001Z</time></trkpt><trkpt lat="44.0417914509458" lon="12.387094651146203"><ele>159.0</ele><time>2026-04-11T09:37:38.001Z</time></trkpt><trkpt lat="44.041808878259296" lon="12.387207575980511"><ele>159.0</ele><time>2026-04-11T09:37:39.001Z</time></trkpt><trkpt lat="44.04182327462327" lon="12.387319855951844"><ele>159.0</ele><time>2026-04-11T09:37:40.001Z</time></trkpt><trkpt lat="44.04183639995656" lon="12.38742896975937"><ele>159.0</ele><time>2026-04-11T09:37:41.001Z</time></trkpt><trkpt lat="44.041855095260225" lon="12.387524328125311"><ele>159.0</ele><time>2026-04-11T09:37:42.001Z</time></trkpt><trkpt lat="44.04188252223107" lon="12.387681316800707"><ele>158.4</ele><time>2026-04-11T09:37:44.001Z</time></trkpt><trkpt lat="44.041854825930635" lon="12.387821345470751"><ele>157.8</ele><time>2026-04-11T09:37:46.001Z</time></trkpt><trkpt lat="44.0417414165809" lon="12.387902715746561"><ele>157.2</ele><time>2026-04-11T09:37:48Z</time></trkpt><trkpt lat="44.04167216298256" lon="12.387936586450879"><ele>156.6</ele><time>2026-04-11T09:37:49Z</time></trkpt><trkpt lat="44.04160131001131" lon="12.387966430321564"><ele>156.0</ele><time>2026-04-11T09:37:50Z</time></trkpt><trkpt lat="44.04151140131069" lon="12.38802685146227"><ele>153.0</ele><time>2026-04-11T09:37:52Z</time></trkpt><trkpt lat="44.04138041529744" lon="12.388090104636728"><ele>150.0</ele><time>2026-04-11T09:37:54Z</time></trkpt><trkpt lat="44.04130437953356" lon="12.388135696979969"><ele>147.0</ele><time>2026-04-11T09:37:55Z</time></trkpt><trkpt lat="44.0412205990518" lon="12.3881795057336"><ele>144.0</ele><time>2026-04-11T09:37:56Z</time></trkpt><trkpt lat="44.041137772687485" lon="12.388217809112193"><ele>141.0</ele><time>2026-04-11T09:37:57Z</time></trkpt><trkpt lat="44.04106347297563" lon="12.388255348788768"><ele>141.0</ele><time>2026-04-11T09:37:58Z</time></trkpt><trkpt lat="44.040961269508315" lon="12.388305652218753"><ele>141.0</ele><time>2026-04-11T09:38:00Z</time></trkpt><trkpt lat="44.04089201329695" lon="12.388357472483246"><ele>141.0</ele><time>2026-04-11T09:38:03Z</time></trkpt><trkpt lat="44.040878512552254" lon="12.388472957972112"><ele>141.0</ele><time>2026-04-11T09:38:05Z</time></trkpt><trkpt lat="44.04090344789442" lon="12.388567586278443"><ele>141.0</ele><time>2026-04-11T09:38:07Z</time></trkpt><trkpt lat="44.040914547785455" lon="12.388688745839415"><ele>141.0</ele><time>2026-04-11T09:38:43Z</time></trkpt><trkpt lat="44.040928734014614" lon="12.388805375794458"><ele>140.33333333333334</ele><time>2026-04-11T09:38:45Z</time></trkpt><trkpt lat="44.04096676718108" lon="12.38894525017048"><ele>139.66666666666666</ele><time>2026-04-11T09:38:47Z</time></trkpt><trkpt lat="44.04098969185168" lon="12.389037804727181"><ele>139.0</ele><time>2026-04-11T09:38:48Z</time></trkpt><trkpt lat="44.04101674518913" lon="12.389128506921345"><ele>138.33333333333331</ele><time>2026-04-11T09:38:49Z</time></trkpt><trkpt lat="44.0410522484665" lon="12.389210445012264"><ele>137.66666666666666</ele><time>2026-04-11T09:38:50Z</time></trkpt><trkpt lat="44.04110437654072" lon="12.389307653196202"><ele>137.0</ele><time>2026-04-11T09:38:51Z</time></trkpt><trkpt lat="44.04117427257031" lon="12.389396778063528"><ele>137.0</ele><time>2026-04-11T09:38:52Z</time></trkpt><trkpt lat="44.041244714058706" lon="12.389482942129602"><ele>137.0</ele><time>2026-04-11T09:38:53Z</time></trkpt><trkpt lat="44.04132433679567" lon="12.389563007019202"><ele>137.0</ele><time>2026-04-11T09:38:54Z</time></trkpt><trkpt lat="44.04140056198341" lon="12.389645793395099"><ele>137.0</ele><time>2026-04-11T09:38:55Z</time></trkpt><trkpt lat="44.041473739977214" lon="12.389734177971214"><ele>137.0</ele><time>2026-04-11T09:38:56Z</time></trkpt><trkpt lat="44.04153683735069" lon="12.389830497120336"><ele>135.0</ele><time>2026-04-11T09:38:57Z</time></trkpt><trkpt lat="44.04158152537947" lon="12.389933720000338"><ele>133.0</ele><time>2026-04-11T09:38:58Z</time></trkpt><trkpt lat="44.041621333995785" lon="12.390037805318254"><ele>131.0</ele><time>2026-04-11T09:38:59Z</time></trkpt><trkpt lat="44.041628154889246" lon="12.39015321398731"><ele>129.0</ele><time>2026-04-11T09:39:00Z</time></trkpt><trkpt lat="44.041612403912595" lon="12.39027130220936"><ele>126.99999999999999</ele><time>2026-04-11T09:39:01Z</time></trkpt><trkpt lat="44.04158492514086" lon="12.390375877841395"><ele>125.0</ele><time>2026-04-11T09:39:02Z</time></trkpt><trkpt lat="44.04154911960573" lon="12.390474487700407"><ele>124.57142857142857</ele><time>2026-04-11T09:39:03.001Z</time></trkpt><trkpt lat="44.04151283438543" lon="12.39056349913871"><ele>124.14285714285714</ele><time>2026-04-11T09:39:04.001Z</time></trkpt><trkpt lat="44.041483412721455" lon="12.390658033861392"><ele>123.71428571428571</ele><time>2026-04-11T09:39:05.001Z</time></trkpt><trkpt lat="44.04144368762443" lon="12.390758764895175"><ele>123.28571428571428</ele><time>2026-04-11T09:39:06.001Z</time></trkpt><trkpt lat="44.04139966610475" lon="12.390829218919917"><ele>122.85714285714286</ele><time>2026-04-11T09:39:07.001Z</time></trkpt><trkpt lat="44.04134453506221" lon="12.39090417491392"><ele>122.42857142857142</ele><time>2026-04-11T09:39:08.001Z</time></trkpt><trkpt lat="44.041292817598176" lon="12.39097373016103"><ele>121.99999999999999</ele><time>2026-04-11T09:39:09.001Z</time></trkpt><trkpt lat="44.041209958610324" lon="12.391042243979596"><ele>122.0</ele><time>2026-04-11T09:39:10.001Z</time></trkpt><trkpt lat="44.041135649909464" lon="12.39112117329724"><ele>121.99999999999999</ele><time>2026-04-11T09:39:11.001Z</time></trkpt><trkpt lat="44.041042240040674" lon="12.39116872073518"><ele>121.99999999999999</ele><time>2026-04-11T09:39:12.001Z</time></trkpt><trkpt lat="44.04094541182269" lon="12.391220668981049"><ele>122.0</ele><time>2026-04-11T09:39:13.001Z</time></trkpt><trkpt lat="44.040844926708786" lon="12.391283099824317"><ele>122.0</ele><time>2026-04-11T09:39:14.001Z</time></trkpt><trkpt lat="44.040751003084004" lon="12.391345752816354"><ele>120.19999999999999</ele><time>2026-04-11T09:39:15.001Z</time></trkpt><trkpt lat="44.04065498698089" lon="12.391413538924338"><ele>118.39999999999999</ele><time>2026-04-11T09:39:16.001Z</time></trkpt><trkpt lat="44.04056554632672" lon="12.391491910106064"><ele>116.60000000000001</ele><time>2026-04-11T09:39:17.001Z</time></trkpt><trkpt lat="44.04048630036159" lon="12.391580988363373"><ele>114.80000000000001</ele><time>2026-04-11T09:39:18.001Z</time></trkpt><trkpt lat="44.0404019166589" lon="12.391660354290225"><ele>113.0</ele><time>2026-04-11T09:39:19.001Z</time></trkpt><trkpt lat="44.0403030073749" lon="12.391741332286943"><ele>113.0</ele><time>2026-04-11T09:39:20.001Z</time></trkpt><trkpt lat="44.0401983924762" lon="12.39180381690773"><ele>113.00000000000001</ele><time>2026-04-11T09:39:21.001Z</time></trkpt><trkpt lat="44.04009033611682" lon="12.391852463917104"><ele>113.00000000000001</ele><time>2026-04-11T09:39:22.001Z</time></trkpt><trkpt lat="44.039984910332734" lon="12.39190220587514"><ele>113.0</ele><time>2026-04-11T09:39:23.001Z</time></trkpt><trkpt lat="44.03988000107755" lon="12.391940965042592"><ele>113.0</ele><time>2026-04-11T09:39:24.001Z</time></trkpt><trkpt lat="44.03977967733803" lon="12.391974811975778"><ele>110.4</ele><time>2026-04-11T09:39:25.001Z</time></trkpt><trkpt lat="44.039686441139295" lon="12.392022209752598"><ele>107.80000000000001</ele><time>2026-04-11T09:39:26.001Z</time></trkpt><trkpt lat="44.039596568585566" lon="12.392074256626538"><ele>105.2</ele><time>2026-04-11T09:39:27.001Z</time></trkpt><trkpt lat="44.039511329933156" lon="12.392134887616168"><ele>102.6</ele><time>2026-04-11T09:39:28.001Z</time></trkpt><trkpt lat="44.039439191904584" lon="12.392201997331949"><ele>100.0</ele><time>2026-04-11T09:39:29.001Z</time></trkpt><trkpt lat="44.03937586560885" lon="12.392262394759047"><ele>99.4</ele><time>2026-04-11T09:39:30.001Z</time></trkpt><trkpt lat="44.03931717857912" lon="12.392321706530211"><ele>98.8</ele><time>2026-04-11T09:39:31.001Z</time></trkpt><trkpt lat="44.03925854027312" lon="12.392395759413105"><ele>98.19999999999999</ele><time>2026-04-11T09:39:32.001Z</time></trkpt><trkpt lat="44.03919818758364" lon="12.392486878667412"><ele>97.6</ele><time>2026-04-11T09:39:33.001Z</time></trkpt><trkpt lat="44.03913959928897" lon="12.392605236017694"><ele>97.0</ele><time>2026-04-11T09:39:34.001Z</time></trkpt><trkpt lat="44.03909294690945" lon="12.392740783249392"><ele>95.16666666666667</ele><time>2026-04-11T09:39:35.001Z</time></trkpt><trkpt lat="44.039057633477796" lon="12.392861163863673"><ele>93.33333333333334</ele><time>2026-04-11T09:39:36.001Z</time></trkpt><trkpt lat="44.039022161481185" lon="12.392966832620393"><ele>91.5</ele><time>2026-04-11T09:39:37.001Z</time></trkpt><trkpt lat="44.03898403472609" lon="12.393077284929486"><ele>89.66666666666667</ele><time>2026-04-11T09:39:38.001Z</time></trkpt><trkpt lat="44.03894384086543" lon="12.393173530467841"><ele>87.83333333333334</ele><time>2026-04-11T09:39:39.001Z</time></trkpt><trkpt lat="44.03888657774947" lon="12.393267252028108"><ele>86.0</ele><time>2026-04-11T09:39:40.001Z</time></trkpt><trkpt lat="44.03880805687293" lon="12.393358065401614"><ele>85.0</ele><time>2026-04-11T09:39:41.001Z</time></trkpt><trkpt lat="44.03871812533317" lon="12.393440041921"><ele>84.0</ele><time>2026-04-11T09:39:42.001Z</time></trkpt><trkpt lat="44.03863185345089" lon="12.393528653317002"><ele>83.0</ele><time>2026-04-11T09:39:43.001Z</time></trkpt><trkpt lat="44.03853922926849" lon="12.393615565443865"><ele>82.0</ele><time>2026-04-11T09:39:44.001Z</time></trkpt><trkpt lat="44.03844266059596" lon="12.393708784216358"><ele>81.0</ele><time>2026-04-11T09:39:45.001Z</time></trkpt><trkpt lat="44.03834943395112" lon="12.393798826772867"><ele>79.0</ele><time>2026-04-11T09:39:46.001Z</time></trkpt><trkpt lat="44.038259725219916" lon="12.393885072142943"><ele>77.0</ele><time>2026-04-11T09:39:47.001Z</time></trkpt><trkpt lat="44.03818660744088" lon="12.393959336685656"><ele>75.0</ele><time>2026-04-11T09:39:48.001Z</time></trkpt><trkpt lat="44.0381226653734" lon="12.39402156679624"><ele>73.0</ele><time>2026-04-11T09:39:49.001Z</time></trkpt><trkpt lat="44.038067268664214" lon="12.394105613163468"><ele>71.0</ele><time>2026-04-11T09:39:50.001Z</time></trkpt><trkpt lat="44.03803016754546" lon="12.394196738503254"><ele>69.0</ele><time>2026-04-11T09:39:51.001Z</time></trkpt><trkpt lat="44.03801339326596" lon="12.394294677729"><ele>69.0</ele><time>2026-04-11T09:39:52.001Z</time></trkpt><trkpt lat="44.03801566694821" lon="12.394408724611015"><ele>69.0</ele><time>2026-04-11T09:39:53Z</time></trkpt><trkpt lat="44.03803933462558" lon="12.394525283185162"><ele>69.0</ele><time>2026-04-11T09:39:54Z</time></trkpt><trkpt lat="44.03808769688543" lon="12.39463946438423"><ele>69.0</ele><time>2026-04-11T09:39:55Z</time></trkpt><trkpt lat="44.038146143259404" lon="12.3947420591294"><ele>69.0</ele><time>2026-04-11T09:39:56Z</time></trkpt><trkpt lat="44.038209528591665" lon="12.394846860296413"><ele>69.0</ele><time>2026-04-11T09:39:57Z</time></trkpt><trkpt lat="44.03825828662265" lon="12.394952187189983"><ele>69.0</ele><time>2026-04-11T09:39:58Z</time></trkpt><trkpt lat="44.03830988245341" lon="12.395069038368497"><ele>69.0</ele><time>2026-04-11T09:39:59Z</time></trkpt><trkpt lat="44.0383477750548" lon="12.395182124076975"><ele>69.0</ele><time>2026-04-11T09:40:00Z</time></trkpt><trkpt lat="44.038391751120045" lon="12.395284676527313"><ele>69.0</ele><time>2026-04-11T09:40:01Z</time></trkpt><trkpt lat="44.0384262163407" lon="12.395391579184185"><ele>69.0</ele><time>2026-04-11T09:40:02Z</time></trkpt><trkpt lat="44.038445609360764" lon="12.395520206236048"><ele>67.83333333333333</ele><time>2026-04-11T09:40:03Z</time></trkpt><trkpt lat="44.03844620557899" lon="12.395657231078742"><ele>66.66666666666667</ele><time>2026-04-11T09:40:04Z</time></trkpt><trkpt lat="44.038432723051805" lon="12.39576944836153"><ele>65.5</ele><time>2026-04-11T09:40:05Z</time></trkpt><trkpt lat="44.03840579486153" lon="12.395886931628832"><ele>64.33333333333334</ele><time>2026-04-11T09:40:07Z</time></trkpt><trkpt lat="44.038378260748125" lon="12.395985199860366"><ele>63.16666666666667</ele><time>2026-04-11T09:40:10Z</time></trkpt><trkpt lat="44.03838005534242" lon="12.39610449213524"><ele>62.0</ele><time>2026-04-11T09:40:23Z</time></trkpt><trkpt lat="44.038431945478266" lon="12.396171974699213"><ele>62.0</ele><time>2026-04-11T09:40:25Z</time></trkpt><trkpt lat="44.03852290422574" lon="12.396252391921418"><ele>62.0</ele><time>2026-04-11T09:40:28Z</time></trkpt><trkpt lat="44.03859468993995" lon="12.396318541401037"><ele>62.0</ele><time>2026-04-11T09:40:30Z</time></trkpt><trkpt lat="44.03866745746681" lon="12.396381219947969"><ele>62.0</ele><time>2026-04-11T09:40:32Z</time></trkpt><trkpt lat="44.038739668645405" lon="12.396444689603317"><ele>62.0</ele><time>2026-04-11T09:40:34Z</time></trkpt><trkpt lat="44.03882111282668" lon="12.396518378578891"><ele>61.833333333333336</ele><time>2026-04-11T09:40:36Z</time></trkpt><trkpt lat="44.038884173172065" lon="12.396579543625108"><ele>61.66666666666667</ele><time>2026-04-11T09:40:38Z</time></trkpt><trkpt lat="44.03894983594501" lon="12.396638883198936"><ele>61.5</ele><time>2026-04-11T09:40:40Z</time></trkpt><trkpt lat="44.039019642761104" lon="12.396698300229797"><ele>61.33333333333333</ele><time>2026-04-11T09:40:42Z</time></trkpt><trkpt lat="44.03909750454749" lon="12.396764782651541"><ele>61.166666666666664</ele><time>2026-04-11T09:40:44Z</time></trkpt><trkpt lat="44.0391778330994" lon="12.396837672541713"><ele>61.0</ele><time>2026-04-11T09:40:46Z</time></trkpt><trkpt lat="44.03925945887744" lon="12.39691504797685"><ele>61.0</ele><time>2026-04-11T09:40:48.001Z</time></trkpt><trkpt lat="44.0393454213874" lon="12.396989129023183"><ele>60.99999999999999</ele><time>2026-04-11T09:40:50.001Z</time></trkpt><trkpt lat="44.0394380353016" lon="12.397066824456425"><ele>60.99999999999999</ele><time>2026-04-11T09:40:52.001Z</time></trkpt><trkpt lat="44.03952465585863" lon="12.397149196289924"><ele>61.0</ele><time>2026-04-11T09:40:54.001Z</time></trkpt><trkpt lat="44.039612467426316" lon="12.397235888957674"><ele>61.0</ele><time>2026-04-11T09:40:56.001Z</time></trkpt><trkpt lat="44.03969916300876" lon="12.397324801695788"><ele>61.199999999999996</ele><time>2026-04-11T09:40:58.001Z</time></trkpt><trkpt lat="44.03977737096759" lon="12.397418264994936"><ele>61.39999999999999</ele><time>2026-04-11T09:41:00.001Z</time></trkpt><trkpt lat="44.03985757910312" lon="12.397520999163705"><ele>61.6</ele><time>2026-04-11T09:41:02.001Z</time></trkpt><trkpt lat="44.03993728486331" lon="12.397624647559297"><ele>61.8</ele><time>2026-04-11T09:41:04.001Z</time></trkpt><trkpt lat="44.04001452483857" lon="12.397737660951737"><ele>62.0</ele><time>2026-04-11T09:41:06.001Z</time></trkpt><trkpt lat="44.040089226258715" lon="12.397861764746764"><ele>62.0</ele><time>2026-04-11T09:41:08.001Z</time></trkpt><trkpt lat="44.040160522009955" lon="12.397992802626021"><ele>62.0</ele><time>2026-04-11T09:41:10.001Z</time></trkpt><trkpt lat="44.040201123799946" lon="12.398064849568279"><ele>62.0</ele><time>2026-04-11T09:41:11.001Z</time></trkpt><trkpt lat="44.04026737320337" lon="12.39820428112966"><ele>62.0</ele><time>2026-04-11T09:41:13.001Z</time></trkpt><trkpt lat="44.04032838718265" lon="12.398348776703575"><ele>62.0</ele><time>2026-04-11T09:41:15.001Z</time></trkpt><trkpt lat="44.04036087487819" lon="12.398424268225767"><ele>61.50000000000001</ele><time>2026-04-11T09:41:16.001Z</time></trkpt><trkpt lat="44.04039704377701" lon="12.398500068511957"><ele>61.0</ele><time>2026-04-11T09:41:17.001Z</time></trkpt><trkpt lat="44.04042055613774" lon="12.398584368826622"><ele>60.5</ele><time>2026-04-11T09:41:18.001Z</time></trkpt><trkpt lat="44.04045777998656" lon="12.398663703505509"><ele>60.0</ele><time>2026-04-11T09:41:19.001Z</time></trkpt><trkpt lat="44.040499137472914" lon="12.398738700653743"><ele>59.50000000000001</ele><time>2026-04-11T09:41:20.001Z</time></trkpt><trkpt lat="44.04054078230769" lon="12.398813660359915"><ele>59.0</ele><time>2026-04-11T09:41:21.001Z</time></trkpt><trkpt lat="44.04060560725104" lon="12.39896024269504"><ele>59.0</ele><time>2026-04-11T09:41:23.001Z</time></trkpt><trkpt lat="44.0406697159298" lon="12.399101943362707"><ele>59.00000000000001</ele><time>2026-04-11T09:41:25.001Z</time></trkpt><trkpt lat="44.040738522423155" lon="12.399244439695819"><ele>59.00000000000001</ele><time>2026-04-11T09:41:27.001Z</time></trkpt><trkpt lat="44.04077387170536" lon="12.399319937562616"><ele>59.0</ele><time>2026-04-11T09:41:28.001Z</time></trkpt><trkpt lat="44.040802621024525" lon="12.399407955974752"><ele>59.0</ele><time>2026-04-11T09:41:29.001Z</time></trkpt><trkpt lat="44.04087671741968" lon="12.399548434139104"><ele>59.0</ele><time>2026-04-11T09:41:31.001Z</time></trkpt><trkpt lat="44.04091253023595" lon="12.399622866059055"><ele>59.0</ele><time>2026-04-11T09:41:32.001Z</time></trkpt><trkpt lat="44.04094743194048" lon="12.39970129715017"><ele>59.0</ele><time>2026-04-11T09:41:33.001Z</time></trkpt><trkpt lat="44.04101319840502" lon="12.399851944298772"><ele>59.0</ele><time>2026-04-11T09:41:35.001Z</time></trkpt><trkpt lat="44.041048929886436" lon="12.39992409524341"><ele>59.0</ele><time>2026-04-11T09:41:36.001Z</time></trkpt><trkpt lat="44.0410825885842" lon="12.399999981946753"><ele>59.0</ele><time>2026-04-11T09:41:37.001Z</time></trkpt><trkpt lat="44.04111699231299" lon="12.400073740482851"><ele>59.0</ele><time>2026-04-11T09:41:38.001Z</time></trkpt><trkpt lat="44.04115527164156" lon="12.400146490105001"><ele>58.833333333333336</ele><time>2026-04-11T09:41:39.001Z</time></trkpt><trkpt lat="44.041186684235136" lon="12.400222469834603"><ele>58.66666666666667</ele><time>2026-04-11T09:41:40.001Z</time></trkpt><trkpt lat="44.04122123691159" lon="12.400297747647693"><ele>58.5</ele><time>2026-04-11T09:41:41.001Z</time></trkpt><trkpt lat="44.04129000213692" lon="12.400446013153163"><ele>58.33333333333333</ele><time>2026-04-11T09:41:43.001Z</time></trkpt><trkpt lat="44.04135567694936" lon="12.400591433665632"><ele>58.166666666666664</ele><time>2026-04-11T09:41:45.001Z</time></trkpt><trkpt lat="44.041381639768716" lon="12.400679781399685"><ele>58.0</ele><time>2026-04-11T09:41:46.001Z</time></trkpt><trkpt lat="44.04145589786221" lon="12.400816053465908"><ele>57.75</ele><time>2026-04-11T09:41:48.001Z</time></trkpt><trkpt lat="44.04151820976504" lon="12.400960666808936"><ele>57.5</ele><time>2026-04-11T09:41:50.001Z</time></trkpt><trkpt lat="44.041582200868866" lon="12.40110475952511"><ele>57.25</ele><time>2026-04-11T09:41:52.001Z</time></trkpt><trkpt lat="44.04165321393198" lon="12.401240606226267"><ele>57.0</ele><time>2026-04-11T09:41:54.001Z</time></trkpt><trkpt lat="44.041718059969554" lon="12.40138454725018"><ele>56.8</ele><time>2026-04-11T09:41:56.001Z</time></trkpt><trkpt lat="44.04175386017535" lon="12.401456847707003"><ele>56.6</ele><time>2026-04-11T09:41:57.001Z</time></trkpt><trkpt lat="44.041818550355075" lon="12.401599456556351"><ele>56.39999999999999</ele><time>2026-04-11T09:41:59.001Z</time></trkpt><trkpt lat="44.04188608519285" lon="12.401738216161304"><ele>56.199999999999996</ele><time>2026-04-11T09:42:01.001Z</time></trkpt><trkpt lat="44.04195704545048" lon="12.40187826080188"><ele>56.0</ele><time>2026-04-11T09:42:03.001Z</time></trkpt><trkpt lat="44.0420101872945" lon="12.402041584400012"><ele>56.0</ele><time>2026-04-11T09:42:05.001Z</time></trkpt><trkpt lat="44.04208059522298" lon="12.402169840663454"><ele>55.99999999999999</ele><time>2026-04-11T09:42:07.001Z</time></trkpt><trkpt lat="44.04215257933229" lon="12.402310495525667"><ele>55.99999999999999</ele><time>2026-04-11T09:42:09.001Z</time></trkpt><trkpt lat="44.04218731841442" lon="12.402384998538123"><ele>56.0</ele><time>2026-04-11T09:42:10.001Z</time></trkpt><trkpt lat="44.04222066166633" lon="12.402461742238549"><ele>56.0</ele><time>2026-04-11T09:42:11.001Z</time></trkpt><trkpt lat="44.042286306392754" lon="12.402602530100118"><ele>56.0</ele><time>2026-04-11T09:42:13.001Z</time></trkpt><trkpt lat="44.04235660201108" lon="12.402731888704384"><ele>56.0</ele><time>2026-04-11T09:42:15.001Z</time></trkpt><trkpt lat="44.042415877250306" lon="12.402875408875957"><ele>56.0</ele><time>2026-04-11T09:42:17.001Z</time></trkpt><trkpt lat="44.04248510724813" lon="12.403020422371839"><ele>56.0</ele><time>2026-04-11T09:42:19.001Z</time></trkpt><trkpt lat="44.04255323940605" lon="12.403163872354611"><ele>56.16666666666667</ele><time>2026-04-11T09:42:21.001Z</time></trkpt><trkpt lat="44.04262253669748" lon="12.403310464845347"><ele>56.333333333333336</ele><time>2026-04-11T09:42:23.001Z</time></trkpt><trkpt lat="44.04265588754597" lon="12.403384799675637"><ele>56.5</ele><time>2026-04-11T09:42:24.001Z</time></trkpt><trkpt lat="44.042692470212664" lon="12.403457089820048"><ele>56.66666666666667</ele><time>2026-04-11T09:42:25.001Z</time></trkpt><trkpt lat="44.042723552751845" lon="12.403534784760437"><ele>56.833333333333336</ele><time>2026-04-11T09:42:26.001Z</time></trkpt><trkpt lat="44.042760577745526" lon="12.403605903524145"><ele>57.0</ele><time>2026-04-11T09:42:27.001Z</time></trkpt><trkpt lat="44.04283223376311" lon="12.403748082914756"><ele>57.0</ele><time>2026-04-11T09:42:29.001Z</time></trkpt><trkpt lat="44.042870297237556" lon="12.403819814166292"><ele>56.99999999999999</ele><time>2026-04-11T09:42:30.001Z</time></trkpt><trkpt lat="44.04290818802584" lon="12.403894033304939"><ele>57.0</ele><time>2026-04-11T09:42:31.001Z</time></trkpt><trkpt lat="44.04294609725136" lon="12.403971579773934"><ele>57.0</ele><time>2026-04-11T09:42:32.001Z</time></trkpt><trkpt lat="44.042980867797986" lon="12.404050316597788"><ele>56.99999999999999</ele><time>2026-04-11T09:42:33.001Z</time></trkpt><trkpt lat="44.04301610783045" lon="12.404128202514412"><ele>57.0</ele><time>2026-04-11T09:42:34.001Z</time></trkpt><trkpt lat="44.04305054979479" lon="12.404205345958506"><ele>57.0</ele><time>2026-04-11T09:42:35.001Z</time></trkpt><trkpt lat="44.04308490472083" lon="12.404284062409884"><ele>57.0</ele><time>2026-04-11T09:42:36.001Z</time></trkpt><trkpt lat="44.04312269788295" lon="12.40436072332452"><ele>57.0</ele><time>2026-04-11T09:42:37.001Z</time></trkpt><trkpt lat="44.043157513825136" lon="12.404437406405787"><ele>57.0</ele><time>2026-04-11T09:42:38.001Z</time></trkpt><trkpt lat="44.043192020742794" lon="12.404513158027573"><ele>57.0</ele><time>2026-04-11T09:42:39.001Z</time></trkpt><trkpt lat="44.043238599676435" lon="12.404582528657313"><ele>57.0</ele><time>2026-04-11T09:42:40.001Z</time></trkpt><trkpt lat="44.04330043749066" lon="12.404736697348527"><ele>57.0</ele><time>2026-04-11T09:42:42.001Z</time></trkpt><trkpt lat="44.04334384167305" lon="12.404816479565376"><ele>56.71428571428571</ele><time>2026-04-11T09:42:43.001Z</time></trkpt><trkpt lat="44.04337966108478" lon="12.40489095361382"><ele>56.42857142857142</ele><time>2026-04-11T09:42:44.001Z</time></trkpt><trkpt lat="44.04341357291193" lon="12.40497068099456"><ele>56.14285714285714</ele><time>2026-04-11T09:42:45.001Z</time></trkpt><trkpt lat="44.04345080423518" lon="12.405045997845827"><ele>55.857142857142854</ele><time>2026-04-11T09:42:46.001Z</time></trkpt><trkpt lat="44.04348617819537" lon="12.405126222803789"><ele>55.57142857142857</ele><time>2026-04-11T09:42:47.001Z</time></trkpt><trkpt lat="44.04352717091505" lon="12.40520748789737"><ele>55.28571428571428</ele><time>2026-04-11T09:42:48.001Z</time></trkpt><trkpt lat="44.04356136758314" lon="12.405289591909309"><ele>55.0</ele><time>2026-04-11T09:42:49.001Z</time></trkpt><trkpt lat="44.04360392276542" lon="12.40536839427637"><ele>54.99999999999999</ele><time>2026-04-11T09:42:50.001Z</time></trkpt><trkpt lat="44.04363614031745" lon="12.405446820994467"><ele>55.0</ele><time>2026-04-11T09:42:51.001Z</time></trkpt><trkpt lat="44.043673893314285" lon="12.405527638567062"><ele>55.0</ele><time>2026-04-11T09:42:52.001Z</time></trkpt><trkpt lat="44.04371159582196" lon="12.405605771311427"><ele>55.0</ele><time>2026-04-11T09:42:53.001Z</time></trkpt><trkpt lat="44.04374907039564" lon="12.405686133307576"><ele>55.0</ele><time>2026-04-11T09:42:54.001Z</time></trkpt><trkpt lat="44.043777046922926" lon="12.405769020660202"><ele>54.99999999999999</ele><time>2026-04-11T09:42:55.001Z</time></trkpt><trkpt lat="44.04381577380048" lon="12.405846179919282"><ele>55.0</ele><time>2026-04-11T09:42:56.001Z</time></trkpt><trkpt lat="44.04385288542829" lon="12.405925066843178"><ele>54.857142857142854</ele><time>2026-04-11T09:42:57.001Z</time></trkpt><trkpt lat="44.043883765634746" lon="12.406003132577293"><ele>54.714285714285715</ele><time>2026-04-11T09:42:58.001Z</time></trkpt><trkpt lat="44.043925027475105" lon="12.40607925499184"><ele>54.57142857142857</ele><time>2026-04-11T09:42:59.001Z</time></trkpt><trkpt lat="44.04396183959931" lon="12.406153474892669"><ele>54.42857142857143</ele><time>2026-04-11T09:43:00.001Z</time></trkpt><trkpt lat="44.04399807662984" lon="12.40622958283578"><ele>54.285714285714285</ele><time>2026-04-11T09:43:01.001Z</time></trkpt><trkpt lat="44.04403406896241" lon="12.406304941591417"><ele>54.14285714285714</ele><time>2026-04-11T09:43:02.001Z</time></trkpt><trkpt lat="44.044070401863465" lon="12.406380783859978"><ele>54.0</ele><time>2026-04-11T09:43:03.001Z</time></trkpt><trkpt lat="44.04410590116863" lon="12.406457022361458"><ele>53.800000000000004</ele><time>2026-04-11T09:43:04.001Z</time></trkpt><trkpt lat="44.04414501404595" lon="12.406530975235386"><ele>53.60000000000001</ele><time>2026-04-11T09:43:05.001Z</time></trkpt><trkpt lat="44.044213003901696" lon="12.406679242834818"><ele>53.4</ele><time>2026-04-11T09:43:07.001Z</time></trkpt><trkpt lat="44.04428235197827" lon="12.40682697021692"><ele>53.2</ele><time>2026-04-11T09:43:09.001Z</time></trkpt><trkpt lat="44.044317603467405" lon="12.406904317562079"><ele>53.0</ele><time>2026-04-11T09:43:10.001Z</time></trkpt><trkpt lat="44.04438461330572" lon="12.407044025038235"><ele>53.2</ele><time>2026-04-11T09:43:12.001Z</time></trkpt><trkpt lat="44.04444685507664" lon="12.40718075032514"><ele>53.4</ele><time>2026-04-11T09:43:14.001Z</time></trkpt><trkpt lat="44.04450276525397" lon="12.40731008086542"><ele>53.60000000000001</ele><time>2026-04-11T09:43:16.001Z</time></trkpt><trkpt lat="44.044559421084756" lon="12.407432880251456"><ele>53.800000000000004</ele><time>2026-04-11T09:43:18.001Z</time></trkpt><trkpt lat="44.044621446608424" lon="12.407563292857832"><ele>54.0</ele><time>2026-04-11T09:43:20.001Z</time></trkpt><trkpt lat="44.04468564690008" lon="12.407694389268132"><ele>54.0</ele><time>2026-04-11T09:43:22.001Z</time></trkpt><trkpt lat="44.04474464181431" lon="12.407818864436214"><ele>54.00000000000001</ele><time>2026-04-11T09:43:24.001Z</time></trkpt><trkpt lat="44.04479806039296" lon="12.40794332248768"><ele>54.00000000000001</ele><time>2026-04-11T09:43:26.001Z</time></trkpt><trkpt lat="44.04485517890613" lon="12.408062364113535"><ele>54.0</ele><time>2026-04-11T09:43:28.001Z</time></trkpt><trkpt lat="44.04490926060125" lon="12.408177385725706"><ele>54.0</ele><time>2026-04-11T09:43:30.001Z</time></trkpt><trkpt lat="44.04496390040195" lon="12.408288874328505"><ele>54.0</ele><time>2026-04-11T09:43:32.001Z</time></trkpt><trkpt lat="44.04502157827831" lon="12.408402939504947"><ele>54.0</ele><time>2026-04-11T09:43:34.001Z</time></trkpt><trkpt lat="44.0450890365358" lon="12.408520662720365"><ele>54.0</ele><time>2026-04-11T09:43:36.001Z</time></trkpt><trkpt lat="44.04511003271923" lon="12.408623012815811"><ele>54.0</ele><time>2026-04-11T09:43:38.001Z</time></trkpt><trkpt lat="44.04511851733214" lon="12.408729653674184"><ele>54.0</ele><time>2026-04-11T09:43:40.001Z</time></trkpt><trkpt lat="44.045159399131556" lon="12.408833990419255"><ele>54.0</ele><time>2026-04-11T09:43:42.001Z</time></trkpt><trkpt lat="44.04524747844997" lon="12.40883008722276"><ele>53.833333333333336</ele><time>2026-04-11T09:43:44.001Z</time></trkpt><trkpt lat="44.04529345154477" lon="12.408704908423264"><ele>53.66666666666667</ele><time>2026-04-11T09:43:46.001Z</time></trkpt><trkpt lat="44.04534329876123" lon="12.408593822039627"><ele>53.5</ele><time>2026-04-11T09:43:48.001Z</time></trkpt><trkpt lat="44.045418345407505" lon="12.408535809265622"><ele>53.333333333333336</ele><time>2026-04-11T09:43:50.001Z</time></trkpt><trkpt lat="44.04549864137889" lon="12.408494520361572"><ele>53.16666666666667</ele><time>2026-04-11T09:43:52.001Z</time></trkpt><trkpt lat="44.04557551129327" lon="12.408451892691339"><ele>53.0</ele><time>2026-04-11T09:43:54.001Z</time></trkpt><trkpt lat="44.04565003089709" lon="12.408397599181086"><ele>53.0</ele><time>2026-04-11T09:43:56.001Z</time></trkpt><trkpt lat="44.045723858538665" lon="12.408340854782661"><ele>53.0</ele><time>2026-04-11T09:43:58.001Z</time></trkpt><trkpt lat="44.04580335949925" lon="12.408274150801889"><ele>53.0</ele><time>2026-04-11T09:44:00.001Z</time></trkpt><trkpt lat="44.04589041136347" lon="12.408197693578996"><ele>53.0</ele><time>2026-04-11T09:44:02.001Z</time></trkpt><trkpt lat="44.04598156960897" lon="12.40811618453878"><ele>53.0</ele><time>2026-04-11T09:44:04.001Z</time></trkpt><trkpt lat="44.04607604794378" lon="12.408035763223952"><ele>52.8</ele><time>2026-04-11T09:44:06.001Z</time></trkpt><trkpt lat="44.04617166593972" lon="12.407948353381169"><ele>52.599999999999994</ele><time>2026-04-11T09:44:08.001Z</time></trkpt><trkpt lat="44.04626770569169" lon="12.407862493829587"><ele>52.400000000000006</ele><time>2026-04-11T09:44:10.001Z</time></trkpt><trkpt lat="44.04635811884562" lon="12.407781692394106"><ele>52.2</ele><time>2026-04-11T09:44:12.001Z</time></trkpt><trkpt lat="44.04645133410629" lon="12.407701582241858"><ele>52.0</ele><time>2026-04-11T09:44:14.001Z</time></trkpt><trkpt lat="44.046547171872604" lon="12.407610245603609"><ele>52.25</ele><time>2026-04-11T09:44:16.001Z</time></trkpt><trkpt lat="44.04664686773799" lon="12.407522542403315"><ele>52.5</ele><time>2026-04-11T09:44:18Z</time></trkpt><trkpt lat="44.046749409410744" lon="12.407433963731892"><ele>52.75</ele><time>2026-04-11T09:44:20Z</time></trkpt><trkpt lat="44.04685164624246" lon="12.40733931909857"><ele>53.0</ele><time>2026-04-11T09:44:22Z</time></trkpt><trkpt lat="44.04695125058416" lon="12.407249461598962"><ele>53.0</ele><time>2026-04-11T09:44:24Z</time></trkpt><trkpt lat="44.04705532734523" lon="12.407157843908116"><ele>53.0</ele><time>2026-04-11T09:44:26Z</time></trkpt><trkpt lat="44.04710884955969" lon="12.407110966536392"><ele>53.0</ele><time>2026-04-11T09:44:27Z</time></trkpt><trkpt lat="44.04716123371226" lon="12.407062257910683"><ele>53.0</ele><time>2026-04-11T09:44:28Z</time></trkpt><trkpt lat="44.04721447793085" lon="12.407015410581677"><ele>53.0</ele><time>2026-04-11T09:44:29Z</time></trkpt><trkpt lat="44.04726956280434" lon="12.40696933795941"><ele>53.0</ele><time>2026-04-11T09:44:30Z</time></trkpt><trkpt lat="44.0473239405438" lon="12.406921595965137"><ele>53.0</ele><time>2026-04-11T09:44:31Z</time></trkpt><trkpt lat="44.04737795050813" lon="12.406872926138398"><ele>53.0</ele><time>2026-04-11T09:44:32Z</time></trkpt><trkpt lat="44.047432817915485" lon="12.406823938535634"><ele>53.0</ele><time>2026-04-11T09:44:33Z</time></trkpt><trkpt lat="44.047487025787085" lon="12.406775207979807"><ele>53.0</ele><time>2026-04-11T09:44:34Z</time></trkpt><trkpt lat="44.047540440945454" lon="12.406728230910566"><ele>53.0</ele><time>2026-04-11T09:44:35Z</time></trkpt><trkpt lat="44.04759565094736" lon="12.406679341361887"><ele>53.0</ele><time>2026-04-11T09:44:36Z</time></trkpt><trkpt lat="44.04765138878884" lon="12.406631831487843"><ele>53.0</ele><time>2026-04-11T09:44:37Z</time></trkpt><trkpt lat="44.04770638955161" lon="12.40658258042767"><ele>53.0</ele><time>2026-04-11T09:44:38Z</time></trkpt><trkpt lat="44.04781314908342" lon="12.40648753004949"><ele>53.00000000000001</ele><time>2026-04-11T09:44:40Z</time></trkpt><trkpt lat="44.047866426102" lon="12.406440300960005"><ele>53.0</ele><time>2026-04-11T09:44:41Z</time></trkpt><trkpt lat="44.04792058623602" lon="12.406390313056026"><ele>53.0</ele><time>2026-04-11T09:44:42Z</time></trkpt><trkpt lat="44.04797578025053" lon="12.406337433773931"><ele>53.0</ele><time>2026-04-11T09:44:43Z</time></trkpt><trkpt lat="44.0480254464992" lon="12.406282759510809"><ele>53.00000000000001</ele><time>2026-04-11T09:44:44Z</time></trkpt><trkpt lat="44.04811586474278" lon="12.406174967779059"><ele>53.0</ele><time>2026-04-11T09:44:46Z</time></trkpt><trkpt lat="44.04820493525523" lon="12.406062189751026"><ele>53.0</ele><time>2026-04-11T09:44:48Z</time></trkpt><trkpt lat="44.04828700449031" lon="12.405938275966747"><ele>53.0</ele><time>2026-04-11T09:44:50.001Z</time></trkpt><trkpt lat="44.04832739744104" lon="12.405871024859657"><ele>53.0</ele><time>2026-04-11T09:44:51.001Z</time></trkpt><trkpt lat="44.04840403851384" lon="12.405741268879407"><ele>53.0</ele><time>2026-04-11T09:44:53.001Z</time></trkpt><trkpt lat="44.048483131819175" lon="12.40560976480434"><ele>53.0</ele><time>2026-04-11T09:44:55.001Z</time></trkpt><trkpt lat="44.048560157751446" lon="12.405480674058385"><ele>52.25</ele><time>2026-04-11T09:44:57.001Z</time></trkpt><trkpt lat="44.0486345717754" lon="12.405343925942146"><ele>51.5</ele><time>2026-04-11T09:44:59.001Z</time></trkpt><trkpt lat="44.048702861566575" lon="12.405211459215273"><ele>50.75</ele><time>2026-04-11T09:45:01.001Z</time></trkpt><trkpt lat="44.048760997224335" lon="12.405080657976484"><ele>50.0</ele><time>2026-04-11T09:45:03.001Z</time></trkpt><trkpt lat="44.04881237509476" lon="12.404944024792185"><ele>50.0</ele><time>2026-04-11T09:45:05.001Z</time></trkpt><trkpt lat="44.04885750464944" lon="12.404801436273013"><ele>50.0</ele><time>2026-04-11T09:45:07.001Z</time></trkpt><trkpt lat="44.048900553694665" lon="12.404656378486724"><ele>50.0</ele><time>2026-04-11T09:45:09.001Z</time></trkpt><trkpt lat="44.048935444125064" lon="12.404505013656424"><ele>50.0</ele><time>2026-04-11T09:45:11.001Z</time></trkpt><trkpt lat="44.048969046791285" lon="12.404353794347504"><ele>50.8</ele><time>2026-04-11T09:45:13.001Z</time></trkpt><trkpt lat="44.04900370843325" lon="12.404205305696543"><ele>51.6</ele><time>2026-04-11T09:45:15.001Z</time></trkpt><trkpt lat="44.04903971232677" lon="12.40405899664616"><ele>52.400000000000006</ele><time>2026-04-11T09:45:17.001Z</time></trkpt><trkpt lat="44.0490744226848" lon="12.403913035215972"><ele>53.2</ele><time>2026-04-11T09:45:19.001Z</time></trkpt><trkpt lat="44.04911166403744" lon="12.403769234201333"><ele>54.0</ele><time>2026-04-11T09:45:21.001Z</time></trkpt><trkpt lat="44.049152210539226" lon="12.403626826165326"><ele>54.400000000000006</ele><time>2026-04-11T09:45:23.001Z</time></trkpt><trkpt lat="44.04919866737363" lon="12.403490525876762"><ele>54.800000000000004</ele><time>2026-04-11T09:45:25.001Z</time></trkpt><trkpt lat="44.04925061723123" lon="12.403366667870372"><ele>55.199999999999996</ele><time>2026-04-11T09:45:27.001Z</time></trkpt><trkpt lat="44.04930653731952" lon="12.403248326623713"><ele>55.599999999999994</ele><time>2026-04-11T09:45:29.001Z</time></trkpt><trkpt lat="44.04936882205924" lon="12.403138638183423"><ele>56.0</ele><time>2026-04-11T09:45:31.001Z</time></trkpt><trkpt lat="44.04943798903825" lon="12.403036100568045"><ele>56.333333333333336</ele><time>2026-04-11T09:45:33.001Z</time></trkpt><trkpt lat="44.049503079332545" lon="12.402947017266492"><ele>56.66666666666667</ele><time>2026-04-11T09:45:35.001Z</time></trkpt><trkpt lat="44.04957377331119" lon="12.402869540100921"><ele>57.0</ele><time>2026-04-11T09:45:37.001Z</time></trkpt><trkpt lat="44.04964634284341" lon="12.402813564175574"><ele>57.33333333333333</ele><time>2026-04-11T09:45:39.001Z</time></trkpt><trkpt lat="44.04972605633678" lon="12.402768341137"><ele>57.666666666666664</ele><time>2026-04-11T09:45:41.001Z</time></trkpt><trkpt lat="44.049815989302374" lon="12.40274736592531"><ele>58.0</ele><time>2026-04-11T09:45:43.001Z</time></trkpt><trkpt lat="44.049911104302694" lon="12.402755223335557"><ele>57.8</ele><time>2026-04-11T09:45:45.001Z</time></trkpt><trkpt lat="44.05000645495008" lon="12.402782434443765"><ele>57.599999999999994</ele><time>2026-04-11T09:45:47.001Z</time></trkpt><trkpt lat="44.05010570672843" lon="12.402828061358374"><ele>57.400000000000006</ele><time>2026-04-11T09:45:49.001Z</time></trkpt><trkpt lat="44.05020343818917" lon="12.402877600605024"><ele>57.2</ele><time>2026-04-11T09:45:51.001Z</time></trkpt><trkpt lat="44.050306325166325" lon="12.402923242732923"><ele>57.0</ele><time>2026-04-11T09:45:53.001Z</time></trkpt><trkpt lat="44.05040993627854" lon="12.402972767774127"><ele>56.6</ele><time>2026-04-11T09:45:55.001Z</time></trkpt><trkpt lat="44.05051488877969" lon="12.40302214472947"><ele>56.2</ele><time>2026-04-11T09:45:57.001Z</time></trkpt><trkpt lat="44.05062212648483" lon="12.403078677637074"><ele>55.8</ele><time>2026-04-11T09:45:59.001Z</time></trkpt><trkpt lat="44.05073273434144" lon="12.403152078174962"><ele>55.4</ele><time>2026-04-11T09:46:01.001Z</time></trkpt><trkpt lat="44.05079230103896" lon="12.403190080300744"><ele>55.0</ele><time>2026-04-11T09:46:02.001Z</time></trkpt><trkpt lat="44.050848139628684" lon="12.403231359019792"><ele>54.857142857142854</ele><time>2026-04-11T09:46:03.001Z</time></trkpt><trkpt lat="44.05090225649546" lon="12.403278523201905"><ele>54.714285714285715</ele><time>2026-04-11T09:46:04.001Z</time></trkpt><trkpt lat="44.050954038897885" lon="12.403333571604195"><ele>54.57142857142857</ele><time>2026-04-11T09:46:05.001Z</time></trkpt><trkpt lat="44.051007508115866" lon="12.403383999628474"><ele>54.42857142857143</ele><time>2026-04-11T09:46:06.001Z</time></trkpt><trkpt lat="44.05106607872704" lon="12.403432807275104"><ele>54.285714285714285</ele><time>2026-04-11T09:46:07.001Z</time></trkpt><trkpt lat="44.05112026536465" lon="12.403481761049134"><ele>54.14285714285714</ele><time>2026-04-11T09:46:08.001Z</time></trkpt><trkpt lat="44.05118063303893" lon="12.403533794629762"><ele>54.0</ele><time>2026-04-11T09:46:09.001Z</time></trkpt><trkpt lat="44.05128190889576" lon="12.40362617631764"><ele>54.0</ele><time>2026-04-11T09:46:11Z</time></trkpt><trkpt lat="44.05138174779799" lon="12.403718687578095"><ele>54.0</ele><time>2026-04-11T09:46:13Z</time></trkpt><trkpt lat="44.05147726759555" lon="12.403809154024836"><ele>54.0</ele><time>2026-04-11T09:46:15Z</time></trkpt><trkpt lat="44.05157527790423" lon="12.403893695859932"><ele>54.0</ele><time>2026-04-11T09:46:17Z</time></trkpt><trkpt lat="44.05167096924148" lon="12.403972802029012"><ele>53.400000000000006</ele><time>2026-04-11T09:46:19Z</time></trkpt><trkpt lat="44.051776959425354" lon="12.404034328620709"><ele>52.800000000000004</ele><time>2026-04-11T09:46:21Z</time></trkpt><trkpt lat="44.05187800571562" lon="12.404078458414194"><ele>52.2</ele><time>2026-04-11T09:46:23Z</time></trkpt><trkpt lat="44.05194796716815" lon="12.404178041842519"><ele>51.599999999999994</ele><time>2026-04-11T09:46:25Z</time></trkpt><trkpt lat="44.05200116773504" lon="12.404321097977384"><ele>51.0</ele><time>2026-04-11T09:46:27Z</time></trkpt><trkpt lat="44.05207147950563" lon="12.404452084884939"><ele>51.0</ele><time>2026-04-11T09:46:29Z</time></trkpt><trkpt lat="44.05214244285741" lon="12.404580836843511"><ele>51.0</ele><time>2026-04-11T09:46:31Z</time></trkpt><trkpt lat="44.052207264120625" lon="12.404714487805144"><ele>51.0</ele><time>2026-04-11T09:46:33Z</time></trkpt><trkpt lat="44.05227735090518" lon="12.404845042536254"><ele>51.0</ele><time>2026-04-11T09:46:35Z</time></trkpt><trkpt lat="44.05234792142938" lon="12.40497340082788"><ele>51.0</ele><time>2026-04-11T09:46:37Z</time></trkpt><trkpt lat="44.05242406096558" lon="12.405099641763046"><ele>51.0</ele><time>2026-04-11T09:46:39Z</time></trkpt><trkpt lat="44.05248989746666" lon="12.40523617071254"><ele>51.0</ele><time>2026-04-11T09:46:41Z</time></trkpt><trkpt lat="44.05254817239736" lon="12.40537074419932"><ele>51.0</ele><time>2026-04-11T09:46:43Z</time></trkpt><trkpt lat="44.05259384316751" lon="12.405502006510275"><ele>51.0</ele><time>2026-04-11T09:46:45Z</time></trkpt><trkpt lat="44.05261378378618" lon="12.40565098287629"><ele>51.0</ele><time>2026-04-11T09:46:47Z</time></trkpt><trkpt lat="44.052651388958736" lon="12.405783494245302"><ele>51.0</ele><time>2026-04-11T09:46:49Z</time></trkpt><trkpt lat="44.0526846578929" lon="12.405922080052372"><ele>51.0</ele><time>2026-04-11T09:46:51Z</time></trkpt><trkpt lat="44.052717766262866" lon="12.406075735784988"><ele>51.0</ele><time>2026-04-11T09:46:53Z</time></trkpt><trkpt lat="44.05275402375982" lon="12.406237009738863"><ele>50.5</ele><time>2026-04-11T09:46:55Z</time></trkpt><trkpt lat="44.05278359161427" lon="12.406406525309944"><ele>50.0</ele><time>2026-04-11T09:46:57Z</time></trkpt><trkpt lat="44.05279631024714" lon="12.406493100113497"><ele>49.5</ele><time>2026-04-11T09:46:58Z</time></trkpt><trkpt lat="44.05280847939721" lon="12.406587694745184"><ele>49.0</ele><time>2026-04-11T09:46:59Z</time></trkpt><trkpt lat="44.05284448864712" lon="12.40675647183317"><ele>48.5</ele><time>2026-04-11T09:47:01Z</time></trkpt><trkpt lat="44.05286313530591" lon="12.406843167270342"><ele>48.0</ele><time>2026-04-11T09:47:02Z</time></trkpt><trkpt lat="44.052879027844085" lon="12.406928804064806"><ele>48.0</ele><time>2026-04-11T09:47:03Z</time></trkpt><trkpt lat="44.05291282280887" lon="12.407090786492777"><ele>48.0</ele><time>2026-04-11T09:47:05Z</time></trkpt><trkpt lat="44.05293966071886" lon="12.407240421805026"><ele>48.0</ele><time>2026-04-11T09:47:07Z</time></trkpt><trkpt lat="44.05296810729252" lon="12.407341491189662"><ele>48.0</ele><time>2026-04-11T09:47:09Z</time></trkpt><trkpt lat="44.05305904869239" lon="12.407365871161486"><ele>48.0</ele><time>2026-04-11T09:47:12.001Z</time></trkpt><trkpt lat="44.05313912867343" lon="12.407328374943969"><ele>48.166666666666664</ele><time>2026-04-11T09:47:14.001Z</time></trkpt><trkpt lat="44.053220086261895" lon="12.407285121085089"><ele>48.33333333333333</ele><time>2026-04-11T09:47:16.001Z</time></trkpt><trkpt lat="44.053304887836426" lon="12.407252820916948"><ele>48.5</ele><time>2026-04-11T09:47:18.001Z</time></trkpt><trkpt lat="44.05338932000118" lon="12.407212763141157"><ele>48.666666666666664</ele><time>2026-04-11T09:47:20.001Z</time></trkpt><trkpt lat="44.05348100781278" lon="12.40717360657985"><ele>48.83333333333333</ele><time>2026-04-11T09:47:22.001Z</time></trkpt><trkpt lat="44.05356377776444" lon="12.407146672214228"><ele>49.0</ele><time>2026-04-11T09:47:24.001Z</time></trkpt><trkpt lat="44.05365464683334" lon="12.407109465328219"><ele>48.6</ele><time>2026-04-11T09:47:26.001Z</time></trkpt><trkpt lat="44.05373681645831" lon="12.407089085911151"><ele>48.2</ele><time>2026-04-11T09:47:28.001Z</time></trkpt><trkpt lat="44.05382862892241" lon="12.40704544361865"><ele>47.800000000000004</ele><time>2026-04-11T09:47:30.001Z</time></trkpt><trkpt lat="44.05392247292671" lon="12.407026649265617"><ele>47.400000000000006</ele><time>2026-04-11T09:47:32.001Z</time></trkpt><trkpt lat="44.05401629010697" lon="12.406994620245724"><ele>47.0</ele><time>2026-04-11T09:47:34.001Z</time></trkpt><trkpt lat="44.05410244823549" lon="12.406968171053288"><ele>47.0</ele><time>2026-04-11T09:47:36.001Z</time></trkpt><trkpt lat="44.05417748433499" lon="12.406932637873625"><ele>47.0</ele><time>2026-04-11T09:47:38.001Z</time></trkpt><trkpt lat="44.0542515488522" lon="12.406893852770715"><ele>47.0</ele><time>2026-04-11T09:47:40.001Z</time></trkpt><trkpt lat="44.05431506735168" lon="12.4068651348723"><ele>47.0</ele><time>2026-04-11T09:47:42.001Z</time></trkpt><trkpt lat="44.05438784010354" lon="12.406863558143788"><ele>47.0</ele><time>2026-04-11T09:47:44.001Z</time></trkpt><trkpt lat="44.05444627996925" lon="12.406944764500262"><ele>47.0</ele><time>2026-04-11T09:47:46.001Z</time></trkpt><trkpt lat="44.054515089041004" lon="12.407017964700934"><ele>47.0</ele><time>2026-04-11T09:47:49.001Z</time></trkpt><trkpt lat="44.05454099489166" lon="12.40711177691615"><ele>47.0</ele><time>2026-04-11T09:47:50.001Z</time></trkpt><trkpt lat="44.05459338548743" lon="12.407207364989876"><ele>47.0</ele><time>2026-04-11T09:47:52.001Z</time></trkpt><trkpt lat="44.05464373768129" lon="12.40730794825587"><ele>47.0</ele><time>2026-04-11T09:47:54.001Z</time></trkpt><trkpt lat="44.05469709803977" lon="12.407403715733285"><ele>47.0</ele><time>2026-04-11T09:47:56.001Z</time></trkpt><trkpt lat="44.05475816254764" lon="12.40749080852889"><ele>47.0</ele><time>2026-04-11T09:47:58.001Z</time></trkpt><trkpt lat="44.05481746043971" lon="12.407576575396131"><ele>46.857142857142854</ele><time>2026-04-11T09:48:00.001Z</time></trkpt><trkpt lat="44.054865928853275" lon="12.407654252174503"><ele>46.71428571428571</ele><time>2026-04-11T09:48:02.001Z</time></trkpt><trkpt lat="44.0549154536037" lon="12.40772533096958"><ele>46.57142857142857</ele><time>2026-04-11T09:48:04.001Z</time></trkpt><trkpt lat="44.05496530068935" lon="12.407786231171693"><ele>46.42857142857143</ele><time>2026-04-11T09:48:06.001Z</time></trkpt><trkpt lat="44.05502324756786" lon="12.407849077486187"><ele>46.285714285714285</ele><time>2026-04-11T09:48:08.001Z</time></trkpt><trkpt lat="44.05507461241774" lon="12.407921982842366"><ele>46.142857142857146</ele><time>2026-04-11T09:48:10.001Z</time></trkpt><trkpt lat="44.05512660581943" lon="12.407995533238886"><ele>46.0</ele><time>2026-04-11T09:48:12.001Z</time></trkpt><trkpt lat="44.05517372276941" lon="12.408064287021416"><ele>46.0</ele><time>2026-04-11T09:48:14.001Z</time></trkpt><trkpt lat="44.05523483379117" lon="12.408142543180794"><ele>46.0</ele><time>2026-04-11T09:48:17Z</time></trkpt><trkpt lat="44.055279180134406" lon="12.408207931953719"><ele>46.0</ele><time>2026-04-11T09:48:19Z</time></trkpt><trkpt lat="44.05531868996835" lon="12.408283980171205"><ele>46.0</ele><time>2026-04-11T09:48:21Z</time></trkpt><trkpt lat="44.055370004979636" lon="12.408384587653687"><ele>46.0</ele><time>2026-04-11T09:48:24Z</time></trkpt><trkpt lat="44.055407728796474" lon="12.408471862506552"><ele>46.0</ele><time>2026-04-11T09:48:27Z</time></trkpt><trkpt lat="44.05543960209492" lon="12.40855239902237"><ele>46.0</ele><time>2026-04-11T09:48:30Z</time></trkpt><trkpt lat="44.055475346725835" lon="12.408627079140222"><ele>46.0</ele><time>2026-04-11T09:48:34Z</time></trkpt><trkpt lat="44.05554350106602" lon="12.408579371659734"><ele>46.0</ele><time>2026-04-11T09:49:15.001Z</time></trkpt><trkpt lat="44.055606295854304" lon="12.408517966536417"><ele>46.0</ele><time>2026-04-11T09:49:18.001Z</time></trkpt><trkpt lat="44.055675834376544" lon="12.40843702954914"><ele>46.0</ele><time>2026-04-11T09:49:21.001Z</time></trkpt><trkpt lat="44.05572675334283" lon="12.408383013071925"><ele>46.0</ele><time>2026-04-11T09:49:23.001Z</time></trkpt><trkpt lat="44.0557774840072" lon="12.408322157343758"><ele>46.0</ele><time>2026-04-11T09:49:25.001Z</time></trkpt><trkpt lat="44.055836078605644" lon="12.408256400529888"><ele>45.833333333333336</ele><time>2026-04-11T09:49:27.001Z</time></trkpt><trkpt lat="44.05589798176442" lon="12.408190814367348"><ele>45.66666666666667</ele><time>2026-04-11T09:49:29.001Z</time></trkpt><trkpt lat="44.05596135297171" lon="12.408126008674724"><ele>45.5</ele><time>2026-04-11T09:49:31.001Z</time></trkpt><trkpt lat="44.05602258545948" lon="12.408058643562539"><ele>45.333333333333336</ele><time>2026-04-11T09:49:33.001Z</time></trkpt><trkpt lat="44.05608540616503" lon="12.407989204380762"><ele>45.166666666666664</ele><time>2026-04-11T09:49:35.001Z</time></trkpt><trkpt lat="44.05615483852526" lon="12.407920192527126"><ele>45.0</ele><time>2026-04-11T09:49:37.001Z</time></trkpt><trkpt lat="44.05620430330869" lon="12.407854741250691"><ele>45.4</ele><time>2026-04-11T09:49:38.001Z</time></trkpt><trkpt lat="44.056282246362315" lon="12.407777330285592"><ele>45.8</ele><time>2026-04-11T09:49:40.001Z</time></trkpt><trkpt lat="44.05636267521452" lon="12.407701027039934"><ele>46.2</ele><time>2026-04-11T09:49:42.001Z</time></trkpt><trkpt lat="44.056442058006404" lon="12.40762989613104"><ele>46.6</ele><time>2026-04-11T09:49:44.001Z</time></trkpt><trkpt lat="44.05651463369886" lon="12.40755046264653"><ele>47.0</ele><time>2026-04-11T09:49:46.001Z</time></trkpt><trkpt lat="44.05659029825023" lon="12.407483125916352"><ele>46.8</ele><time>2026-04-11T09:49:48.001Z</time></trkpt><trkpt lat="44.056664139442724" lon="12.40742201263299"><ele>46.6</ele><time>2026-04-11T09:49:50.001Z</time></trkpt><trkpt lat="44.056738243003096" lon="12.407352660411615"><ele>46.4</ele><time>2026-04-11T09:49:52.001Z</time></trkpt><trkpt lat="44.056810854952836" lon="12.407268838210317"><ele>46.199999999999996</ele><time>2026-04-11T09:49:54.001Z</time></trkpt><trkpt lat="44.056893472175844" lon="12.407188374195288"><ele>46.0</ele><time>2026-04-11T09:49:56.001Z</time></trkpt><trkpt lat="44.05698652092598" lon="12.407119000314713"><ele>46.0</ele><time>2026-04-11T09:49:58.001Z</time></trkpt><trkpt lat="44.0570858599468" lon="12.407059701193113"><ele>46.0</ele><time>2026-04-11T09:50:00.001Z</time></trkpt><trkpt lat="44.05718809927793" lon="12.407020178368324"><ele>46.0</ele><time>2026-04-11T09:50:02.001Z</time></trkpt><trkpt lat="44.057284003813855" lon="12.406978602260573"><ele>46.0</ele><time>2026-04-11T09:50:04.001Z</time></trkpt><trkpt lat="44.057379039439915" lon="12.406944586662698"><ele>46.0</ele><time>2026-04-11T09:50:06.001Z</time></trkpt><trkpt lat="44.057475499515725" lon="12.406909303606485"><ele>46.0</ele><time>2026-04-11T09:50:08.001Z</time></trkpt><trkpt lat="44.05754838565122" lon="12.406883737053679"><ele>46.0</ele><time>2026-04-11T09:50:10.001Z</time></trkpt><trkpt lat="44.05761721754714" lon="12.406856902559555"><ele>46.0</ele><time>2026-04-11T09:50:11.001Z</time></trkpt><trkpt lat="44.05772137828638" lon="12.406814290998083"><ele>46.0</ele><time>2026-04-11T09:50:13.001Z</time></trkpt><trkpt lat="44.05781997078777" lon="12.406756709229274"><ele>46.0</ele><time>2026-04-11T09:50:15.001Z</time></trkpt><trkpt lat="44.05790243608763" lon="12.4067230521845"><ele>46.0</ele><time>2026-04-11T09:50:17.001Z</time></trkpt><trkpt lat="44.05797992844708" lon="12.406672115183877"><ele>46.0</ele><time>2026-04-11T09:50:19.001Z</time></trkpt><trkpt lat="44.05806347142431" lon="12.406706935153672"><ele>46.0</ele><time>2026-04-11T09:50:21.001Z</time></trkpt><trkpt lat="44.05810172863077" lon="12.406808041184911"><ele>46.0</ele><time>2026-04-11T09:50:23Z</time></trkpt><trkpt lat="44.058148850096934" lon="12.406925212346518"><ele>46.0</ele><time>2026-04-11T09:50:25Z</time></trkpt><trkpt lat="44.05820559378687" lon="12.407059894956706"><ele>46.0</ele><time>2026-04-11T09:50:28Z</time></trkpt><trkpt lat="44.058296545969235" lon="12.407156617174955"><ele>45.599999999999994</ele><time>2026-04-11T09:50:30Z</time></trkpt><trkpt lat="44.05837168913924" lon="12.407246624620178"><ele>45.2</ele><time>2026-04-11T09:50:32Z</time></trkpt><trkpt lat="44.05844435339122" lon="12.40733592083556"><ele>44.8</ele><time>2026-04-11T09:50:34Z</time></trkpt><trkpt lat="44.05853008515057" lon="12.40741452946507"><ele>44.400000000000006</ele><time>2026-04-11T09:50:36Z</time></trkpt><trkpt lat="44.05862723342501" lon="12.407472849253509"><ele>44.0</ele><time>2026-04-11T09:50:38Z</time></trkpt><trkpt lat="44.058717989594406" lon="12.407510727333257"><ele>44.0</ele><time>2026-04-11T09:50:40Z</time></trkpt><trkpt lat="44.058802925322254" lon="12.407551208505055"><ele>44.0</ele><time>2026-04-11T09:50:42Z</time></trkpt><trkpt lat="44.058884638503436" lon="12.40758400137217"><ele>44.0</ele><time>2026-04-11T09:50:44Z</time></trkpt><trkpt lat="44.0589623317744" lon="12.4076639442197"><ele>44.0</ele><time>2026-04-11T09:50:46Z</time></trkpt><trkpt lat="44.05902935330605" lon="12.407705916305554"><ele>44.0</ele><time>2026-04-11T09:50:48Z</time></trkpt><trkpt lat="44.05909822075701" lon="12.407749147380416"><ele>44.0</ele><time>2026-04-11T09:50:50Z</time></trkpt><trkpt lat="44.05917247946336" lon="12.407739799054236"><ele>44.166666666666664</ele><time>2026-04-11T09:50:52Z</time></trkpt><trkpt lat="44.05925852502805" lon="12.40770827314414"><ele>44.33333333333333</ele><time>2026-04-11T09:50:54Z</time></trkpt><trkpt lat="44.05934955765323" lon="12.407716505368162"><ele>44.5</ele><time>2026-04-11T09:50:56Z</time></trkpt><trkpt lat="44.05943690833527" lon="12.407737181492918"><ele>44.666666666666664</ele><time>2026-04-11T09:50:58Z</time></trkpt><trkpt lat="44.05950850401198" lon="12.4077689537452"><ele>44.833333333333336</ele><time>2026-04-11T09:51:00Z</time></trkpt><trkpt lat="44.05960036019595" lon="12.407766397036196"><ele>45.0</ele><time>2026-04-11T09:51:03Z</time></trkpt><trkpt lat="44.05964935388065" lon="12.407839004195491"><ele>45.0</ele><time>2026-04-11T09:51:06Z</time></trkpt><trkpt lat="44.0597324012603" lon="12.407889228121174"><ele>45.0</ele><time>2026-04-11T09:51:10Z</time></trkpt><trkpt lat="44.05981898703017" lon="12.407930582180215"><ele>45.0</ele><time>2026-04-11T09:51:12Z</time></trkpt><trkpt lat="44.05990897888647" lon="12.40796003745099"><ele>45.0</ele><time>2026-04-11T09:51:14Z</time></trkpt><trkpt lat="44.0599982606103" lon="12.407994847532956"><ele>45.0</ele><time>2026-04-11T09:51:16Z</time></trkpt><trkpt lat="44.06009868902401" lon="12.40802923109938"><ele>44.666666666666664</ele><time>2026-04-11T09:51:18Z</time></trkpt><trkpt lat="44.06018846514011" lon="12.408055148279711"><ele>44.333333333333336</ele><time>2026-04-11T09:51:20Z</time></trkpt><trkpt lat="44.06027216169057" lon="12.40809273065069"><ele>44.0</ele><time>2026-04-11T09:51:22Z</time></trkpt><trkpt lat="44.060339760166684" lon="12.408103967410018"><ele>43.66666666666667</ele><time>2026-04-11T09:51:24Z</time></trkpt><trkpt lat="44.060413963201356" lon="12.408040607343388"><ele>43.333333333333336</ele><time>2026-04-11T09:51:27Z</time></trkpt><trkpt lat="44.06044655848993" lon="12.407946144846047"><ele>43.0</ele><time>2026-04-11T09:51:29Z</time></trkpt><trkpt lat="44.06049506226965" lon="12.407869474354014"><ele>43.0</ele><time>2026-04-11T09:51:31Z</time></trkpt><trkpt lat="44.0605775637983" lon="12.407825519859834"><ele>43.0</ele><time>2026-04-11T09:51:33Z</time></trkpt><trkpt lat="44.06067159276182" lon="12.407826538038687"><ele>43.0</ele><time>2026-04-11T09:51:35Z</time></trkpt><trkpt lat="44.060766323345725" lon="12.407848355491739"><ele>43.0</ele><time>2026-04-11T09:51:37Z</time></trkpt><trkpt lat="44.06086458627618" lon="12.407876869870876"><ele>43.0</ele><time>2026-04-11T09:51:39Z</time></trkpt><trkpt lat="44.060963390034374" lon="12.407900861225336"><ele>43.0</ele><time>2026-04-11T09:51:41Z</time></trkpt><trkpt lat="44.061065298452185" lon="12.407923487705169"><ele>43.0</ele><time>2026-04-11T09:51:43Z</time></trkpt><trkpt lat="44.061166543954194" lon="12.407944993515484"><ele>43.0</ele><time>2026-04-11T09:51:45Z</time></trkpt><trkpt lat="44.06126587789295" lon="12.407971731964674"><ele>43.0</ele><time>2026-04-11T09:51:47Z</time></trkpt><trkpt lat="44.061363157732984" lon="12.407992652474457"><ele>43.0</ele><time>2026-04-11T09:51:49Z</time></trkpt><trkpt lat="44.061460908858514" lon="12.408021580988933"><ele>43.0</ele><time>2026-04-11T09:51:51Z</time></trkpt><trkpt lat="44.06155914599047" lon="12.408052728191985"><ele>43.0</ele><time>2026-04-11T09:51:53Z</time></trkpt><trkpt lat="44.06164979353297" lon="12.408083561514896"><ele>43.0</ele><time>2026-04-11T09:51:55Z</time></trkpt><trkpt lat="44.0617345340599" lon="12.408101952369979"><ele>43.0</ele><time>2026-04-11T09:51:57Z</time></trkpt><trkpt lat="44.06182936778606" lon="12.408133643613926"><ele>43.0</ele><time>2026-04-11T09:51:59Z</time></trkpt><trkpt lat="44.0619376373191" lon="12.408163430214053"><ele>42.8</ele><time>2026-04-11T09:52:01Z</time></trkpt><trkpt lat="44.06205373718985" lon="12.40819823368705"><ele>42.599999999999994</ele><time>2026-04-11T09:52:03Z</time></trkpt><trkpt lat="44.06216603782844" lon="12.408231499582143"><ele>42.400000000000006</ele><time>2026-04-11T09:52:05Z</time></trkpt><trkpt lat="44.06227224746796" lon="12.408276567677177"><ele>42.2</ele><time>2026-04-11T09:52:07Z</time></trkpt><trkpt lat="44.06236846681224" lon="12.408326699441295"><ele>42.0</ele><time>2026-04-11T09:52:09Z</time></trkpt><trkpt lat="44.06246739553172" lon="12.408368946857014"><ele>42.0</ele><time>2026-04-11T09:52:11Z</time></trkpt><trkpt lat="44.06256831756701" lon="12.408414471490724"><ele>42.0</ele><time>2026-04-11T09:52:13Z</time></trkpt><trkpt lat="44.06267073523936" lon="12.40846323126349"><ele>42.0</ele><time>2026-04-11T09:52:15.001Z</time></trkpt><trkpt lat="44.06277450489076" lon="12.408512970726466"><ele>42.0</ele><time>2026-04-11T09:52:17.001Z</time></trkpt><trkpt lat="44.062881334397304" lon="12.408544493197127"><ele>42.0</ele><time>2026-04-11T09:52:19.001Z</time></trkpt><trkpt lat="44.06298307427554" lon="12.408562578700423"><ele>42.0</ele><time>2026-04-11T09:52:21.001Z</time></trkpt><trkpt lat="44.06308275635049" lon="12.40857984257008"><ele>42.0</ele><time>2026-04-11T09:52:23.001Z</time></trkpt><trkpt lat="44.06318344603724" lon="12.408596694461822"><ele>42.0</ele><time>2026-04-11T09:52:25.001Z</time></trkpt><trkpt lat="44.06328508136135" lon="12.408615795493109"><ele>42.0</ele><time>2026-04-11T09:52:27.001Z</time></trkpt><trkpt lat="44.06338520952035" lon="12.408644405019395"><ele>42.0</ele><time>2026-04-11T09:52:29Z</time></trkpt><trkpt lat="44.0634828862977" lon="12.40867856630398"><ele>41.833333333333336</ele><time>2026-04-11T09:52:31Z</time></trkpt><trkpt lat="44.06357693157" lon="12.40872621210779"><ele>41.666666666666664</ele><time>2026-04-11T09:52:33Z</time></trkpt><trkpt lat="44.06366087609484" lon="12.40877517021224"><ele>41.5</ele><time>2026-04-11T09:52:35Z</time></trkpt><trkpt lat="44.06371885109304" lon="12.408822382046603"><ele>41.33333333333333</ele><time>2026-04-11T09:52:37Z</time></trkpt><trkpt lat="44.06379969978672" lon="12.408868162487225"><ele>41.166666666666664</ele><time>2026-04-11T09:52:40Z</time></trkpt><trkpt lat="44.063857229467054" lon="12.40893095737155"><ele>41.0</ele><time>2026-04-11T09:52:42Z</time></trkpt><trkpt lat="44.063943018218694" lon="12.408965525135992"><ele>41.0</ele><time>2026-04-11T09:52:44Z</time></trkpt><trkpt lat="44.064028809802586" lon="12.408999063654102"><ele>41.0</ele><time>2026-04-11T09:52:46Z</time></trkpt><trkpt lat="44.06412262624146" lon="12.409017213656133"><ele>41.0</ele><time>2026-04-11T09:52:48Z</time></trkpt><trkpt lat="44.06421858092223" lon="12.409033941517494"><ele>41.0</ele><time>2026-04-11T09:52:50Z</time></trkpt><trkpt lat="44.06431864660349" lon="12.409052257931299"><ele>41.0</ele><time>2026-04-11T09:52:52Z</time></trkpt><trkpt lat="44.06441589611015" lon="12.40905956392708"><ele>40.8</ele><time>2026-04-11T09:52:54Z</time></trkpt><trkpt lat="44.06451717337673" lon="12.409064899655492"><ele>40.599999999999994</ele><time>2026-04-11T09:52:56Z</time></trkpt><trkpt lat="44.064625413382615" lon="12.409062655214235"><ele>40.4</ele><time>2026-04-11T09:52:58Z</time></trkpt><trkpt lat="44.06473104798214" lon="12.409064486867315"><ele>40.2</ele><time>2026-04-11T09:53:00Z</time></trkpt><trkpt lat="44.06484161490019" lon="12.409059518641778"><ele>40.0</ele><time>2026-04-11T09:53:02Z</time></trkpt><trkpt lat="44.0649508012108" lon="12.409059896876204"><ele>40.0</ele><time>2026-04-11T09:53:04Z</time></trkpt><trkpt lat="44.065063280754465" lon="12.409060198223273"><ele>40.0</ele><time>2026-04-11T09:53:06Z</time></trkpt><trkpt lat="44.065175606339444" lon="12.409064438151455"><ele>40.0</ele><time>2026-04-11T09:53:08Z</time></trkpt><trkpt lat="44.06528880333968" lon="12.409066854389133"><ele>40.0</ele><time>2026-04-11T09:53:10Z</time></trkpt><trkpt lat="44.06540241287295" lon="12.409059892477588"><ele>40.0</ele><time>2026-04-11T09:53:12Z</time></trkpt><trkpt lat="44.06551552401031" lon="12.409050801667721"><ele>40.0</ele><time>2026-04-11T09:53:14Z</time></trkpt><trkpt lat="44.06562622230519" lon="12.40903490834842"><ele>40.0</ele><time>2026-04-11T09:53:16Z</time></trkpt><trkpt lat="44.06573980238251" lon="12.408995986397592"><ele>40.0</ele><time>2026-04-11T09:53:18Z</time></trkpt><trkpt lat="44.06582488120417" lon="12.408974060974375"><ele>40.0</ele><time>2026-04-11T09:53:20Z</time></trkpt><trkpt lat="44.06591112801469" lon="12.408925842527426"><ele>40.0</ele><time>2026-04-11T09:53:22Z</time></trkpt><trkpt lat="44.06598715475421" lon="12.408879205367368"><ele>40.0</ele><time>2026-04-11T09:53:24Z</time></trkpt><trkpt lat="44.06605482356294" lon="12.408825535216966"><ele>40.0</ele><time>2026-04-11T09:53:26Z</time></trkpt><trkpt lat="44.066121506617314" lon="12.408778721821637"><ele>40.0</ele><time>2026-04-11T09:53:28Z</time></trkpt><trkpt lat="44.06618288350584" lon="12.40873858939503"><ele>40.0</ele><time>2026-04-11T09:53:30Z</time></trkpt><trkpt lat="44.066261122469214" lon="12.408709870790126"><ele>40.0</ele><time>2026-04-11T09:53:33Z</time></trkpt><trkpt lat="44.06632553663463" lon="12.408730634985258"><ele>40.0</ele><time>2026-04-11T09:53:35Z</time></trkpt><trkpt lat="44.06640594280761" lon="12.40874190627711"><ele>40.0</ele><time>2026-04-11T09:53:37Z</time></trkpt><trkpt lat="44.066497878058144" lon="12.408741986284612"><ele>40.0</ele><time>2026-04-11T09:53:39Z</time></trkpt><trkpt lat="44.066589660872644" lon="12.408728165484433"><ele>40.0</ele><time>2026-04-11T09:53:41Z</time></trkpt><trkpt lat="44.06668605128785" lon="12.408708006821831"><ele>40.0</ele><time>2026-04-11T09:53:43Z</time></trkpt><trkpt lat="44.06677650779218" lon="12.408738198968521"><ele>39.8</ele><time>2026-04-11T09:53:45Z</time></trkpt><trkpt lat="44.066871264639666" lon="12.408727122117423"><ele>39.6</ele><time>2026-04-11T09:53:47Z</time></trkpt><trkpt lat="44.066964612351434" lon="12.40872270606958"><ele>39.4</ele><time>2026-04-11T09:53:49Z</time></trkpt><trkpt lat="44.06706104938486" lon="12.40872242856709"><ele>39.2</ele><time>2026-04-11T09:53:51Z</time></trkpt><trkpt lat="44.067158411106334" lon="12.40871978722846"><ele>39.0</ele><time>2026-04-11T09:53:53Z</time></trkpt><trkpt lat="44.067249381861984" lon="12.408710526904379"><ele>39.0</ele><time>2026-04-11T09:53:55Z</time></trkpt><trkpt lat="44.067333836637474" lon="12.40871619128878"><ele>39.0</ele><time>2026-04-11T09:53:57Z</time></trkpt><trkpt lat="44.06741189808897" lon="12.408708408879928"><ele>39.0</ele><time>2026-04-11T09:53:59Z</time></trkpt><trkpt lat="44.0674787474732" lon="12.408731264900501"><ele>39.0</ele><time>2026-04-11T09:54:01.001Z</time></trkpt><trkpt lat="44.06752787312452" lon="12.40880210996968"><ele>39.0</ele><time>2026-04-11T09:54:03.001Z</time></trkpt><trkpt lat="44.06753549421447" lon="12.408894212820764"><ele>39.0</ele><time>2026-04-11T09:54:05.001Z</time></trkpt><trkpt lat="44.067558701264566" lon="12.408976964899576"><ele>39.0</ele><time>2026-04-11T09:54:07.001Z</time></trkpt><trkpt lat="44.067600945237366" lon="12.409054248857196"><ele>39.0</ele><time>2026-04-11T09:54:09.001Z</time></trkpt><trkpt lat="44.0676496139587" lon="12.409137465786893"><ele>39.0</ele><time>2026-04-11T09:54:11.001Z</time></trkpt><trkpt lat="44.06769684884514" lon="12.409225640773336"><ele>39.0</ele><time>2026-04-11T09:54:13.001Z</time></trkpt><trkpt lat="44.067736294836244" lon="12.40932490810413"><ele>39.0</ele><time>2026-04-11T09:54:15.001Z</time></trkpt><trkpt lat="44.067758925598554" lon="12.409444866910352"><ele>39.0</ele><time>2026-04-11T09:54:17.001Z</time></trkpt><trkpt lat="44.06777024112386" lon="12.409567859341177"><ele>39.0</ele><time>2026-04-11T09:54:19.001Z</time></trkpt><trkpt lat="44.06778482924539" lon="12.409711028892303"><ele>39.0</ele><time>2026-04-11T09:54:21.001Z</time></trkpt><trkpt lat="44.067805972322134" lon="12.409854755851416"><ele>39.0</ele><time>2026-04-11T09:54:23.001Z</time></trkpt><trkpt lat="44.067808194517006" lon="12.409970425865414"><ele>39.0</ele><time>2026-04-11T09:54:25.001Z</time></trkpt><trkpt lat="44.067817639224586" lon="12.41009698006743"><ele>39.0</ele><time>2026-04-11T09:54:27.001Z</time></trkpt><trkpt lat="44.06782202710865" lon="12.410212106738832"><ele>39.0</ele><time>2026-04-11T09:54:29.001Z</time></trkpt><trkpt lat="44.0678259847577" lon="12.410322873469118"><ele>39.0</ele><time>2026-04-11T09:54:31.001Z</time></trkpt><trkpt lat="44.06782725987893" lon="12.410457661421795"><ele>38.833333333333336</ele><time>2026-04-11T09:54:33.001Z</time></trkpt><trkpt lat="44.067842083051026" lon="12.410555108489026"><ele>38.666666666666664</ele><time>2026-04-11T09:54:35Z</time></trkpt><trkpt lat="44.06784128207574" lon="12.410660482583005"><ele>38.5</ele><time>2026-04-11T09:54:37Z</time></trkpt><trkpt lat="44.06785434436194" lon="12.410776851252999"><ele>38.33333333333333</ele><time>2026-04-11T09:54:39Z</time></trkpt><trkpt lat="44.0678623002934" lon="12.410901131127641"><ele>38.166666666666664</ele><time>2026-04-11T09:54:41Z</time></trkpt><trkpt lat="44.06787549356354" lon="12.411019969478138"><ele>38.0</ele><time>2026-04-11T09:54:43Z</time></trkpt><trkpt lat="44.06788348943228" lon="12.411155614687015"><ele>38.0</ele><time>2026-04-11T09:54:45Z</time></trkpt><trkpt lat="44.067877234969316" lon="12.411249357468044"><ele>38.0</ele><time>2026-04-11T09:54:47Z</time></trkpt><trkpt lat="44.06788795152164" lon="12.411408202970875"><ele>38.0</ele><time>2026-04-11T09:54:49Z</time></trkpt><trkpt lat="44.067894801782" lon="12.411544464580063"><ele>38.0</ele><time>2026-04-11T09:54:51Z</time></trkpt><trkpt lat="44.067901425101475" lon="12.41168949635319"><ele>38.0</ele><time>2026-04-11T09:54:53Z</time></trkpt><trkpt lat="44.06790535475198" lon="12.411822887869508"><ele>38.0</ele><time>2026-04-11T09:54:55Z</time></trkpt><trkpt lat="44.06792383308649" lon="12.411946775626499"><ele>38.0</ele><time>2026-04-11T09:54:57Z</time></trkpt><trkpt lat="44.0679368147611" lon="12.412055715143254"><ele>38.0</ele><time>2026-04-11T09:54:59Z</time></trkpt><trkpt lat="44.06795319244083" lon="12.412183180374695"><ele>38.0</ele><time>2026-04-11T09:55:01Z</time></trkpt><trkpt lat="44.06796383565715" lon="12.412299787112854"><ele>38.0</ele><time>2026-04-11T09:55:03Z</time></trkpt><trkpt lat="44.06797029126962" lon="12.412387388620807"><ele>38.0</ele><time>2026-04-11T09:55:04Z</time></trkpt><trkpt lat="44.06799086629289" lon="12.412512062851143"><ele>38.0</ele><time>2026-04-11T09:55:07Z</time></trkpt><trkpt lat="44.068006190363484" lon="12.412620168711642"><ele>38.0</ele><time>2026-04-11T09:55:09Z</time></trkpt><trkpt lat="44.068020308302465" lon="12.412733439213493"><ele>38.0</ele><time>2026-04-11T09:55:11Z</time></trkpt><trkpt lat="44.06803231770962" lon="12.412860269101856"><ele>38.0</ele><time>2026-04-11T09:55:13Z</time></trkpt><trkpt lat="44.06804770516255" lon="12.412985662754137"><ele>38.0</ele><time>2026-04-11T09:55:15Z</time></trkpt><trkpt lat="44.06806515410851" lon="12.413109757156285"><ele>38.0</ele><time>2026-04-11T09:55:17Z</time></trkpt><trkpt lat="44.06807328788548" lon="12.413231659799198"><ele>38.166666666666664</ele><time>2026-04-11T09:55:19Z</time></trkpt><trkpt lat="44.06808918481897" lon="12.413342023143558"><ele>38.33333333333333</ele><time>2026-04-11T09:55:21Z</time></trkpt><trkpt lat="44.06810067745453" lon="12.413463551208121"><ele>38.5</ele><time>2026-04-11T09:55:23Z</time></trkpt><trkpt lat="44.06811273900007" lon="12.413580291844225"><ele>38.666666666666664</ele><time>2026-04-11T09:55:25Z</time></trkpt><trkpt lat="44.06812273545708" lon="12.413697848394017"><ele>38.833333333333336</ele><time>2026-04-11T09:55:27Z</time></trkpt><trkpt lat="44.068137398239976" lon="12.413820780079076"><ele>39.0</ele><time>2026-04-11T09:55:29Z</time></trkpt><trkpt lat="44.06815370677113" lon="12.413950269005479"><ele>38.666666666666664</ele><time>2026-04-11T09:55:31Z</time></trkpt><trkpt lat="44.06816834342395" lon="12.414067792941518"><ele>38.333333333333336</ele><time>2026-04-11T09:55:33Z</time></trkpt><trkpt lat="44.06818224762339" lon="12.414179677371811"><ele>38.0</ele><time>2026-04-11T09:55:35Z</time></trkpt><trkpt lat="44.06819177082205" lon="12.414291665913083"><ele>37.66666666666667</ele><time>2026-04-11T09:55:37Z</time></trkpt><trkpt lat="44.068209091450534" lon="12.41439502235272"><ele>37.333333333333336</ele><time>2026-04-11T09:55:39Z</time></trkpt><trkpt lat="44.06822041717551" lon="12.414508390207267"><ele>37.0</ele><time>2026-04-11T09:55:41Z</time></trkpt><trkpt lat="44.06823025069852" lon="12.414621941959629"><ele>36.800000000000004</ele><time>2026-04-11T09:55:43Z</time></trkpt><trkpt lat="44.06824277933916" lon="12.414743404626378"><ele>36.6</ele><time>2026-04-11T09:55:45Z</time></trkpt><trkpt lat="44.06825885131348" lon="12.414863600513206"><ele>36.400000000000006</ele><time>2026-04-11T09:55:47Z</time></trkpt><trkpt lat="44.06826891389254" lon="12.414995655289266"><ele>36.2</ele><time>2026-04-11T09:55:49Z</time></trkpt><trkpt lat="44.068296427278256" lon="12.415121398217893"><ele>36.0</ele><time>2026-04-11T09:55:51Z</time></trkpt><trkpt lat="44.06831269191027" lon="12.41524770907099"><ele>36.0</ele><time>2026-04-11T09:55:53Z</time></trkpt><trkpt lat="44.0683212866867" lon="12.415373042101573"><ele>36.0</ele><time>2026-04-11T09:55:55Z</time></trkpt><trkpt lat="44.068341266940664" lon="12.415494965638189"><ele>36.0</ele><time>2026-04-11T09:55:57Z</time></trkpt><trkpt lat="44.068353510775744" lon="12.415607235298037"><ele>36.0</ele><time>2026-04-11T09:55:59.001Z</time></trkpt><trkpt lat="44.068367055834365" lon="12.415714207873007"><ele>36.0</ele><time>2026-04-11T09:56:01.001Z</time></trkpt><trkpt lat="44.06836912473986" lon="12.41581652849754"><ele>36.0</ele><time>2026-04-11T09:56:04.001Z</time></trkpt><trkpt lat="44.06838033675054" lon="12.41593122512084"><ele>36.0</ele><time>2026-04-11T09:56:55Z</time></trkpt><trkpt lat="44.068392478006665" lon="12.416051859220193"><ele>36.0</ele><time>2026-04-11T09:56:58Z</time></trkpt><trkpt lat="44.06839862584654" lon="12.416176027734478"><ele>36.0</ele><time>2026-04-11T09:57:01Z</time></trkpt><trkpt lat="44.06839764114396" lon="12.41627412003629"><ele>36.0</ele><time>2026-04-11T09:57:03Z</time></trkpt><trkpt lat="44.06839933481448" lon="12.416369746207044"><ele>36.0</ele><time>2026-04-11T09:57:05Z</time></trkpt><trkpt lat="44.06840433607646" lon="12.416481315395298"><ele>36.0</ele><time>2026-04-11T09:57:07Z</time></trkpt><trkpt lat="44.068406027447466" lon="12.416609608904658"><ele>36.0</ele><time>2026-04-11T09:57:09Z</time></trkpt><trkpt lat="44.06840825138753" lon="12.41673323117927"><ele>36.0</ele><time>2026-04-11T09:57:11Z</time></trkpt><trkpt lat="44.068409506967505" lon="12.416870716940087"><ele>36.0</ele><time>2026-04-11T09:57:13Z</time></trkpt><trkpt lat="44.06841183186286" lon="12.41700058562398"><ele>36.0</ele><time>2026-04-11T09:57:15Z</time></trkpt><trkpt lat="44.0684086231036" lon="12.417138139456542"><ele>36.0</ele><time>2026-04-11T09:57:17Z</time></trkpt><trkpt lat="44.068418589495394" lon="12.417262257953388"><ele>35.833333333333336</ele><time>2026-04-11T09:57:19Z</time></trkpt><trkpt lat="44.068426833846225" lon="12.417376493980482"><ele>35.666666666666664</ele><time>2026-04-11T09:57:21Z</time></trkpt><trkpt lat="44.068435936669886" lon="12.417493141285371"><ele>35.5</ele><time>2026-04-11T09:57:23Z</time></trkpt><trkpt lat="44.068446250060525" lon="12.41760641472205"><ele>35.33333333333333</ele><time>2026-04-11T09:57:25Z</time></trkpt><trkpt lat="44.0684561529987" lon="12.417715600892723"><ele>35.166666666666664</ele><time>2026-04-11T09:57:27Z</time></trkpt><trkpt lat="44.06846297261439" lon="12.41781527642868"><ele>35.0</ele><time>2026-04-11T09:57:29Z</time></trkpt><trkpt lat="44.06848227871522" lon="12.417903063358462"><ele>35.0</ele><time>2026-04-11T09:57:31Z</time></trkpt><trkpt lat="44.06848710825095" lon="12.418018233450585"><ele>35.0</ele><time>2026-04-11T09:57:34Z</time></trkpt><trkpt lat="44.06855929587711" lon="12.418042892000374"><ele>35.0</ele><time>2026-04-11T09:57:46Z</time></trkpt><trkpt lat="44.068601665685016" lon="12.417963506124732"><ele>35.0</ele><time>2026-04-11T09:57:49Z</time></trkpt><trkpt lat="44.068632449728156" lon="12.417886098641361"><ele>35.0</ele><time>2026-04-11T09:57:51Z</time></trkpt><trkpt lat="44.06866132997098" lon="12.417803554128877"><ele>35.0</ele><time>2026-04-11T09:57:53Z</time></trkpt><trkpt lat="44.0687000187988" lon="12.417716850665256"><ele>35.0</ele><time>2026-04-11T09:57:55Z</time></trkpt><trkpt lat="44.06874168284768" lon="12.417627025674749"><ele>35.0</ele><time>2026-04-11T09:57:57Z</time></trkpt><trkpt lat="44.0687827386835" lon="12.417548612776013"><ele>35.0</ele><time>2026-04-11T09:57:59Z</time></trkpt><trkpt lat="44.06882513670604" lon="12.41746025890069"><ele>35.0</ele><time>2026-04-11T09:58:01.001Z</time></trkpt><trkpt lat="44.06890941286087" lon="12.417345092751797"><ele>35.0</ele><time>2026-04-11T09:58:03.001Z</time></trkpt><trkpt lat="44.06894572208021" lon="12.41724752935522"><ele>35.0</ele><time>2026-04-11T09:58:05.001Z</time></trkpt><trkpt lat="44.06899990178659" lon="12.417156510209924"><ele>35.0</ele><time>2026-04-11T09:58:07.001Z</time></trkpt><trkpt lat="44.06905203978371" lon="12.417058899875869"><ele>35.0</ele><time>2026-04-11T09:58:09.001Z</time></trkpt><trkpt lat="44.06911434757617" lon="12.416982407255986"><ele>35.0</ele><time>2026-04-11T09:58:11.001Z</time></trkpt><trkpt lat="44.06917017727211" lon="12.416865259042805"><ele>35.0</ele><time>2026-04-11T09:58:13.001Z</time></trkpt><trkpt lat="44.069232302165524" lon="12.416766549630026"><ele>35.0</ele><time>2026-04-11T09:58:15.001Z</time></trkpt><trkpt lat="44.069292017122685" lon="12.416660625262397"><ele>35.0</ele><time>2026-04-11T09:58:17.001Z</time></trkpt><trkpt lat="44.06935573133687" lon="12.416552252715215"><ele>35.0</ele><time>2026-04-11T09:58:19.001Z</time></trkpt><trkpt lat="44.0694173738298" lon="12.41644403680859"><ele>35.0</ele><time>2026-04-11T09:58:21.001Z</time></trkpt><trkpt lat="44.06948329747575" lon="12.416329814141621"><ele>35.0</ele><time>2026-04-11T09:58:23.001Z</time></trkpt><trkpt lat="44.0695520136993" lon="12.416219771243428"><ele>35.0</ele><time>2026-04-11T09:58:25.001Z</time></trkpt><trkpt lat="44.06961698635695" lon="12.416102037420426"><ele>35.0</ele><time>2026-04-11T09:58:27.001Z</time></trkpt><trkpt lat="44.069675698159145" lon="12.41599753330337"><ele>35.2</ele><time>2026-04-11T09:58:29.001Z</time></trkpt><trkpt lat="44.06971667238889" lon="12.415920481547815"><ele>35.4</ele><time>2026-04-11T09:58:30.001Z</time></trkpt><trkpt lat="44.069786491116346" lon="12.415799669422288"><ele>35.6</ele><time>2026-04-11T09:58:32.001Z</time></trkpt><trkpt lat="44.06985924469771" lon="12.415727173736103"><ele>35.8</ele><time>2026-04-11T09:58:33.001Z</time></trkpt><trkpt lat="44.06989300193645" lon="12.41560128043485"><ele>36.0</ele><time>2026-04-11T09:58:35.001Z</time></trkpt><trkpt lat="44.069943052457006" lon="12.41545668633109"><ele>36.0</ele><time>2026-04-11T09:58:37.001Z</time></trkpt><trkpt lat="44.06996480660002" lon="12.41531097925059"><ele>36.0</ele><time>2026-04-11T09:58:39.001Z</time></trkpt><trkpt lat="44.069983731806744" lon="12.415173937953293"><ele>36.0</ele><time>2026-04-11T09:58:41.001Z</time></trkpt><trkpt lat="44.06999950111474" lon="12.415026326595395"><ele>36.0</ele><time>2026-04-11T09:58:43.001Z</time></trkpt><trkpt lat="44.07001559769444" lon="12.41487920563265"><ele>36.0</ele><time>2026-04-11T09:58:45.001Z</time></trkpt><trkpt lat="44.070028656405846" lon="12.41473183789054"><ele>36.0</ele><time>2026-04-11T09:58:47Z</time></trkpt><trkpt lat="44.07003964899542" lon="12.414572738880608"><ele>36.0</ele><time>2026-04-11T09:58:49Z</time></trkpt><trkpt lat="44.07005840972674" lon="12.41441920791164"><ele>36.0</ele><time>2026-04-11T09:58:51Z</time></trkpt><trkpt lat="44.070071012919804" lon="12.414261169248636"><ele>36.0</ele><time>2026-04-11T09:58:53Z</time></trkpt><trkpt lat="44.070084948215325" lon="12.414106666376687"><ele>36.0</ele><time>2026-04-11T09:58:55Z</time></trkpt><trkpt lat="44.07010297025104" lon="12.413938881377355"><ele>36.0</ele><time>2026-04-11T09:58:57Z</time></trkpt><trkpt lat="44.07012267677448" lon="12.413772545749232"><ele>36.0</ele><time>2026-04-11T09:58:59Z</time></trkpt><trkpt lat="44.07013791892775" lon="12.413613199339066"><ele>36.0</ele><time>2026-04-11T09:59:01Z</time></trkpt><trkpt lat="44.07015674798057" lon="12.413454520790703"><ele>36.2</ele><time>2026-04-11T09:59:03Z</time></trkpt><trkpt lat="44.07017021583385" lon="12.413302084461836"><ele>36.400000000000006</ele><time>2026-04-11T09:59:05Z</time></trkpt><trkpt lat="44.07018263765891" lon="12.413125869526612"><ele>36.6</ele><time>2026-04-11T09:59:07Z</time></trkpt><trkpt lat="44.07020060037997" lon="12.412983472798453"><ele>36.800000000000004</ele><time>2026-04-11T09:59:09Z</time></trkpt><trkpt lat="44.070215975137714" lon="12.41284619979228"><ele>37.0</ele><time>2026-04-11T09:59:11Z</time></trkpt><trkpt lat="44.070228061208425" lon="12.412713456415096"><ele>37.0</ele><time>2026-04-11T09:59:13Z</time></trkpt><trkpt lat="44.07024167763221" lon="12.412579676551902"><ele>37.0</ele><time>2026-04-11T09:59:15Z</time></trkpt><trkpt lat="44.07025426359335" lon="12.412434394570127"><ele>37.0</ele><time>2026-04-11T09:59:17Z</time></trkpt><trkpt lat="44.07026881019535" lon="12.412287756363765"><ele>37.0</ele><time>2026-04-11T09:59:19Z</time></trkpt><trkpt lat="44.07028472553001" lon="12.412140321805962"><ele>37.0</ele><time>2026-04-11T09:59:21Z</time></trkpt><trkpt lat="44.07029890487295" lon="12.411989547699"><ele>37.0</ele><time>2026-04-11T09:59:23Z</time></trkpt><trkpt lat="44.070317033017794" lon="12.411835037832047"><ele>37.0</ele><time>2026-04-11T09:59:25Z</time></trkpt><trkpt lat="44.07033125469857" lon="12.411681198789406"><ele>37.0</ele><time>2026-04-11T09:59:27Z</time></trkpt><trkpt lat="44.07035386627466" lon="12.41153930021099"><ele>37.0</ele><time>2026-04-11T09:59:29Z</time></trkpt><trkpt lat="44.07037064547938" lon="12.411408590255755"><ele>37.0</ele><time>2026-04-11T09:59:31Z</time></trkpt><trkpt lat="44.07039479560291" lon="12.41128676269853"><ele>37.2</ele><time>2026-04-11T09:59:33Z</time></trkpt><trkpt lat="44.07042805893531" lon="12.411168538560592"><ele>37.400000000000006</ele><time>2026-04-11T09:59:35Z</time></trkpt><trkpt lat="44.070460821870604" lon="12.411053365992732"><ele>37.599999999999994</ele><time>2026-04-11T09:59:37Z</time></trkpt><trkpt lat="44.070552572424475" lon="12.410997891851027"><ele>37.8</ele><time>2026-04-11T09:59:40Z</time></trkpt><trkpt lat="44.07063942930337" lon="12.411009425205508"><ele>38.0</ele><time>2026-04-11T09:59:42Z</time></trkpt><trkpt lat="44.07072879694504" lon="12.411008154226755"><ele>37.6</ele><time>2026-04-11T09:59:44Z</time></trkpt><trkpt lat="44.07082581749693" lon="12.410995418370126"><ele>37.199999999999996</ele><time>2026-04-11T09:59:46Z</time></trkpt><trkpt lat="44.07092412352975" lon="12.41098956140847"><ele>36.8</ele><time>2026-04-11T09:59:48Z</time></trkpt><trkpt lat="44.071024586354746" lon="12.410987712340535"><ele>36.4</ele><time>2026-04-11T09:59:50Z</time></trkpt><trkpt lat="44.07112811481706" lon="12.410988423501962"><ele>36.0</ele><time>2026-04-11T09:59:52Z</time></trkpt><trkpt lat="44.07123248593326" lon="12.410990523502011"><ele>36.0</ele><time>2026-04-11T09:59:54Z</time></trkpt><trkpt lat="44.07133747671553" lon="12.410995967613971"><ele>36.0</ele><time>2026-04-11T09:59:56Z</time></trkpt><trkpt lat="44.071438642825875" lon="12.411005389715859"><ele>36.0</ele><time>2026-04-11T09:59:58Z</time></trkpt><trkpt lat="44.071530737631186" lon="12.411014600337731"><ele>36.0</ele><time>2026-04-11T10:00:00Z</time></trkpt><trkpt lat="44.071617755273806" lon="12.41105334277646"><ele>36.0</ele><time>2026-04-11T10:00:02Z</time></trkpt><trkpt lat="44.07170357401973" lon="12.411069554589565"><ele>35.5</ele><time>2026-04-11T10:00:04Z</time></trkpt><trkpt lat="44.07178813420681" lon="12.411084393042886"><ele>35.0</ele><time>2026-04-11T10:00:06Z</time></trkpt><trkpt lat="44.07186261579946" lon="12.411112930152083"><ele>34.5</ele><time>2026-04-11T10:00:08Z</time></trkpt><trkpt lat="44.071932843734146" lon="12.411140591536764"><ele>34.0</ele><time>2026-04-11T10:00:10Z</time></trkpt><trkpt lat="44.07200540444817" lon="12.411157686580237"><ele>33.5</ele><time>2026-04-11T10:00:12Z</time></trkpt><trkpt lat="44.07207942502013" lon="12.411179282503127"><ele>33.0</ele><time>2026-04-11T10:00:14Z</time></trkpt><trkpt lat="44.072155666905026" lon="12.411196343521556"><ele>33.0</ele><time>2026-04-11T10:00:16.001Z</time></trkpt><trkpt lat="44.072230759409415" lon="12.41120858148364"><ele>33.0</ele><time>2026-04-11T10:00:18.001Z</time></trkpt><trkpt lat="44.07230926784586" lon="12.411218811380655"><ele>33.0</ele><time>2026-04-11T10:00:20.001Z</time></trkpt><trkpt lat="44.072385347734986" lon="12.41122866455517"><ele>33.0</ele><time>2026-04-11T10:00:22.001Z</time></trkpt><trkpt lat="44.07246586394938" lon="12.411233971148546"><ele>33.0</ele><time>2026-04-11T10:00:24.001Z</time></trkpt><trkpt lat="44.072541784439004" lon="12.411237155007255"><ele>33.0</ele><time>2026-04-11T10:00:26.001Z</time></trkpt><trkpt lat="44.07261702279881" lon="12.41123937174048"><ele>32.833333333333336</ele><time>2026-04-11T10:00:28.001Z</time></trkpt><trkpt lat="44.07269971789647" lon="12.411244101685318"><ele>32.666666666666664</ele><time>2026-04-11T10:00:30.001Z</time></trkpt><trkpt lat="44.07276272707702" lon="12.41124511173241"><ele>32.5</ele><time>2026-04-11T10:00:32.001Z</time></trkpt><trkpt lat="44.07284831830992" lon="12.411251507243357"><ele>32.33333333333333</ele><time>2026-04-11T10:00:34.001Z</time></trkpt><trkpt lat="44.07294064372332" lon="12.41126250401643"><ele>32.166666666666664</ele><time>2026-04-11T10:00:36.001Z</time></trkpt><trkpt lat="44.07302674931828" lon="12.411267444442444"><ele>32.0</ele><time>2026-04-11T10:00:38.001Z</time></trkpt><trkpt lat="44.07311245717434" lon="12.41129020233543"><ele>31.999999999999996</ele><time>2026-04-11T10:00:40.001Z</time></trkpt><trkpt lat="44.07318769651994" lon="12.411311293739296"><ele>32.0</ele><time>2026-04-11T10:00:42.001Z</time></trkpt><trkpt lat="44.07326653840545" lon="12.411334401267254"><ele>32.0</ele><time>2026-04-11T10:00:44.001Z</time></trkpt><trkpt lat="44.07334387768033" lon="12.41135095529449"><ele>32.0</ele><time>2026-04-11T10:00:46.001Z</time></trkpt><trkpt lat="44.07342112902574" lon="12.411362523263104"><ele>31.999999999999996</ele><time>2026-04-11T10:00:48.001Z</time></trkpt><trkpt lat="44.07349300660859" lon="12.411397286460495"><ele>32.0</ele><time>2026-04-11T10:00:50.001Z</time></trkpt><trkpt lat="44.07356615002676" lon="12.41142713638815"><ele>31.999999999999996</ele><time>2026-04-11T10:00:52.001Z</time></trkpt><trkpt lat="44.073636825583954" lon="12.411454391129636"><ele>32.0</ele><time>2026-04-11T10:00:54Z</time></trkpt><trkpt lat="44.07369749155367" lon="12.411494688383213"><ele>32.0</ele><time>2026-04-11T10:00:56Z</time></trkpt><trkpt lat="44.07377291241572" lon="12.411517425136859"><ele>32.0</ele><time>2026-04-11T10:00:58Z</time></trkpt><trkpt lat="44.07384998390758" lon="12.411542678121995"><ele>31.999999999999996</ele><time>2026-04-11T10:01:00Z</time></trkpt><trkpt lat="44.07393022092421" lon="12.411569361776445"><ele>32.0</ele><time>2026-04-11T10:01:02Z</time></trkpt><trkpt lat="44.0740090173514" lon="12.411594432885007"><ele>31.999999999999996</ele><time>2026-04-11T10:01:04Z</time></trkpt><trkpt lat="44.07409527073454" lon="12.411601033262508"><ele>32.0</ele><time>2026-04-11T10:01:06Z</time></trkpt><trkpt lat="44.074162817519856" lon="12.411576582837"><ele>32.0</ele><time>2026-04-11T10:01:08Z</time></trkpt><trkpt lat="44.07422746148639" lon="12.411455694115935"><ele>32.0</ele><time>2026-04-11T10:01:11Z</time></trkpt><trkpt lat="44.074280926703835" lon="12.411389978157196"><ele>31.999999999999996</ele><time>2026-04-11T10:01:14Z</time></trkpt><trkpt lat="44.074335263999856" lon="12.4113118918579"><ele>32.0</ele><time>2026-04-11T10:01:16Z</time></trkpt><trkpt lat="44.07440975909779" lon="12.411274526836893"><ele>32.166666666666664</ele><time>2026-04-11T10:01:18Z</time></trkpt><trkpt lat="44.07448939904494" lon="12.4112583244932"><ele>32.33333333333333</ele><time>2026-04-11T10:01:20Z</time></trkpt><trkpt lat="44.07456628397903" lon="12.411256070817585"><ele>32.5</ele><time>2026-04-11T10:01:22Z</time></trkpt><trkpt lat="44.07465172071028" lon="12.411244907712385"><ele>32.666666666666664</ele><time>2026-04-11T10:01:24Z</time></trkpt><trkpt lat="44.07473586097438" lon="12.411230749826297"><ele>32.833333333333336</ele><time>2026-04-11T10:01:26Z</time></trkpt><trkpt lat="44.07481707508734" lon="12.41122407177461"><ele>33.0</ele><time>2026-04-11T10:01:28Z</time></trkpt><trkpt lat="44.07489752053168" lon="12.41122374723161"><ele>32.833333333333336</ele><time>2026-04-11T10:01:30Z</time></trkpt><trkpt lat="44.07498240873841" lon="12.411221808092789"><ele>32.666666666666664</ele><time>2026-04-11T10:01:32Z</time></trkpt><trkpt lat="44.07506156541551" lon="12.411215677568649"><ele>32.5</ele><time>2026-04-11T10:01:34Z</time></trkpt><trkpt lat="44.075139574132834" lon="12.411207955289152"><ele>32.33333333333333</ele><time>2026-04-11T10:01:36Z</time></trkpt><trkpt lat="44.07522915584554" lon="12.411202961859276"><ele>32.166666666666664</ele><time>2026-04-11T10:01:39Z</time></trkpt><trkpt lat="44.075298534337186" lon="12.411153169395966"><ele>32.0</ele><time>2026-04-11T10:01:44Z</time></trkpt><trkpt lat="44.07529260552939" lon="12.411024755052493"><ele>32.0</ele><time>2026-04-11T10:01:47Z</time></trkpt><trkpt lat="44.07526796096078" lon="12.410896310042633"><ele>32.0</ele><time>2026-04-11T10:01:50Z</time></trkpt><trkpt lat="44.075262923707456" lon="12.410804386247216"><ele>32.0</ele><time>2026-04-11T10:01:52Z</time></trkpt><trkpt lat="44.07524982229345" lon="12.410683854389024"><ele>32.0</ele><time>2026-04-11T10:01:55Z</time></trkpt><trkpt lat="44.07523960397731" lon="12.410578467247975"><ele>32.0</ele><time>2026-04-11T10:01:58Z</time></trkpt><trkpt lat="44.075211530087486" lon="12.41040725354057"><ele>32.33333333333333</ele><time>2026-04-11T10:02:33.001Z</time></trkpt><trkpt lat="44.075187390579856" lon="12.41028833245115"><ele>32.666666666666664</ele><time>2026-04-11T10:02:36.001Z</time></trkpt><trkpt lat="44.07517334910273" lon="12.410192184186583"><ele>33.0</ele><time>2026-04-11T10:02:38.001Z</time></trkpt><trkpt lat="44.075165596260504" lon="12.41005756591343"><ele>33.333333333333336</ele><time>2026-04-11T10:02:40.001Z</time></trkpt><trkpt lat="44.075143675184066" lon="12.409967608426912"><ele>33.66666666666667</ele><time>2026-04-11T10:02:42.001Z</time></trkpt><trkpt lat="44.07512726441312" lon="12.409847823578508"><ele>34.0</ele><time>2026-04-11T10:02:44.001Z</time></trkpt><trkpt lat="44.07510894522222" lon="12.409723874698566"><ele>34.4</ele><time>2026-04-11T10:02:46.001Z</time></trkpt><trkpt lat="44.075088967549924" lon="12.409599746719778"><ele>34.8</ele><time>2026-04-11T10:02:48.001Z</time></trkpt><trkpt lat="44.075068393800265" lon="12.409478370810714"><ele>35.2</ele><time>2026-04-11T10:02:50.001Z</time></trkpt><trkpt lat="44.07504445292852" lon="12.409359896805853"><ele>35.6</ele><time>2026-04-11T10:02:52.001Z</time></trkpt><trkpt lat="44.07502232768003" lon="12.409229217590422"><ele>36.0</ele><time>2026-04-11T10:02:54.001Z</time></trkpt><trkpt lat="44.075003058885315" lon="12.409097259048774"><ele>36.0</ele><time>2026-04-11T10:02:56.001Z</time></trkpt><trkpt lat="44.074982932342586" lon="12.408960575743516"><ele>36.0</ele><time>2026-04-11T10:02:58.001Z</time></trkpt><trkpt lat="44.07496316565486" lon="12.408824682082349"><ele>36.0</ele><time>2026-04-11T10:03:00Z</time></trkpt><trkpt lat="44.07494420020404" lon="12.408675847900723"><ele>36.0</ele><time>2026-04-11T10:03:02Z</time></trkpt><trkpt lat="44.074928483352274" lon="12.408544040199446"><ele>36.0</ele><time>2026-04-11T10:03:04Z</time></trkpt><trkpt lat="44.074924796821904" lon="12.408400216547944"><ele>35.8</ele><time>2026-04-11T10:03:06Z</time></trkpt><trkpt lat="44.07493398051724" lon="12.408268091125686"><ele>35.6</ele><time>2026-04-11T10:03:08Z</time></trkpt><trkpt lat="44.07494594107105" lon="12.40813882355813"><ele>35.4</ele><time>2026-04-11T10:03:10Z</time></trkpt><trkpt lat="44.07497065276318" lon="12.408014202599992"><ele>35.2</ele><time>2026-04-11T10:03:12Z</time></trkpt><trkpt lat="44.07501673922586" lon="12.407901827328747"><ele>35.0</ele><time>2026-04-11T10:03:14Z</time></trkpt><trkpt lat="44.075079844645934" lon="12.407804163284819"><ele>35.0</ele><time>2026-04-11T10:03:16Z</time></trkpt><trkpt lat="44.07519552876105" lon="12.407775079189939"><ele>35.0</ele><time>2026-04-11T10:03:18Z</time></trkpt><trkpt lat="44.07531087458219" lon="12.407773944475922"><ele>35.0</ele><time>2026-04-11T10:03:20Z</time></trkpt><trkpt lat="44.075425171449254" lon="12.407783713550245"><ele>35.0</ele><time>2026-04-11T10:03:22Z</time></trkpt><trkpt lat="44.07553392512131" lon="12.407791108449"><ele>35.0</ele><time>2026-04-11T10:03:24Z</time></trkpt><trkpt lat="44.07564364106878" lon="12.407786233731313"><ele>35.0</ele><time>2026-04-11T10:03:26Z</time></trkpt><trkpt lat="44.07575385547022" lon="12.407792601673963"><ele>35.0</ele><time>2026-04-11T10:03:28Z</time></trkpt><trkpt lat="44.07587315738822" lon="12.407759713486145"><ele>35.0</ele><time>2026-04-11T10:03:30Z</time></trkpt><trkpt lat="44.07595764234698" lon="12.407680685095862"><ele>35.0</ele><time>2026-04-11T10:03:32Z</time></trkpt><trkpt lat="44.076031401467795" lon="12.407558949683954"><ele>34.8</ele><time>2026-04-11T10:03:34Z</time></trkpt><trkpt lat="44.076103852400074" lon="12.407442199290465"><ele>34.6</ele><time>2026-04-11T10:03:36Z</time></trkpt><trkpt lat="44.076154881791915" lon="12.407302131985906"><ele>34.4</ele><time>2026-04-11T10:03:38Z</time></trkpt><trkpt lat="44.0761814992896" lon="12.407163570944146"><ele>34.2</ele><time>2026-04-11T10:03:40Z</time></trkpt><trkpt lat="44.076207301526836" lon="12.407080475122395"><ele>34.0</ele><time>2026-04-11T10:03:41Z</time></trkpt><trkpt lat="44.07621661127903" lon="12.406948493460058"><ele>34.0</ele><time>2026-04-11T10:03:43Z</time></trkpt><trkpt lat="44.076248761662946" lon="12.406803761696352"><ele>34.0</ele><time>2026-04-11T10:03:45Z</time></trkpt><trkpt lat="44.07627518010346" lon="12.40665733340115"><ele>34.0</ele><time>2026-04-11T10:03:47Z</time></trkpt><trkpt lat="44.07629897395833" lon="12.406511882163548"><ele>34.0</ele><time>2026-04-11T10:03:49Z</time></trkpt><trkpt lat="44.07631075137713" lon="12.40637229476001"><ele>34.0</ele><time>2026-04-11T10:03:51Z</time></trkpt><trkpt lat="44.07633942796954" lon="12.40623421066242"><ele>34.0</ele><time>2026-04-11T10:03:53Z</time></trkpt><trkpt lat="44.07636155988131" lon="12.406091621048592"><ele>34.0</ele><time>2026-04-11T10:03:55Z</time></trkpt><trkpt lat="44.076386039621845" lon="12.405945366785343"><ele>34.0</ele><time>2026-04-11T10:03:57Z</time></trkpt><trkpt lat="44.076410834897274" lon="12.405802666917788"><ele>34.0</ele><time>2026-04-11T10:03:59Z</time></trkpt><trkpt lat="44.07643209181676" lon="12.405661416967645"><ele>34.0</ele><time>2026-04-11T10:04:01Z</time></trkpt><trkpt lat="44.07645903491535" lon="12.405511902636322"><ele>33.8</ele><time>2026-04-11T10:04:03Z</time></trkpt><trkpt lat="44.076484027258864" lon="12.405368721012039"><ele>33.599999999999994</ele><time>2026-04-11T10:04:05Z</time></trkpt><trkpt lat="44.07650878249195" lon="12.405223713744265"><ele>33.4</ele><time>2026-04-11T10:04:07Z</time></trkpt><trkpt lat="44.07653314421031" lon="12.405087121819475"><ele>33.199999999999996</ele><time>2026-04-11T10:04:09Z</time></trkpt><trkpt lat="44.07656286105462" lon="12.404937998568291"><ele>33.0</ele><time>2026-04-11T10:04:11Z</time></trkpt><trkpt lat="44.07658243008707" lon="12.40479722534542"><ele>33.0</ele><time>2026-04-11T10:04:13Z</time></trkpt><trkpt lat="44.07660214539639" lon="12.404666906041978"><ele>33.0</ele><time>2026-04-11T10:04:15Z</time></trkpt><trkpt lat="44.07662631948733" lon="12.404494073093572"><ele>33.0</ele><time>2026-04-11T10:04:17Z</time></trkpt><trkpt lat="44.07664915340779" lon="12.404398413884488"><ele>33.0</ele><time>2026-04-11T10:04:19.001Z</time></trkpt><trkpt lat="44.07667193317421" lon="12.404263159124145"><ele>33.0</ele><time>2026-04-11T10:04:21.001Z</time></trkpt><trkpt lat="44.0766984758854" lon="12.404133676351965"><ele>32.8</ele><time>2026-04-11T10:04:23.001Z</time></trkpt><trkpt lat="44.076723927104915" lon="12.404001265610379"><ele>32.599999999999994</ele><time>2026-04-11T10:04:25.001Z</time></trkpt><trkpt lat="44.07674886672632" lon="12.40386903209045"><ele>32.400000000000006</ele><time>2026-04-11T10:04:27.001Z</time></trkpt><trkpt lat="44.076771274224065" lon="12.4037343128085"><ele>32.2</ele><time>2026-04-11T10:04:29.001Z</time></trkpt><trkpt lat="44.07679929207555" lon="12.403596322265692"><ele>32.0</ele><time>2026-04-11T10:04:31.001Z</time></trkpt><trkpt lat="44.07682734798198" lon="12.403465808600249"><ele>32.0</ele><time>2026-04-11T10:04:33.001Z</time></trkpt><trkpt lat="44.07685535789122" lon="12.403326827139983"><ele>32.0</ele><time>2026-04-11T10:04:35.001Z</time></trkpt><trkpt lat="44.076883125019805" lon="12.403192852635742"><ele>32.0</ele><time>2026-04-11T10:04:37.001Z</time></trkpt><trkpt lat="44.07691614906374" lon="12.40305834519633"><ele>32.0</ele><time>2026-04-11T10:04:39.001Z</time></trkpt><trkpt lat="44.07694851377088" lon="12.40294979006995"><ele>32.0</ele><time>2026-04-11T10:04:41.001Z</time></trkpt><trkpt lat="44.076965388457715" lon="12.402853425814845"><ele>31.8</ele><time>2026-04-11T10:04:42.001Z</time></trkpt><trkpt lat="44.076997973749826" lon="12.402709115400729"><ele>31.6</ele><time>2026-04-11T10:04:44.001Z</time></trkpt><trkpt lat="44.07703708954231" lon="12.402565310811832"><ele>31.400000000000002</ele><time>2026-04-11T10:04:46.001Z</time></trkpt><trkpt lat="44.0770788670473" lon="12.402418975725086"><ele>31.200000000000003</ele><time>2026-04-11T10:04:48.001Z</time></trkpt><trkpt lat="44.07712637772284" lon="12.402287120486063"><ele>31.0</ele><time>2026-04-11T10:04:50.001Z</time></trkpt><trkpt lat="44.07718298349142" lon="12.402171576001237"><ele>30.8</ele><time>2026-04-11T10:04:52.001Z</time></trkpt><trkpt lat="44.077241879409144" lon="12.402053549481794"><ele>30.6</ele><time>2026-04-11T10:04:54.001Z</time></trkpt><trkpt lat="44.077301119675035" lon="12.40192636511412"><ele>30.4</ele><time>2026-04-11T10:04:56.001Z</time></trkpt><trkpt lat="44.07736673591791" lon="12.401798397853925"><ele>30.2</ele><time>2026-04-11T10:04:58.001Z</time></trkpt><trkpt lat="44.07743282514936" lon="12.401652672389702"><ele>30.0</ele><time>2026-04-11T10:05:00.001Z</time></trkpt><trkpt lat="44.07751304346766" lon="12.401560995641853"><ele>30.4</ele><time>2026-04-11T10:05:02.001Z</time></trkpt><trkpt lat="44.07753925322817" lon="12.401465865838123"><ele>30.8</ele><time>2026-04-11T10:05:03.001Z</time></trkpt><trkpt lat="44.077603655934986" lon="12.401325027358258"><ele>31.200000000000003</ele><time>2026-04-11T10:05:05Z</time></trkpt><trkpt lat="44.077669896663785" lon="12.401188623355337"><ele>31.6</ele><time>2026-04-11T10:05:07Z</time></trkpt><trkpt lat="44.07773624658128" lon="12.401058110622447"><ele>32.0</ele><time>2026-04-11T10:05:09Z</time></trkpt><trkpt lat="44.07779218062908" lon="12.400932878966875"><ele>32.0</ele><time>2026-04-11T10:05:11Z</time></trkpt><trkpt lat="44.077846243060534" lon="12.400816181100511"><ele>32.0</ele><time>2026-04-11T10:05:13Z</time></trkpt><trkpt lat="44.07789943423324" lon="12.400699573904488"><ele>32.0</ele><time>2026-04-11T10:05:15Z</time></trkpt><trkpt lat="44.07795706472239" lon="12.400583755297646"><ele>32.0</ele><time>2026-04-11T10:05:17Z</time></trkpt><trkpt lat="44.07801530944194" lon="12.400469496358697"><ele>32.0</ele><time>2026-04-11T10:05:19Z</time></trkpt><trkpt lat="44.0780771589908" lon="12.400350258973877"><ele>31.8</ele><time>2026-04-11T10:05:21Z</time></trkpt><trkpt lat="44.07813734971068" lon="12.40022785195425"><ele>31.6</ele><time>2026-04-11T10:05:23Z</time></trkpt><trkpt lat="44.07820050456717" lon="12.400116040877732"><ele>31.400000000000002</ele><time>2026-04-11T10:05:25Z</time></trkpt><trkpt lat="44.0782665866127" lon="12.399994391001433"><ele>31.200000000000003</ele><time>2026-04-11T10:05:27Z</time></trkpt><trkpt lat="44.078326383765244" lon="12.39987458492157"><ele>31.0</ele><time>2026-04-11T10:05:29Z</time></trkpt><trkpt lat="44.078386672778436" lon="12.399756373251234"><ele>31.0</ele><time>2026-04-11T10:05:31Z</time></trkpt><trkpt lat="44.078445631977125" lon="12.399633905824"><ele>31.0</ele><time>2026-04-11T10:05:33Z</time></trkpt><trkpt lat="44.07850792941535" lon="12.399515804424132"><ele>31.0</ele><time>2026-04-11T10:05:35Z</time></trkpt><trkpt lat="44.0785702570389" lon="12.399398833209132"><ele>31.0</ele><time>2026-04-11T10:05:37Z</time></trkpt><trkpt lat="44.07863107360376" lon="12.399286763448297"><ele>31.0</ele><time>2026-04-11T10:05:39Z</time></trkpt><trkpt lat="44.07868676616863" lon="12.399167227517983"><ele>31.0</ele><time>2026-04-11T10:05:41Z</time></trkpt><trkpt lat="44.07872749634267" lon="12.399050507607452"><ele>31.000000000000004</ele><time>2026-04-11T10:05:43Z</time></trkpt><trkpt lat="44.07872848948028" lon="12.398954404601245"><ele>31.0</ele><time>2026-04-11T10:05:45Z</time></trkpt><trkpt lat="44.078719441703825" lon="12.398866559699963"><ele>31.0</ele><time>2026-04-11T10:05:46Z</time></trkpt><trkpt lat="44.078685279359455" lon="12.398774475674026"><ele>31.000000000000004</ele><time>2026-04-11T10:05:48Z</time></trkpt><trkpt lat="44.07865018676758" lon="12.39869243705137"><ele>31.0</ele><time>2026-04-11T10:05:50Z</time></trkpt><trkpt lat="44.0786446513752" lon="12.398594383972636"><ele>31.0</ele><time>2026-04-11T10:05:52Z</time></trkpt><trkpt lat="44.07863683638877" lon="12.398483759943398"><ele>31.000000000000004</ele><time>2026-04-11T10:05:55Z</time></trkpt><trkpt lat="44.078590492911886" lon="12.398377185272418"><ele>31.0</ele><time>2026-04-11T10:05:57Z</time></trkpt><trkpt lat="44.07857629765265" lon="12.398261280098895"><ele>31.0</ele><time>2026-04-11T10:05:59Z</time></trkpt><trkpt lat="44.078562894463516" lon="12.398149797311692"><ele>31.0</ele><time>2026-04-11T10:06:01Z</time></trkpt><trkpt lat="44.07854597477484" lon="12.398024724583104"><ele>31.000000000000004</ele><time>2026-04-11T10:06:03Z</time></trkpt><trkpt lat="44.07853388288711" lon="12.39791420457837"><ele>31.0</ele><time>2026-04-11T10:06:05Z</time></trkpt><trkpt lat="44.078518662428564" lon="12.397781138047035"><ele>31.0</ele><time>2026-04-11T10:06:07Z</time></trkpt><trkpt lat="44.07850470876816" lon="12.397654732097655"><ele>31.0</ele><time>2026-04-11T10:06:09Z</time></trkpt><trkpt lat="44.07848922819581" lon="12.397528847213747"><ele>31.0</ele><time>2026-04-11T10:06:11Z</time></trkpt><trkpt lat="44.07847292071401" lon="12.397396558675345"><ele>31.0</ele><time>2026-04-11T10:06:13Z</time></trkpt><trkpt lat="44.07845921885132" lon="12.397269640978752"><ele>31.0</ele><time>2026-04-11T10:06:15Z</time></trkpt><trkpt lat="44.07843888343295" lon="12.397141195924215"><ele>31.4</ele><time>2026-04-11T10:06:17.001Z</time></trkpt><trkpt lat="44.07842394694471" lon="12.397011482806935"><ele>31.8</ele><time>2026-04-11T10:06:19.001Z</time></trkpt><trkpt lat="44.078407295614916" lon="12.396883096095427"><ele>32.199999999999996</ele><time>2026-04-11T10:06:21.001Z</time></trkpt><trkpt lat="44.07839375903884" lon="12.396753846413144"><ele>32.6</ele><time>2026-04-11T10:06:23.001Z</time></trkpt><trkpt lat="44.07837443818038" lon="12.396626509775723"><ele>33.0</ele><time>2026-04-11T10:06:25.001Z</time></trkpt><trkpt lat="44.07835483002458" lon="12.396495053487001"><ele>33.0</ele><time>2026-04-11T10:06:27.001Z</time></trkpt><trkpt lat="44.07832646818941" lon="12.39636581619093"><ele>33.0</ele><time>2026-04-11T10:06:29.001Z</time></trkpt><trkpt lat="44.07829330114579" lon="12.396243679069254"><ele>33.0</ele><time>2026-04-11T10:06:31.001Z</time></trkpt><trkpt lat="44.07825107278072" lon="12.396125336140251"><ele>33.0</ele><time>2026-04-11T10:06:33.001Z</time></trkpt><trkpt lat="44.07820487833734" lon="12.39602525942669"><ele>33.0</ele><time>2026-04-11T10:06:35.001Z</time></trkpt><trkpt lat="44.078162038102015" lon="12.395926585042243"><ele>33.166666666666664</ele><time>2026-04-11T10:06:37.001Z</time></trkpt><trkpt lat="44.078120907833735" lon="12.395817544427706"><ele>33.333333333333336</ele><time>2026-04-11T10:06:39.001Z</time></trkpt><trkpt lat="44.07807269790726" lon="12.39571204766951"><ele>33.5</ele><time>2026-04-11T10:06:41.001Z</time></trkpt><trkpt lat="44.07803198151019" lon="12.395606801252269"><ele>33.66666666666667</ele><time>2026-04-11T10:06:43.001Z</time></trkpt><trkpt lat="44.07798550263285" lon="12.395499203838428"><ele>33.833333333333336</ele><time>2026-04-11T10:06:45.001Z</time></trkpt><trkpt lat="44.07794249281294" lon="12.395399184523564"><ele>34.0</ele><time>2026-04-11T10:06:47.001Z</time></trkpt><trkpt lat="44.07789813810635" lon="12.39529346041204"><ele>33.6</ele><time>2026-04-11T10:06:49.001Z</time></trkpt><trkpt lat="44.077853660358514" lon="12.395176720416043"><ele>33.2</ele><time>2026-04-11T10:06:51.001Z</time></trkpt><trkpt lat="44.07780736485107" lon="12.39506055808917"><ele>32.800000000000004</ele><time>2026-04-11T10:06:53.001Z</time></trkpt><trkpt lat="44.07775968808504" lon="12.39494545667413"><ele>32.4</ele><time>2026-04-11T10:06:55.001Z</time></trkpt><trkpt lat="44.07771940238849" lon="12.394832311544508"><ele>32.0</ele><time>2026-04-11T10:06:57.001Z</time></trkpt><trkpt lat="44.07769066343673" lon="12.394726554380505"><ele>31.999999999999996</ele><time>2026-04-11T10:06:59.001Z</time></trkpt><trkpt lat="44.07767699562391" lon="12.394623209388445"><ele>32.0</ele><time>2026-04-11T10:07:01.001Z</time></trkpt><trkpt lat="44.07765115732073" lon="12.39453152554335"><ele>32.0</ele><time>2026-04-11T10:07:03.001Z</time></trkpt><trkpt lat="44.07761498010612" lon="12.394409301092495"><ele>32.0</ele><time>2026-04-11T10:07:06.001Z</time></trkpt><trkpt lat="44.07759001207231" lon="12.394325172642793"><ele>31.999999999999996</ele><time>2026-04-11T10:07:08.001Z</time></trkpt><trkpt lat="44.077562719188066" lon="12.394228513223009"><ele>32.0</ele><time>2026-04-11T10:07:10.001Z</time></trkpt><trkpt lat="44.07754993431149" lon="12.394131840562132"><ele>31.999999999999996</ele><time>2026-04-11T10:07:12Z</time></trkpt><trkpt lat="44.07754338858779" lon="12.394040519892991"><ele>32.0</ele><time>2026-04-11T10:07:14Z</time></trkpt><trkpt lat="44.077546223045154" lon="12.393932346256994"><ele>32.0</ele><time>2026-04-11T10:07:17Z</time></trkpt><trkpt lat="44.07754299444332" lon="12.39384365486261"><ele>32.0</ele><time>2026-04-11T10:07:20Z</time></trkpt><trkpt lat="44.07754875386515" lon="12.393747992666885"><ele>31.999999999999996</ele><time>2026-04-11T10:07:24Z</time></trkpt><trkpt lat="44.077538153969314" lon="12.39362930563049"><ele>32.0</ele><time>2026-04-11T10:07:28Z</time></trkpt><trkpt lat="44.07754011724497" lon="12.393500215071956"><ele>31.999999999999996</ele><time>2026-04-11T10:07:31Z</time></trkpt><trkpt lat="44.07753366092361" lon="12.39340291202057"><ele>32.0</ele><time>2026-04-11T10:07:33Z</time></trkpt><trkpt lat="44.077540107562385" lon="12.393293004746887"><ele>32.0</ele><time>2026-04-11T10:07:35Z</time></trkpt><trkpt lat="44.07754618416639" lon="12.393180863360636"><ele>32.0</ele><time>2026-04-11T10:07:37Z</time></trkpt><trkpt lat="44.07754977542705" lon="12.393066066847346"><ele>31.999999999999996</ele><time>2026-04-11T10:07:39Z</time></trkpt><trkpt lat="44.0775520218834" lon="12.392943152373647"><ele>32.0</ele><time>2026-04-11T10:07:41Z</time></trkpt><trkpt lat="44.077551821730886" lon="12.392818387442018"><ele>31.999999999999996</ele><time>2026-04-11T10:07:43Z</time></trkpt><trkpt lat="44.07754736914563" lon="12.392679943948004"><ele>32.0</ele><time>2026-04-11T10:07:45Z</time></trkpt><trkpt lat="44.077550524449215" lon="12.392559082457831"><ele>32.0</ele><time>2026-04-11T10:07:47Z</time></trkpt><trkpt lat="44.077544561229125" lon="12.39244536478786"><ele>32.0</ele><time>2026-04-11T10:07:49Z</time></trkpt><trkpt lat="44.07753770627832" lon="12.392340994254868"><ele>31.999999999999996</ele><time>2026-04-11T10:07:51Z</time></trkpt><trkpt lat="44.07753792782042" lon="12.392249870374672"><ele>32.0</ele><time>2026-04-11T10:07:53Z</time></trkpt><trkpt lat="44.077523323636285" lon="12.39212922581741"><ele>31.999999999999996</ele><time>2026-04-11T10:07:56Z</time></trkpt><trkpt lat="44.0775170248481" lon="12.392013659576696"><ele>32.0</ele><time>2026-04-11T10:07:59Z</time></trkpt><trkpt lat="44.07751253668003" lon="12.391914695238478"><ele>32.0</ele><time>2026-04-11T10:08:02Z</time></trkpt><trkpt lat="44.0775168430229" lon="12.391811463252978"><ele>32.0</ele><time>2026-04-11T10:08:05Z</time></trkpt><trkpt lat="44.07754042180965" lon="12.39170669806876"><ele>31.999999999999996</ele><time>2026-04-11T10:08:08.001Z</time></trkpt><trkpt lat="44.077575294087396" lon="12.391605665851213"><ele>32.0</ele><time>2026-04-11T10:08:11.001Z</time></trkpt><trkpt lat="44.077613354083674" lon="12.391498410489042"><ele>31.999999999999996</ele><time>2026-04-11T10:08:14.001Z</time></trkpt><trkpt lat="44.077637422084194" lon="12.391409594620544"><ele>32.0</ele><time>2026-04-11T10:08:16.001Z</time></trkpt><trkpt lat="44.077675685007065" lon="12.391314653244986"><ele>32.0</ele><time>2026-04-11T10:08:19.001Z</time></trkpt><trkpt lat="44.077713796322264" lon="12.391219449523918"><ele>32.0</ele><time>2026-04-11T10:08:22.001Z</time></trkpt><trkpt lat="44.07775307043273" lon="12.391122032270722"><ele>31.999999999999996</ele><time>2026-04-11T10:08:25.001Z</time></trkpt><trkpt lat="44.07779661007669" lon="12.391014505234914"><ele>32.0</ele><time>2026-04-11T10:08:28.001Z</time></trkpt><trkpt lat="44.077842600062425" lon="12.390916546371596"><ele>32.5</ele><time>2026-04-11T10:08:31.001Z</time></trkpt><trkpt lat="44.07789749218832" lon="12.390833145020162"><ele>33.0</ele><time>2026-04-11T10:08:34.001Z</time></trkpt><trkpt lat="44.07794968162934" lon="12.390732651541743"><ele>33.5</ele><time>2026-04-11T10:08:37.001Z</time></trkpt><trkpt lat="44.07800215147965" lon="12.390655019890639"><ele>34.0</ele><time>2026-04-11T10:08:40.001Z</time></trkpt><trkpt lat="44.07805773343743" lon="12.390546157830949"><ele>34.5</ele><time>2026-04-11T10:08:43.001Z</time></trkpt><trkpt lat="44.07810534532841" lon="12.390488434772672"><ele>35.0</ele><time>2026-04-11T10:08:46.001Z</time></trkpt><trkpt lat="44.078152181954984" lon="12.39041217071328"><ele>36.0</ele><time>2026-04-11T10:08:49.001Z</time></trkpt><trkpt lat="44.078197037653574" lon="12.390336850375139"><ele>37.0</ele><time>2026-04-11T10:08:52.001Z</time></trkpt><trkpt lat="44.078249400469446" lon="12.390265310606893"><ele>38.0</ele><time>2026-04-11T10:08:56.001Z</time></trkpt><trkpt lat="44.07829101732794" lon="12.390197451173837"><ele>39.0</ele><time>2026-04-11T10:08:59.001Z</time></trkpt><trkpt lat="44.07833997667245" lon="12.390122977223605"><ele>40.0</ele><time>2026-04-11T10:09:03.001Z</time></trkpt><trkpt lat="44.07839144916" lon="12.3900264076294"><ele>41.0</ele><time>2026-04-11T10:09:07.001Z</time></trkpt><trkpt lat="44.07843684228828" lon="12.38995059429976"><ele>42.0</ele><time>2026-04-11T10:09:10.001Z</time></trkpt><trkpt lat="44.07848768552236" lon="12.389866202818945"><ele>42.0</ele><time>2026-04-11T10:09:14.001Z</time></trkpt><trkpt lat="44.07853032302515" lon="12.389787669562564"><ele>42.0</ele><time>2026-04-11T10:09:17Z</time></trkpt><trkpt lat="44.078580699691855" lon="12.389696521113684"><ele>42.0</ele><time>2026-04-11T10:09:21Z</time></trkpt><trkpt lat="44.07861908021126" lon="12.389618131339033"><ele>42.0</ele><time>2026-04-11T10:09:24Z</time></trkpt><trkpt lat="44.07866256689941" lon="12.389527813666803"><ele>42.0</ele><time>2026-04-11T10:09:27Z</time></trkpt><trkpt lat="44.07870863090343" lon="12.389432521304858"><ele>42.0</ele><time>2026-04-11T10:09:30Z</time></trkpt><trkpt lat="44.07876799320078" lon="12.389376169039542"><ele>42.666666666666664</ele><time>2026-04-11T10:09:33Z</time></trkpt><trkpt lat="44.07884384934454" lon="12.389431552327395"><ele>43.333333333333336</ele><time>2026-04-11T10:09:36Z</time></trkpt><trkpt lat="44.07889989724359" lon="12.389503855288043"><ele>44.0</ele><time>2026-04-11T10:09:38Z</time></trkpt><trkpt lat="44.07896908622008" lon="12.38956687357745"><ele>44.66666666666667</ele><time>2026-04-11T10:09:40Z</time></trkpt><trkpt lat="44.07904561738735" lon="12.389633504878717"><ele>45.333333333333336</ele><time>2026-04-11T10:09:42Z</time></trkpt><trkpt lat="44.079127200189866" lon="12.389695730543108"><ele>46.0</ele><time>2026-04-11T10:09:44Z</time></trkpt><trkpt lat="44.07921152829889" lon="12.389751361574339"><ele>46.0</ele><time>2026-04-11T10:09:46Z</time></trkpt><trkpt lat="44.07929264579157" lon="12.389823732739583"><ele>46.0</ele><time>2026-04-11T10:09:48Z</time></trkpt><trkpt lat="44.07938705422902" lon="12.389875039250855"><ele>46.0</ele><time>2026-04-11T10:09:50Z</time></trkpt><trkpt lat="44.079458800493455" lon="12.389930749336822"><ele>46.0</ele><time>2026-04-11T10:09:52Z</time></trkpt><trkpt lat="44.07953303557755" lon="12.389981489182087"><ele>46.0</ele><time>2026-04-11T10:09:54Z</time></trkpt><trkpt lat="44.079615053935285" lon="12.390026792072831"><ele>46.0</ele><time>2026-04-11T10:09:56Z</time></trkpt><trkpt lat="44.07970275854592" lon="12.390069614976337"><ele>46.0</ele><time>2026-04-11T10:09:58Z</time></trkpt><trkpt lat="44.079846765428904" lon="12.390119317870347"><ele>46.0</ele><time>2026-04-11T10:10:01Z</time></trkpt><trkpt lat="44.07994134128806" lon="12.390149700486283"><ele>46.0</ele><time>2026-04-11T10:10:03Z</time></trkpt><trkpt lat="44.08004131724371" lon="12.390173130523621"><ele>46.0</ele><time>2026-04-11T10:10:05Z</time></trkpt><trkpt lat="44.08014040024482" lon="12.39020007441884"><ele>45.8</ele><time>2026-04-11T10:10:07Z</time></trkpt><trkpt lat="44.08023583485065" lon="12.390212369490268"><ele>45.599999999999994</ele><time>2026-04-11T10:10:09Z</time></trkpt><trkpt lat="44.08032928471367" lon="12.39022392630674"><ele>45.4</ele><time>2026-04-11T10:10:11Z</time></trkpt><trkpt lat="44.08041944389447" lon="12.390222918217187"><ele>45.2</ele><time>2026-04-11T10:10:13Z</time></trkpt><trkpt lat="44.08051030108459" lon="12.39021010403047"><ele>45.0</ele><time>2026-04-11T10:10:15Z</time></trkpt><trkpt lat="44.08061015934619" lon="12.390201201544528"><ele>45.0</ele><time>2026-04-11T10:10:17Z</time></trkpt><trkpt lat="44.08071357871994" lon="12.390203907328894"><ele>45.0</ele><time>2026-04-11T10:10:19Z</time></trkpt><trkpt lat="44.08079714966802" lon="12.390258488103159"><ele>45.0</ele><time>2026-04-11T10:10:21Z</time></trkpt><trkpt lat="44.080863215614734" lon="12.390286447475543"><ele>45.0</ele><time>2026-04-11T10:10:22Z</time></trkpt><trkpt lat="44.08094145017888" lon="12.390305217131381"><ele>45.0</ele><time>2026-04-11T10:10:23Z</time></trkpt><trkpt lat="44.081001494681885" lon="12.390370563901623"><ele>45.0</ele><time>2026-04-11T10:10:24Z</time></trkpt><trkpt lat="44.08107787917378" lon="12.390449091626763"><ele>44.0</ele><time>2026-04-11T10:10:25Z</time></trkpt><trkpt lat="44.08092813833605" lon="12.390153145776093"><ele>43.0</ele><time>2026-04-11T10:10:26Z</time></trkpt><trkpt lat="44.08099100461589" lon="12.390125565404931"><ele>42.0</ele><time>2026-04-11T10:10:28.001Z</time></trkpt><trkpt lat="44.08109828340661" lon="12.39012147516393"><ele>41.0</ele><time>2026-04-11T10:10:30.001Z</time></trkpt><trkpt lat="44.08122636447352" lon="12.390106991477188"><ele>40.99999999999999</ele><time>2026-04-11T10:10:32.001Z</time></trkpt><trkpt lat="44.08129254970109" lon="12.39009685344314"><ele>41.0</ele><time>2026-04-11T10:10:33.001Z</time></trkpt><trkpt lat="44.08136206575636" lon="12.390082382492851"><ele>41.0</ele><time>2026-04-11T10:10:34.001Z</time></trkpt><trkpt lat="44.08143089659578" lon="12.390072134191193"><ele>41.0</ele><time>2026-04-11T10:10:35.001Z</time></trkpt><trkpt lat="44.08150024917469" lon="12.390060004303"><ele>41.0</ele><time>2026-04-11T10:10:36.001Z</time></trkpt><trkpt lat="44.08156650823973" lon="12.39004118521382"><ele>40.99999999999999</ele><time>2026-04-11T10:10:37.001Z</time></trkpt><trkpt lat="44.08162931832794" lon="12.390016426832643"><ele>41.0</ele><time>2026-04-11T10:10:38.001Z</time></trkpt><trkpt lat="44.08175627925195" lon="12.389992691017854"><ele>40.33333333333333</ele><time>2026-04-11T10:10:40.001Z</time></trkpt><trkpt lat="44.08187606602074" lon="12.389963367863242"><ele>39.666666666666664</ele><time>2026-04-11T10:10:42.001Z</time></trkpt><trkpt lat="44.081938790615375" lon="12.389955849952338"><ele>39.0</ele><time>2026-04-11T10:10:43.001Z</time></trkpt><trkpt lat="44.08200625480787" lon="12.38993599376605"><ele>38.333333333333336</ele><time>2026-04-11T10:10:44.001Z</time></trkpt><trkpt lat="44.08208062994888" lon="12.389930626058094"><ele>37.66666666666667</ele><time>2026-04-11T10:10:45.001Z</time></trkpt><trkpt lat="44.082154874988035" lon="12.389918448697085"><ele>37.0</ele><time>2026-04-11T10:10:46.001Z</time></trkpt><trkpt lat="44.08222099195516" lon="12.389908591216022"><ele>37.0</ele><time>2026-04-11T10:10:47.001Z</time></trkpt><trkpt lat="44.08229021208272" lon="12.389895095053022"><ele>37.0</ele><time>2026-04-11T10:10:48.001Z</time></trkpt><trkpt lat="44.082420267193996" lon="12.389877061898648"><ele>37.0</ele><time>2026-04-11T10:10:50.001Z</time></trkpt><trkpt lat="44.082483170190386" lon="12.38986004602158"><ele>37.0</ele><time>2026-04-11T10:10:51.001Z</time></trkpt><trkpt lat="44.0825455658607" lon="12.389848041691623"><ele>37.0</ele><time>2026-04-11T10:10:52.001Z</time></trkpt><trkpt lat="44.08261318648999" lon="12.389836727204097"><ele>37.0</ele><time>2026-04-11T10:10:53.001Z</time></trkpt><trkpt lat="44.08273900519143" lon="12.389813098170368"><ele>36.6</ele><time>2026-04-11T10:10:55.001Z</time></trkpt><trkpt lat="44.082801596729865" lon="12.389796030674635"><ele>36.2</ele><time>2026-04-11T10:10:56.001Z</time></trkpt><trkpt lat="44.08291868431079" lon="12.38976861097673"><ele>35.8</ele><time>2026-04-11T10:10:58.001Z</time></trkpt><trkpt lat="44.08303433586371" lon="12.38974081362048"><ele>35.4</ele><time>2026-04-11T10:11:00.001Z</time></trkpt><trkpt lat="44.083143583468136" lon="12.389708346775926"><ele>35.0</ele><time>2026-04-11T10:11:02.001Z</time></trkpt><trkpt lat="44.08324967672477" lon="12.38968380430807"><ele>34.6</ele><time>2026-04-11T10:11:04.001Z</time></trkpt><trkpt lat="44.08335530044216" lon="12.389660302925613"><ele>34.2</ele><time>2026-04-11T10:11:06.001Z</time></trkpt><trkpt lat="44.08344858056174" lon="12.389637430072122"><ele>33.8</ele><time>2026-04-11T10:11:08.001Z</time></trkpt><trkpt lat="44.083536178168565" lon="12.389619124402756"><ele>33.4</ele><time>2026-04-11T10:11:10.001Z</time></trkpt><trkpt lat="44.083624484856635" lon="12.38960401849782"><ele>33.0</ele><time>2026-04-11T10:11:12.001Z</time></trkpt><trkpt lat="44.08371854388923" lon="12.389582747640093"><ele>33.0</ele><time>2026-04-11T10:11:14.001Z</time></trkpt><trkpt lat="44.083819142825135" lon="12.38956120733503"><ele>33.0</ele><time>2026-04-11T10:11:16.001Z</time></trkpt><trkpt lat="44.083920447743836" lon="12.389554476661527"><ele>33.0</ele><time>2026-04-11T10:11:18.001Z</time></trkpt><trkpt lat="44.08402600698983" lon="12.389534114403746"><ele>33.0</ele><time>2026-04-11T10:11:20.001Z</time></trkpt><trkpt lat="44.08413507720786" lon="12.389516054728508"><ele>33.0</ele><time>2026-04-11T10:11:22.001Z</time></trkpt><trkpt lat="44.08424472725365" lon="12.389500272960397"><ele>33.0</ele><time>2026-04-11T10:11:24Z</time></trkpt><trkpt lat="44.084354180003785" lon="12.389484900235942"><ele>33.0</ele><time>2026-04-11T10:11:26Z</time></trkpt><trkpt lat="44.08446075209881" lon="12.389464084038915"><ele>33.0</ele><time>2026-04-11T10:11:28Z</time></trkpt><trkpt lat="44.084570138359354" lon="12.389454903404866"><ele>33.0</ele><time>2026-04-11T10:11:30Z</time></trkpt><trkpt lat="44.084677119496824" lon="12.389454397910578"><ele>33.0</ele><time>2026-04-11T10:11:32Z</time></trkpt><trkpt lat="44.084787469100704" lon="12.389452393238821"><ele>33.0</ele><time>2026-04-11T10:11:34Z</time></trkpt><trkpt lat="44.08489941409236" lon="12.389449797170194"><ele>33.0</ele><time>2026-04-11T10:11:36Z</time></trkpt><trkpt lat="44.08501879316447" lon="12.389464387135412"><ele>33.0</ele><time>2026-04-11T10:11:38Z</time></trkpt><trkpt lat="44.08513805547182" lon="12.389478180698376"><ele>33.0</ele><time>2026-04-11T10:11:40Z</time></trkpt><trkpt lat="44.085249973671345" lon="12.389491124169885"><ele>33.199999999999996</ele><time>2026-04-11T10:11:42Z</time></trkpt><trkpt lat="44.08535781971323" lon="12.389513428104832"><ele>33.4</ele><time>2026-04-11T10:11:44Z</time></trkpt><trkpt lat="44.08545533768533" lon="12.389539079614472"><ele>33.599999999999994</ele><time>2026-04-11T10:11:46Z</time></trkpt><trkpt lat="44.085552069945095" lon="12.389574467157336"><ele>33.8</ele><time>2026-04-11T10:11:48Z</time></trkpt><trkpt lat="44.085641896707266" lon="12.389600587168985"><ele>34.0</ele><time>2026-04-11T10:11:50Z</time></trkpt><trkpt lat="44.08572749871829" lon="12.389637428572135"><ele>34.333333333333336</ele><time>2026-04-11T10:11:52Z</time></trkpt><trkpt lat="44.08580303861428" lon="12.389683622572372"><ele>34.66666666666667</ele><time>2026-04-11T10:11:54Z</time></trkpt><trkpt lat="44.08584721049052" lon="12.38980315819391"><ele>35.0</ele><time>2026-04-11T10:11:56Z</time></trkpt><trkpt lat="44.08583863312841" lon="12.389909437387733"><ele>35.333333333333336</ele><time>2026-04-11T10:11:58Z</time></trkpt><trkpt lat="44.085821970568205" lon="12.390049460348848"><ele>35.666666666666664</ele><time>2026-04-11T10:12:00Z</time></trkpt><trkpt lat="44.08581859800802" lon="12.390175145668822"><ele>36.0</ele><time>2026-04-11T10:12:02Z</time></trkpt><trkpt lat="44.085793065494194" lon="12.390311090053363"><ele>36.0</ele><time>2026-04-11T10:12:04Z</time></trkpt><trkpt lat="44.085762084183564" lon="12.390445123733967"><ele>36.0</ele><time>2026-04-11T10:12:06Z</time></trkpt><trkpt lat="44.085754420154" lon="12.390584637722677"><ele>36.0</ele><time>2026-04-11T10:12:08Z</time></trkpt><trkpt lat="44.08575875038564" lon="12.390732469915827"><ele>36.0</ele><time>2026-04-11T10:12:10Z</time></trkpt><trkpt lat="44.0857223794796" lon="12.390873304297342"><ele>36.0</ele><time>2026-04-11T10:12:12Z</time></trkpt><trkpt lat="44.085688874632126" lon="12.391020427652569"><ele>35.833333333333336</ele><time>2026-04-11T10:12:14Z</time></trkpt><trkpt lat="44.085643119738435" lon="12.391116427534477"><ele>35.666666666666664</ele><time>2026-04-11T10:12:16Z</time></trkpt><trkpt lat="44.08557974742083" lon="12.391175640248887"><ele>35.5</ele><time>2026-04-11T10:12:20Z</time></trkpt><trkpt lat="44.085510442076746" lon="12.391174182569461"><ele>35.33333333333333</ele><time>2026-04-11T10:12:40.001Z</time></trkpt><trkpt lat="44.08545310119603" lon="12.391122240725823"><ele>35.166666666666664</ele><time>2026-04-11T10:12:44.001Z</time></trkpt><trkpt lat="44.085400677680155" lon="12.391049649560948"><ele>35.0</ele><time>2026-04-11T10:12:47.001Z</time></trkpt><trkpt lat="44.085329290371945" lon="12.390992805800652"><ele>35.0</ele><time>2026-04-11T10:12:50.001Z</time></trkpt><trkpt lat="44.08525647939903" lon="12.391042965188761"><ele>35.0</ele><time>2026-04-11T10:12:54.001Z</time></trkpt><trkpt lat="44.08521357257956" lon="12.391151982347525"><ele>35.0</ele><time>2026-04-11T10:12:57.001Z</time></trkpt><trkpt lat="44.08517448012354" lon="12.39124961552843"><ele>35.0</ele><time>2026-04-11T10:13:00.001Z</time></trkpt><trkpt lat="44.085137357451494" lon="12.391367939014504"><ele>35.0</ele><time>2026-04-11T10:13:03.001Z</time></trkpt><trkpt lat="44.085113188023826" lon="12.391449282037048"><ele>35.0</ele><time>2026-04-11T10:13:05.001Z</time></trkpt><trkpt lat="44.08514038782176" lon="12.39153853033988"><ele>35.0</ele><time>2026-04-11T10:13:07.001Z</time></trkpt><trkpt lat="44.08518588739534" lon="12.391619299727333"><ele>35.0</ele><time>2026-04-11T10:13:09.001Z</time></trkpt><trkpt lat="44.08524532943809" lon="12.39169287007772"><ele>35.0</ele><time>2026-04-11T10:13:11.001Z</time></trkpt><trkpt lat="44.0853292314662" lon="12.391732669172939"><ele>35.0</ele><time>2026-04-11T10:13:13.001Z</time></trkpt><trkpt lat="44.08541477522968" lon="12.391771639116625"><ele>35.0</ele><time>2026-04-11T10:13:15.001Z</time></trkpt><trkpt lat="44.08548117397707" lon="12.391834473703268"><ele>35.0</ele><time>2026-04-11T10:13:17.001Z</time></trkpt><trkpt lat="44.08554162217435" lon="12.391889387268392"><ele>35.0</ele><time>2026-04-11T10:13:19.001Z</time></trkpt><trkpt lat="44.08561591789528" lon="12.391937837942313"><ele>35.0</ele><time>2026-04-11T10:13:21.001Z</time></trkpt><trkpt lat="44.08570061938247" lon="12.391990680033938"><ele>35.0</ele><time>2026-04-11T10:13:24.001Z</time></trkpt><trkpt lat="44.08577041582661" lon="12.392004293218111"><ele>35.0</ele><time>2026-04-11T10:13:26.001Z</time></trkpt><trkpt lat="44.085847946076065" lon="12.392021289743269"><ele>35.0</ele><time>2026-04-11T10:13:28.001Z</time></trkpt><trkpt lat="44.08593805878216" lon="12.392002264382203"><ele>35.0</ele><time>2026-04-11T10:13:30Z</time></trkpt><trkpt lat="44.08604414576243" lon="12.392026008633106"><ele>34.25</ele><time>2026-04-11T10:13:32Z</time></trkpt><trkpt lat="44.08611314320822" lon="12.392056535173932"><ele>33.5</ele><time>2026-04-11T10:13:33Z</time></trkpt><trkpt lat="44.08621814450481" lon="12.392123439928024"><ele>32.75</ele><time>2026-04-11T10:13:34Z</time></trkpt><trkpt lat="44.086301235227545" lon="12.392157173110995"><ele>32.0</ele><time>2026-04-11T10:13:35Z</time></trkpt><trkpt lat="44.08622000028547" lon="12.391929267779725"><ele>31.999999999999996</ele><time>2026-04-11T10:13:36Z</time></trkpt><trkpt lat="44.086288168788265" lon="12.391849052472265"><ele>32.0</ele><time>2026-04-11T10:13:38Z</time></trkpt><trkpt lat="44.086361977923495" lon="12.39178851826338"><ele>32.0</ele><time>2026-04-11T10:13:40Z</time></trkpt><trkpt lat="44.08643806853345" lon="12.39174174676623"><ele>32.0</ele><time>2026-04-11T10:13:42Z</time></trkpt><trkpt lat="44.086514801317264" lon="12.391730564342604"><ele>31.999999999999996</ele><time>2026-04-11T10:13:44Z</time></trkpt><trkpt lat="44.086589514646235" lon="12.391829000984007"><ele>32.0</ele><time>2026-04-11T10:13:46Z</time></trkpt><trkpt lat="44.08665411685457" lon="12.391923876293049"><ele>31.833333333333332</ele><time>2026-04-11T10:13:48Z</time></trkpt><trkpt lat="44.08672741495767" lon="12.392006726795815"><ele>31.666666666666664</ele><time>2026-04-11T10:13:50Z</time></trkpt><trkpt lat="44.08679353967444" lon="12.392067898983344"><ele>31.5</ele><time>2026-04-11T10:13:52Z</time></trkpt><trkpt lat="44.08684527408739" lon="12.392117849252328"><ele>31.333333333333336</ele><time>2026-04-11T10:13:54Z</time></trkpt><trkpt lat="44.086908102814185" lon="12.392174755998685"><ele>31.166666666666668</ele><time>2026-04-11T10:13:56Z</time></trkpt><trkpt lat="44.0869883387478" lon="12.392208784066383"><ele>31.0</ele><time>2026-04-11T10:13:59Z</time></trkpt><trkpt lat="44.08705556669605" lon="12.392257962426715"><ele>31.000000000000004</ele><time>2026-04-11T10:14:02Z</time></trkpt><trkpt lat="44.08714492526454" lon="12.392283807740098"><ele>31.0</ele><time>2026-04-11T10:14:05Z</time></trkpt><trkpt lat="44.08722094551819" lon="12.392257861610963"><ele>31.0</ele><time>2026-04-11T10:14:07Z</time></trkpt><trkpt lat="44.0872902519731" lon="12.39228966052627"><ele>31.0</ele><time>2026-04-11T10:14:10Z</time></trkpt><trkpt lat="44.08735944003798" lon="12.39231276258724"><ele>31.000000000000004</ele><time>2026-04-11T10:14:12Z</time></trkpt><trkpt lat="44.08743991984141" lon="12.392313284670292"><ele>31.0</ele><time>2026-04-11T10:14:14Z</time></trkpt><trkpt lat="44.08753299597016" lon="12.392324148580338"><ele>31.000000000000004</ele><time>2026-04-11T10:14:17Z</time></trkpt><trkpt lat="44.0875985481248" lon="12.392315871169767"><ele>31.0</ele><time>2026-04-11T10:14:19Z</time></trkpt><trkpt lat="44.087663184618876" lon="12.392305382986097"><ele>31.0</ele><time>2026-04-11T10:14:21Z</time></trkpt><trkpt lat="44.08774092358135" lon="12.392290514996724"><ele>31.0</ele><time>2026-04-11T10:14:24.001Z</time></trkpt><trkpt lat="44.087824028107065" lon="12.392262799929204"><ele>31.000000000000004</ele><time>2026-04-11T10:14:28.001Z</time></trkpt><trkpt lat="44.08791931322858" lon="12.392244619203977"><ele>31.0</ele><time>2026-04-11T10:14:31.001Z</time></trkpt><trkpt lat="44.08798171405547" lon="12.392269891974358"><ele>31.000000000000004</ele><time>2026-04-11T10:14:33.001Z</time></trkpt><trkpt lat="44.08805770772814" lon="12.392303217461995"><ele>31.0</ele><time>2026-04-11T10:14:36.001Z</time></trkpt><trkpt lat="44.08812959354326" lon="12.392333514043923"><ele>31.0</ele><time>2026-04-11T10:14:39.001Z</time></trkpt><trkpt lat="44.08820384394366" lon="12.39239762067133"><ele>31.0</ele><time>2026-04-11T10:14:42.001Z</time></trkpt><trkpt lat="44.088237277535036" lon="12.392525058358041"><ele>31.000000000000004</ele><time>2026-04-11T10:14:45.001Z</time></trkpt><trkpt lat="44.088229693319626" lon="12.392625483200355"><ele>31.0</ele><time>2026-04-11T10:14:47.001Z</time></trkpt><trkpt lat="44.08821371569716" lon="12.392735583225782"><ele>31.000000000000004</ele><time>2026-04-11T10:14:49.001Z</time></trkpt><trkpt lat="44.088225868795206" lon="12.392836023286286"><ele>31.0</ele><time>2026-04-11T10:14:51.001Z</time></trkpt><trkpt lat="44.08824809440468" lon="12.392932713422542"><ele>31.0</ele><time>2026-04-11T10:14:53.001Z</time></trkpt><trkpt lat="44.08826347326829" lon="12.393044955455862"><ele>31.0</ele><time>2026-04-11T10:14:56.001Z</time></trkpt><trkpt lat="44.08828974241758" lon="12.393154554092806"><ele>31.000000000000004</ele><time>2026-04-11T10:14:59.001Z</time></trkpt><trkpt lat="44.08832245983778" lon="12.39326239230392"><ele>31.0</ele><time>2026-04-11T10:15:02.001Z</time></trkpt><trkpt lat="44.08835867586349" lon="12.393354751364276"><ele>31.000000000000004</ele><time>2026-04-11T10:15:05.001Z</time></trkpt><trkpt lat="44.08840877068001" lon="12.39342030502492"><ele>31.0</ele><time>2026-04-11T10:15:08.001Z</time></trkpt><trkpt lat="44.08849218212491" lon="12.393470429635695"><ele>31.0</ele><time>2026-04-11T10:15:11.001Z</time></trkpt><trkpt lat="44.0885652545044" lon="12.393543914909072"><ele>31.0</ele><time>2026-04-11T10:15:13.001Z</time></trkpt><trkpt lat="44.08863014368044" lon="12.39361950864209"><ele>31.000000000000004</ele><time>2026-04-11T10:15:15.001Z</time></trkpt><trkpt lat="44.08869339826373" lon="12.39371716549036"><ele>31.0</ele><time>2026-04-11T10:15:17.001Z</time></trkpt><trkpt lat="44.088754803807625" lon="12.393774903614572"><ele>31.000000000000004</ele><time>2026-04-11T10:15:20.001Z</time></trkpt><trkpt lat="44.08880632623535" lon="12.39382533145743"><ele>31.0</ele><time>2026-04-11T10:15:23.001Z</time></trkpt><trkpt lat="44.088866928483206" lon="12.393889355300255"><ele>31.0</ele><time>2026-04-11T10:15:26.001Z</time></trkpt><trkpt lat="44.088942739711" lon="12.393944682737946"><ele>31.0</ele><time>2026-04-11T10:15:29.001Z</time></trkpt><trkpt lat="44.08901803547883" lon="12.393977938161129"><ele>31.000000000000004</ele><time>2026-04-11T10:15:31.001Z</time></trkpt><trkpt lat="44.08910440568023" lon="12.394011480069224"><ele>31.0</ele><time>2026-04-11T10:15:33.001Z</time></trkpt><trkpt lat="44.089196683333384" lon="12.394016235475508"><ele>31.833333333333336</ele><time>2026-04-11T10:15:35.001Z</time></trkpt><trkpt lat="44.089268580960116" lon="12.394019868925115"><ele>32.66666666666667</ele><time>2026-04-11T10:15:37.001Z</time></trkpt><trkpt lat="44.0893668248005" lon="12.394047581436915"><ele>33.5</ele><time>2026-04-11T10:15:40.001Z</time></trkpt><trkpt lat="44.089451676936065" lon="12.394092443746612"><ele>34.333333333333336</ele><time>2026-04-11T10:15:42Z</time></trkpt><trkpt lat="44.08953447651156" lon="12.394150277388905"><ele>35.166666666666664</ele><time>2026-04-11T10:15:44Z</time></trkpt><trkpt lat="44.089616569064844" lon="12.39421225448525"><ele>36.0</ele><time>2026-04-11T10:15:46Z</time></trkpt><trkpt lat="44.08969336329813" lon="12.394253210257823"><ele>36.0</ele><time>2026-04-11T10:15:48Z</time></trkpt><trkpt lat="44.08976817573218" lon="12.394320733416262"><ele>36.0</ele><time>2026-04-11T10:15:51Z</time></trkpt><trkpt lat="44.089821437782525" lon="12.394370457176315"><ele>36.0</ele><time>2026-04-11T10:15:53Z</time></trkpt><trkpt lat="44.08988611621798" lon="12.39440659409818"><ele>36.0</ele><time>2026-04-11T10:15:55Z</time></trkpt><trkpt lat="44.0899646758568" lon="12.394468514248977"><ele>36.0</ele><time>2026-04-11T10:15:57Z</time></trkpt><trkpt lat="44.090032993927124" lon="12.394520189469166"><ele>36.0</ele><time>2026-04-11T10:15:59Z</time></trkpt><trkpt lat="44.09009011528875" lon="12.394581384920059"><ele>35.57142857142858</ele><time>2026-04-11T10:16:01Z</time></trkpt><trkpt lat="44.09015453606853" lon="12.394629590021909"><ele>35.142857142857146</ele><time>2026-04-11T10:16:03Z</time></trkpt><trkpt lat="44.09021585069673" lon="12.394679826009714"><ele>34.714285714285715</ele><time>2026-04-11T10:16:05Z</time></trkpt><trkpt lat="44.09029525606483" lon="12.39473320825962"><ele>34.28571428571429</ele><time>2026-04-11T10:16:08Z</time></trkpt><trkpt lat="44.090369089523435" lon="12.394744243713982"><ele>33.85714285714286</ele><time>2026-04-11T10:16:11Z</time></trkpt><trkpt lat="44.09042749517763" lon="12.394791807589437"><ele>33.42857142857143</ele><time>2026-04-11T10:16:14Z</time></trkpt><trkpt lat="44.090475812210904" lon="12.394862607510362"><ele>33.0</ele><time>2026-04-11T10:16:15Z</time></trkpt><trkpt lat="44.090550651177125" lon="12.394846339130513"><ele>33.285714285714285</ele><time>2026-04-11T10:16:17Z</time></trkpt><trkpt lat="44.0906113931682" lon="12.394878893159474"><ele>33.57142857142857</ele><time>2026-04-11T10:16:19Z</time></trkpt><trkpt lat="44.090682077900055" lon="12.39488940440441"><ele>33.85714285714286</ele><time>2026-04-11T10:16:21.001Z</time></trkpt><trkpt lat="44.09074973934774" lon="12.394896541392756"><ele>34.14285714285714</ele><time>2026-04-11T10:16:23.001Z</time></trkpt><trkpt lat="44.090822748093686" lon="12.394921631831819"><ele>34.42857142857143</ele><time>2026-04-11T10:16:25.001Z</time></trkpt><trkpt lat="44.09089965999791" lon="12.394975270603076"><ele>34.714285714285715</ele><time>2026-04-11T10:16:28.001Z</time></trkpt><trkpt lat="44.0909645827531" lon="12.395016583896773"><ele>35.0</ele><time>2026-04-11T10:16:31.001Z</time></trkpt><trkpt lat="44.09104312706049" lon="12.39502871632296"><ele>35.0</ele><time>2026-04-11T10:16:33.001Z</time></trkpt><trkpt lat="44.09109837545594" lon="12.39509539722643"><ele>35.0</ele><time>2026-04-11T10:16:35.001Z</time></trkpt><trkpt lat="44.091142332020056" lon="12.395181735697472"><ele>35.0</ele><time>2026-04-11T10:16:37.001Z</time></trkpt><trkpt lat="44.09115283758963" lon="12.395285571969737"><ele>35.0</ele><time>2026-04-11T10:16:39.001Z</time></trkpt><trkpt lat="44.091160860118656" lon="12.395400612041088"><ele>35.0</ele><time>2026-04-11T10:16:42.001Z</time></trkpt><trkpt lat="44.091168822289745" lon="12.395488080100266"><ele>35.0</ele><time>2026-04-11T10:16:44.001Z</time></trkpt><trkpt lat="44.091174221431665" lon="12.39557907459175"><ele>35.0</ele><time>2026-04-11T10:16:46.001Z</time></trkpt><trkpt lat="44.09118287998779" lon="12.395675334448953"><ele>35.57142857142857</ele><time>2026-04-11T10:16:48.001Z</time></trkpt><trkpt lat="44.09119697302267" lon="12.395775112476084"><ele>36.14285714285714</ele><time>2026-04-11T10:16:50.001Z</time></trkpt><trkpt lat="44.091200284763495" lon="12.395869505170372"><ele>36.714285714285715</ele><time>2026-04-11T10:16:52.001Z</time></trkpt><trkpt lat="44.09120962042559" lon="12.395965497378358"><ele>37.285714285714285</ele><time>2026-04-11T10:16:54.001Z</time></trkpt><trkpt lat="44.09122288786578" lon="12.396056990714792"><ele>37.857142857142854</ele><time>2026-04-11T10:16:56.001Z</time></trkpt><trkpt lat="44.091237898248266" lon="12.396143060282167"><ele>38.42857142857143</ele><time>2026-04-11T10:16:58.001Z</time></trkpt><trkpt lat="44.091258171100854" lon="12.39623125147989"><ele>39.0</ele><time>2026-04-11T10:17:00.001Z</time></trkpt><trkpt lat="44.091321946155176" lon="12.396310549621818"><ele>38.714285714285715</ele><time>2026-04-11T10:17:03.001Z</time></trkpt><trkpt lat="44.09139108663655" lon="12.39636735513584"><ele>38.42857142857142</ele><time>2026-04-11T10:17:06.001Z</time></trkpt><trkpt lat="44.09143855210102" lon="12.396444753997994"><ele>38.14285714285714</ele><time>2026-04-11T10:17:09.001Z</time></trkpt><trkpt lat="44.091466782641085" lon="12.39652714107137"><ele>37.85714285714286</ele><time>2026-04-11T10:17:13.001Z</time></trkpt><trkpt lat="44.09151083177146" lon="12.396606332488771"><ele>37.57142857142857</ele><time>2026-04-11T10:17:20.001Z</time></trkpt><trkpt lat="44.091545484296816" lon="12.396682311640623"><ele>37.285714285714285</ele><time>2026-04-11T10:17:29.001Z</time></trkpt><trkpt lat="44.09152089880162" lon="12.396786441290221"><ele>37.0</ele><time>2026-04-11T10:17:33.001Z</time></trkpt><trkpt lat="44.09150108670464" lon="12.396872285673387"><ele>37.0</ele><time>2026-04-11T10:17:37.001Z</time></trkpt><trkpt lat="44.091497403038595" lon="12.39696005899888"><ele>37.0</ele><time>2026-04-11T10:17:41.001Z</time></trkpt><trkpt lat="44.09148421997618" lon="12.397061033460995"><ele>37.0</ele><time>2026-04-11T10:17:45.001Z</time></trkpt><trkpt lat="44.091476642974975" lon="12.397168324305172"><ele>37.0</ele><time>2026-04-11T10:17:49.001Z</time></trkpt><trkpt lat="44.09142721163671" lon="12.397107870077454"><ele>37.0</ele><time>2026-04-11T10:17:59Z</time></trkpt><trkpt lat="44.091421274085384" lon="12.397019870842527"><ele>37.0</ele><time>2026-04-11T10:18:01Z</time></trkpt><trkpt lat="44.09141110340541" lon="12.396924676661117"><ele>37.0</ele><time>2026-04-11T10:18:03Z</time></trkpt><trkpt lat="44.09139060813312" lon="12.396820405122522"><ele>37.0</ele><time>2026-04-11T10:18:05Z</time></trkpt><trkpt lat="44.09136956047854" lon="12.396714888309647"><ele>37.0</ele><time>2026-04-11T10:18:07Z</time></trkpt><trkpt lat="44.09133570860235" lon="12.396605960876098"><ele>37.0</ele><time>2026-04-11T10:18:09Z</time></trkpt><trkpt lat="44.091282589317345" lon="12.396511015187397"><ele>37.0</ele><time>2026-04-11T10:18:11Z</time></trkpt><trkpt lat="44.09122021469068" lon="12.396431938700223"><ele>37.0</ele><time>2026-04-11T10:18:13Z</time></trkpt><trkpt lat="44.09116995753159" lon="12.396365099985516"><ele>37.0</ele><time>2026-04-11T10:18:14Z</time></trkpt><trkpt lat="44.091105736945494" lon="12.396249533296814"><ele>37.333333333333336</ele><time>2026-04-11T10:18:16Z</time></trkpt><trkpt lat="44.09106425816324" lon="12.396146315268863"><ele>37.66666666666667</ele><time>2026-04-11T10:18:18Z</time></trkpt><trkpt lat="44.09104025992453" lon="12.396061913862521"><ele>38.0</ele><time>2026-04-11T10:18:20Z</time></trkpt><trkpt lat="44.09100175244356" lon="12.395935971080988"><ele>38.333333333333336</ele><time>2026-04-11T10:18:23Z</time></trkpt><trkpt lat="44.090979215555535" lon="12.395820119729496"><ele>38.666666666666664</ele><time>2026-04-11T10:18:25Z</time></trkpt><trkpt lat="44.090955828757224" lon="12.395679257608718"><ele>39.0</ele><time>2026-04-11T10:18:27Z</time></trkpt><trkpt lat="44.09094520708842" lon="12.395544547446507"><ele>38.333333333333336</ele><time>2026-04-11T10:18:29.001Z</time></trkpt><trkpt lat="44.09095379957623" lon="12.395413328425185"><ele>37.666666666666664</ele><time>2026-04-11T10:18:31.001Z</time></trkpt><trkpt lat="44.09096532560107" lon="12.39528192054459"><ele>37.0</ele><time>2026-04-11T10:18:33.001Z</time></trkpt><trkpt lat="44.090979646468064" lon="12.395164754650859"><ele>36.33333333333333</ele><time>2026-04-11T10:18:35.001Z</time></trkpt><trkpt lat="44.09099022048491" lon="12.395077055319739"><ele>35.666666666666664</ele><time>2026-04-11T10:18:37.001Z</time></trkpt><trkpt lat="44.0909981697612" lon="12.39498401090195"><ele>35.0</ele><time>2026-04-11T10:18:39.001Z</time></trkpt><trkpt lat="44.091009784820635" lon="12.394893584194497"><ele>35.0</ele><time>2026-04-11T10:18:41.001Z</time></trkpt><trkpt lat="44.091026976649374" lon="12.394791215632477"><ele>35.0</ele><time>2026-04-11T10:18:43.001Z</time></trkpt><trkpt lat="44.091039540543775" lon="12.394694496284737"><ele>35.0</ele><time>2026-04-11T10:18:45.001Z</time></trkpt><trkpt lat="44.091047396770335" lon="12.394603470043414"><ele>35.0</ele><time>2026-04-11T10:18:47.001Z</time></trkpt><trkpt lat="44.091054485941285" lon="12.394482073627769"><ele>35.0</ele><time>2026-04-11T10:18:50.001Z</time></trkpt><trkpt lat="44.09108494155548" lon="12.39440385098075"><ele>35.0</ele><time>2026-04-11T10:18:53.001Z</time></trkpt><trkpt lat="44.09114978273386" lon="12.394480278408698"><ele>35.0</ele><time>2026-04-11T10:18:57.001Z</time></trkpt><trkpt lat="44.09114686901692" lon="12.394607981193161"><ele>35.0</ele><time>2026-04-11T10:18:59.001Z</time></trkpt><trkpt lat="44.0911790616445" lon="12.394744370520012"><ele>35.0</ele><time>2026-04-11T10:19:01.001Z</time></trkpt><trkpt lat="44.09125055556322" lon="12.394867506854926"><ele>35.0</ele><time>2026-04-11T10:19:03.001Z</time></trkpt><trkpt lat="44.09130377873343" lon="12.394930546057461"><ele>35.0</ele><time>2026-04-11T10:19:04.001Z</time></trkpt><trkpt lat="44.09133736230439" lon="12.395032337848246"><ele>35.0</ele><time>2026-04-11T10:19:06.001Z</time></trkpt><trkpt lat="44.091353152731415" lon="12.395148489286768"><ele>35.0</ele><time>2026-04-11T10:19:08.001Z</time></trkpt><trkpt lat="44.09137257549767" lon="12.395265311643033"><ele>35.0</ele><time>2026-04-11T10:19:10.001Z</time></trkpt><trkpt lat="44.09137626264782" lon="12.395372065712507"><ele>35.0</ele><time>2026-04-11T10:19:12.001Z</time></trkpt><trkpt lat="44.09138448093481" lon="12.395484125898069"><ele>35.0</ele><time>2026-04-11T10:19:14.001Z</time></trkpt><trkpt lat="44.091389026824395" lon="12.39559897236809"><ele>35.0</ele><time>2026-04-11T10:19:16.001Z</time></trkpt><trkpt lat="44.09138310766201" lon="12.395726554492809"><ele>35.0</ele><time>2026-04-11T10:19:18.001Z</time></trkpt><trkpt lat="44.091390164550624" lon="12.395838326949269"><ele>35.666666666666664</ele><time>2026-04-11T10:19:20.001Z</time></trkpt><trkpt lat="44.09140455694522" lon="12.395942835041307"><ele>36.33333333333333</ele><time>2026-04-11T10:19:22.001Z</time></trkpt><trkpt lat="44.091427894979" lon="12.396044188023229"><ele>37.0</ele><time>2026-04-11T10:19:25.001Z</time></trkpt><trkpt lat="44.09149567051564" lon="12.396078285502222"><ele>37.666666666666664</ele><time>2026-04-11T10:19:29.001Z</time></trkpt><trkpt lat="44.0915538264069" lon="12.395967494052858"><ele>38.333333333333336</ele><time>2026-04-11T10:19:34.001Z</time></trkpt><trkpt lat="44.091560512442925" lon="12.395835575514802"><ele>39.0</ele><time>2026-04-11T10:19:36.001Z</time></trkpt><trkpt lat="44.091614676189344" lon="12.395774766299896"><ele>37.714285714285715</ele><time>2026-04-11T10:19:38.001Z</time></trkpt><trkpt lat="44.09167346296291" lon="12.395694378059256"><ele>36.42857142857142</ele><time>2026-04-11T10:19:42.001Z</time></trkpt><trkpt lat="44.09172032690808" lon="12.395628323842605"><ele>35.14285714285714</ele><time>2026-04-11T10:19:44.001Z</time></trkpt><trkpt lat="44.091758648868996" lon="12.395555926659243"><ele>33.85714285714286</ele><time>2026-04-11T10:19:46.001Z</time></trkpt><trkpt lat="44.09178143221422" lon="12.395449313713792"><ele>32.57142857142857</ele><time>2026-04-11T10:19:49Z</time></trkpt><trkpt lat="44.09173278765617" lon="12.395387164879075"><ele>31.285714285714285</ele><time>2026-04-11T10:19:51Z</time></trkpt><trkpt lat="44.09169299002599" lon="12.39531792187059"><ele>30.0</ele><time>2026-04-11T10:19:53Z</time></trkpt><trkpt lat="44.09166426742706" lon="12.395234228970232"><ele>30.0</ele><time>2026-04-11T10:19:56Z</time></trkpt><trkpt lat="44.09165121268409" lon="12.395136843471267"><ele>30.0</ele><time>2026-04-11T10:20:32Z</time></trkpt><trkpt lat="44.09159863864042" lon="12.395052686376577"><ele>30.0</ele><time>2026-04-11T10:20:36Z</time></trkpt><trkpt lat="44.0915438976667" lon="12.395005136689258"><ele>35.0</ele><time>2026-04-11T10:21:53Z</time></trkpt></trkseg></trk></gpx>